Date StartTime U_cm/s V_cm/s W_cm/s Ustd_cm/s Vstd_cm/s Wstd_cm/s Uvar_(cm/s)^2 Vvar_(cm/s)^2 Wvar_(cm/s)^2 KE_(m/s)^2 TurbulentKE_(m/s)^2 HorizWindSpeed_cm/s FrictionSpeec_cm/s DragCoef SpeedOfSound_m/s SonicTemperature_C Pressure_mb 
02/07/2014  00:00:00     -414.210     -228.782       -3.003      190.777      153.086       86.422    36395.802    23435.287     7468.823       14.560        3.365      473.193       90.958        0.037      335.026        5.386      854.021
02/07/2014  00:01:00     -339.320     -248.766       -5.473      176.798      165.783       84.348    31257.699    27483.972     7114.538       12.144        3.293      420.741       81.556        0.038      335.050        5.425      854.034
02/07/2014  00:02:00     -511.798     -355.136      -37.251      274.356      178.021      109.324    75271.130    31691.599    11951.699       25.416        5.946      622.943      124.730        0.040      335.042        5.412      854.018
02/07/2014  00:03:00     -424.978     -193.915       -7.579      268.826      231.728      118.540    72267.213    53697.814    14051.782       17.912        7.001      467.129      128.350        0.075      335.010        5.359      854.002
02/07/2014  00:04:00     -174.288     -146.361       -0.693      184.208      157.264       84.206    33932.641    24731.853     7090.594        5.877        3.288      227.591       92.402        0.165      335.014        5.364      853.984
02/07/2014  00:05:00     -314.232     -129.476        1.993      212.060      161.390       86.724    44969.615    26046.885     7521.039        9.701        3.927      339.861      106.796        0.099      334.991        5.327      853.970
02/07/2014  00:06:00     -314.609     -236.253       -1.739      280.775      176.351      110.884    78834.525    31099.715    12295.267       13.849        6.111      393.439      140.597        0.128      334.977        5.303      853.983
02/07/2014  00:07:00     -484.738     -301.377      -34.872      216.725      170.353       90.221    46969.789    29020.249     8139.909       20.556        4.206      570.788       84.058        0.022      334.966        5.285      854.006
02/07/2014  00:08:00     -356.866     -256.184        3.735      270.482      235.903      119.875    73160.436    55650.266    14370.126       16.807        7.159      439.299      149.423        0.116      334.970        5.292      853.981
02/07/2014  00:09:00     -337.249     -194.837      -15.724      228.978      189.251      106.749    52430.918    35815.805    11395.373       12.578        4.982      389.485      113.857        0.085      334.951        5.259      854.028
02/07/2014  00:10:00     -326.224     -275.897       -2.522      203.423      177.708       97.385    41381.114    31580.258     9483.881       13.248        4.122      427.248      105.928        0.061      334.938        5.239      854.041
02/07/2014  00:11:00     -284.696     -124.793        0.844      183.888      127.256       69.876    33814.710    16194.087     4882.673        7.575        2.745      310.845       79.276        0.065      334.932        5.227      854.064
02/07/2014  00:12:00     -482.389     -200.020       -7.633      416.392      203.105      128.668   173382.591    41251.696    16555.438       25.194       11.559      522.214      171.891        0.108      334.944        5.249      854.052
02/07/2014  00:13:00     -551.786     -300.479      -21.525      277.319      214.844      115.697    76906.064    46157.930    13385.838       26.581        6.822      628.296      134.682        0.046      334.946        5.252      854.051
02/07/2014  00:14:00     -489.985     -253.995        1.223      327.153      196.566      119.604   107029.397    38638.302    14305.122       23.226        7.999      551.904      161.830        0.086      334.953        5.263      853.990
02/07/2014  00:15:00     -504.529     -278.859        4.768      223.077      169.283      102.647    49763.283    28656.574    10536.407       21.063        4.448      576.465      108.376        0.035      334.922        5.211      853.939
02/07/2014  00:16:00     -313.788     -206.803       -8.228      201.746      177.724       99.742    40701.291    31585.869     9948.533       11.175        4.112      375.806      103.452        0.076      334.902        5.178      853.922
02/07/2014  00:17:00     -416.941     -311.603       -9.662      240.467      188.006      122.831    57824.162    35346.114    15087.507       18.963        5.413      520.515      140.323        0.073      334.906        5.184      853.941
02/07/2014  00:18:00     -445.236      -97.299      -11.255      323.815      222.944      101.737   104856.106    49704.178    10350.426       18.634        8.246      455.744      130.260        0.082      334.893        5.163      853.940
02/07/2014  00:19:00     -414.466      -65.138      -26.340      242.141      202.107       94.563    58632.331    40847.169     8942.125       14.255        5.421      419.554      117.874        0.079      334.892        5.163      853.973
02/07/2014  00:20:00     -488.929     -296.346      -25.536      195.755      146.639       89.790    38319.831    21502.986     8062.215       19.769        3.394      571.727       93.661        0.027      334.885        5.150      854.007
02/07/2014  00:21:00     -384.870     -162.586      -26.709      186.073      130.905       83.556    34623.022    17136.036     6981.532       11.700        2.937      417.803       80.998        0.038      334.882        5.145      853.994
02/07/2014  00:22:00     -326.922     -167.856      -15.047      198.060      154.841       98.986    39227.731    23975.770     9798.197       10.413        3.650      367.496       98.948        0.072      334.864        5.114      854.011
02/07/2014  00:23:00     -283.448     -175.986       11.155      207.455      137.855       90.617    43037.701    19003.997     8211.497        9.083        3.513      333.637       96.555        0.084      334.869        5.124      854.002
02/07/2014  00:24:00     -249.505     -137.641       -0.059      180.058      122.862       62.186    32420.729    15095.146     3867.046        6.628        2.569      284.953       59.766        0.044      334.821        5.043      853.999
02/07/2014  00:25:00     -176.344     -191.715       18.442      158.632      114.457       82.576    25164.079    13100.306     6818.818        5.663        2.254      260.484       94.815        0.132      334.813        5.030      853.975
02/07/2014  00:26:00     -366.999     -167.420      -11.216      231.321      173.269       92.551    53509.187    30021.986     8565.735       12.745        4.605      403.383       96.686        0.057      334.814        5.031      853.935
02/07/2014  00:27:00     -322.672     -174.931      -20.851      251.134      159.542       99.668    63068.467    25453.645     9933.733       11.679        4.923      367.040      117.974        0.103      334.834        5.066      853.927
02/07/2014  00:28:00     -319.395     -154.276       -6.372      202.487      151.693       93.461    41001.060    23010.892     8735.014        9.929        3.637      354.703      103.932        0.086      334.800        5.009      853.879
02/07/2014  00:29:00     -418.355      -60.239      -25.309      285.836      154.329       95.287    81701.956    23817.477     9079.674       14.693        5.730      422.670      134.069        0.101      334.800        5.008      853.898
02/07/2014  00:30:00     -422.847      -36.979       -4.130      219.350      199.932      104.086    48114.525    39972.799    10833.873       13.954        4.946      424.460       95.836        0.051      334.781        4.976      853.860
02/07/2014  00:31:00     -241.690     -135.520        2.347      130.962      110.826       62.430    17150.985    12282.378     3897.506        5.505        1.667      277.092       66.968        0.058      334.767        4.955      853.844
02/07/2014  00:32:00     -188.936     -108.608       20.347      165.525      140.073       85.459    27398.590    19620.422     7303.295        5.111        2.716      217.928       97.110        0.199      334.779        4.974      853.840
02/07/2014  00:33:00     -269.175     -136.635       -1.908      175.638      161.265       81.875    30848.708    26006.259     6703.573        7.733        3.178      301.868       86.041        0.081      334.792        4.996      853.822
02/07/2014  00:34:00     -296.346      -64.123        5.554      242.936      163.005       94.817    59017.731    26570.741     8990.171        9.326        4.729      303.204      118.963        0.154      334.757        4.936      853.819
02/07/2014  00:35:00     -261.794      -75.009      -19.601      154.636      115.617       67.726    23912.323    13367.278     4586.855        5.820        2.093      272.328       65.510        0.058      334.727        4.888      853.847
02/07/2014  00:36:00     -283.027     -156.167       -3.430      172.502      124.873       84.908    29756.994    15593.353     7209.449        7.852        2.628      323.253       89.591        0.077      334.725        4.884      853.867
02/07/2014  00:37:00     -260.728     -158.323        5.762      179.344      143.390       88.614    32164.419    20560.757     7852.450        7.682        3.029      305.034       98.403        0.104      334.751        4.927      853.845
02/07/2014  00:38:00     -328.690      -93.751        2.789      215.981      191.771       77.962    46647.647    36776.002     6078.086       10.315        4.475      341.799       92.463        0.073      334.729        4.889      853.869
02/07/2014  00:39:00     -259.714      -86.169       -3.228      143.175      128.495       78.381    20498.939    16511.031     6143.580        5.901        2.158      273.636       88.388        0.104      334.712        4.863      853.877
02/07/2014  00:40:00     -226.131      -14.861        1.482      119.124      107.609       71.734    14190.573    11579.788     5145.719        4.113        1.546      226.618       59.018        0.068      334.719        4.874      853.877
02/07/2014  00:41:00     -268.334     -161.165       -2.009      172.821      154.402       87.641    29867.212    23840.003     7680.907        7.967        3.069      313.013       73.316        0.055      334.764        4.949      853.885
02/07/2014  00:42:00     -347.973     -121.872      -14.996      179.108      105.630       66.409    32079.679    11157.767     4410.091        9.190        2.382      368.698       70.011        0.036      334.771        4.959      853.865
02/07/2014  00:43:00     -321.695     -197.192       -8.912      160.250      132.987       72.991    25679.978    17685.425     5327.656        9.556        2.435      377.322       75.415        0.040      334.747        4.921      853.904
02/07/2014  00:44:00     -216.755      -94.867       -5.804      153.303       91.710       66.699    23501.907     8410.768     4448.720        4.618        1.818      236.606       74.940        0.100      334.751        4.927      853.913
02/07/2014  00:45:00     -200.170     -101.757        5.392      190.486      133.140       73.370    36284.926    17726.275     5383.145        5.491        2.970      224.550       89.108        0.157      334.766        4.952      853.901
02/07/2014  00:46:00     -203.470     -169.251        5.755      149.155      157.349       69.234    22247.315    24758.813     4793.357        6.093        2.590      264.662       69.028        0.068      334.768        4.956      853.909
02/07/2014  00:47:00     -146.871      -64.112        3.237      110.843       57.047       42.956    12286.220     3254.309     1845.214        2.154        0.869      160.254       52.837        0.109      334.718        4.873      853.932
02/07/2014  00:48:00     -170.979     -136.878       -0.951      119.164       94.950       62.889    14200.033     9015.578     3955.011        3.757        1.359      219.019       67.485        0.095      334.751        4.926      853.919
02/07/2014  00:49:00     -199.776      -74.601       -3.536      139.942      113.263       64.739    19583.658    12828.562     4191.166        4.104        1.830      213.250       76.420        0.128      334.738        4.905      853.915
02/07/2014  00:50:00     -243.693     -130.915        7.806      162.825      144.620       69.586    26512.079    20914.900     4842.199        6.442        2.613      276.631       81.820        0.087      334.847        5.087      853.933
02/07/2014  00:51:00     -385.841     -253.139      -11.428      215.331      135.188       86.177    46367.570    18275.745     7426.418       14.256        3.603      461.468       95.654        0.043      334.873        5.129      853.925
02/07/2014  00:52:00     -212.679     -114.230       -5.652      161.325      124.224       69.827    26025.723    15431.564     4875.823        5.232        2.317      241.415       88.026        0.133      334.850        5.091      853.933
02/07/2014  00:53:00     -352.375     -208.532      -15.481      175.346      188.650       83.147    30746.293    35588.861     6913.382       12.056        3.662      409.455       88.694        0.047      334.856        5.102      853.934
02/07/2014  00:54:00     -358.140     -244.319       -8.731      207.532      180.773       92.974    43069.531    32678.857     8644.236       13.620        4.220      433.539       85.781        0.039      334.894        5.165      853.923
02/07/2014  00:55:00     -397.277     -266.789      -13.255      234.383      216.171      101.431    54935.513    46729.807    10288.223       17.055        5.598      478.545      102.284        0.046      334.914        5.198      853.933
02/07/2014  00:56:00     -391.998     -192.301        2.107      203.464      173.847       92.498    41397.500    30222.877     8555.789       13.540        4.009      436.626      105.884        0.059      334.834        5.065      853.922
02/07/2014  00:57:00     -304.687     -239.203       -1.214      230.753      172.995       88.806    53246.956    29927.384     7886.454       12.054        4.553      387.366      102.862        0.071      334.825        5.049      853.918
02/07/2014  00:58:00     -380.630     -171.835      -23.156      210.691      148.949       68.051    44390.512    22185.852     4630.919       12.306        3.560      417.620       87.691        0.044      334.817        5.038      853.927
02/07/2014  00:59:00     -266.317     -135.164       -0.182      182.582      163.544       92.669    33336.147    26746.738     8587.513        7.892        3.434      298.654      103.690        0.121      334.816        5.036      853.983
02/07/2014  01:00:00     -291.640     -210.664       -0.877      168.238      136.171       90.693    28304.164    18542.407     8225.231        9.224        2.754      359.769       84.559        0.055      334.791        4.993      853.977
02/07/2014  01:01:00     -339.273     -209.469      -10.409      247.108      161.204      107.802    61062.160    25986.727    11621.220       12.886        4.934      398.727      126.551        0.101      334.792        4.994      853.930
02/07/2014  01:02:00     -472.182     -255.216      -29.335      196.681      157.581       81.386    38683.562    24831.749     6623.744       17.953        3.507      536.741       73.156        0.019      334.797        5.001      853.904
02/07/2014  01:03:00     -219.771      -96.745        4.440      197.654      114.042       72.761    39067.026    13005.643     5294.113        5.751        2.868      240.123       82.008        0.117      334.782        4.978      853.930
02/07/2014  01:04:00     -329.420     -151.799      -11.397      153.897      137.745       74.767    23684.346    18973.657     5590.046        8.996        2.412      362.712       71.147        0.038      334.763        4.947      853.897
02/07/2014  01:05:00     -319.743     -211.980      -13.386      210.232      175.738       89.302    44197.628    30883.894     7974.840       11.519        4.153      383.629      100.798        0.069      334.766        4.951      853.895
02/07/2014  01:06:00     -122.898      -86.199       39.378      204.247      149.901       89.753    41716.749    22470.424     8055.673        4.815        3.612      150.114      109.688        0.534      334.792        4.997      853.919
02/07/2014  01:07:00     -359.458     -270.958       -8.105      216.796      179.451       95.554    47000.387    32202.730     9130.610       14.550        4.417      450.143      100.043        0.049      334.778        4.972      853.919
02/07/2014  01:08:00     -277.102     -182.591      -16.990      170.163      117.048       86.043    28955.490    13700.144     7403.362        8.023        2.503      331.851       85.051        0.066      334.792        4.995      853.911
02/07/2014  01:09:00     -299.247     -168.977      -20.142      233.041      118.044       79.405    54307.921    13934.463     6305.207        9.652        3.727      343.660       97.345        0.080      334.820        5.042      853.920
02/07/2014  01:10:00     -320.280     -261.149      -20.669      219.968      174.635       83.220    48385.866    30497.451     6925.506       12.849        4.290      413.253       94.708        0.053      334.838        5.073      853.901
02/07/2014  01:11:00     -405.017     -234.151      -12.860      221.835      174.156      107.898    49210.931    30330.379    11641.961       15.509        4.559      467.830      127.897        0.075      334.844        5.082      853.948
02/07/2014  01:12:00     -378.387     -205.864       -5.497      223.295      199.706       95.622    49860.676    39882.517     9143.479       14.222        4.944      430.763      111.203        0.067      334.829        5.056      853.959
02/07/2014  01:13:00     -407.000     -173.916      -37.134      210.506      211.583      108.329    44312.689    44767.431    11735.138       14.903        5.041      442.602      117.718        0.071      334.800        5.008      853.882
02/07/2014  01:14:00     -363.779     -186.082      -12.776      210.114      177.196      105.052    44147.902    31398.344    11035.920       12.684        4.329      408.609       93.456        0.052      334.787        4.985      853.910
02/07/2014  01:15:00     -257.457     -201.715       14.145      247.274      181.298       97.387    61144.506    32869.079     9484.199       10.532        5.175      327.068      124.554        0.145      334.799        5.008      853.949
02/07/2014  01:16:00     -329.416     -137.459        5.370      224.244      143.180       88.104    50285.585    20500.476     7762.401       10.298        3.927      356.945      106.439        0.089      334.784        4.982      853.970
02/07/2014  01:17:00     -413.312     -170.406       -3.306      215.613      146.015       94.156    46489.074    21320.279     8865.282       13.826        3.834      447.063       90.264        0.041      334.783        4.981      854.012
02/07/2014  01:18:00     -366.517     -269.502      -26.765      231.204      161.538       80.369    53455.209    26094.672     6459.127       14.683        4.300      454.936       92.852        0.042      334.786        4.986      854.038
02/07/2014  01:19:00     -489.803     -345.380      -36.769      211.622      160.799       95.226    44784.080    25856.421     9067.983       22.011        3.985      599.329      103.838        0.030      334.820        5.042      854.005
02/07/2014  01:20:00     -297.891     -138.757       -8.264      243.868      131.584       99.910    59471.838    17314.254     9981.976        9.740        4.338      328.622      123.273        0.141      334.787        4.987      854.031
02/07/2014  01:21:00     -274.938     -158.549      -17.098      138.493      126.829       67.892    19180.406    16085.600     4609.309        7.044        1.994      317.378       76.269        0.058      334.789        4.990      854.015
02/07/2014  01:22:00     -354.424     -215.607        8.371      170.531      138.551       88.768    29080.779    19196.259     7879.684       11.416        2.808      414.853       87.695        0.045      334.780        4.976      854.067
02/07/2014  01:23:00     -363.781     -250.408      -13.688      203.139      135.076       80.602    41265.510    18245.596     6496.659       13.061        3.300      441.634      100.868        0.052      334.809        5.024      854.081
02/07/2014  01:24:00     -214.053     -127.672        9.327      174.101      118.293       78.429    30311.330    13993.138     6151.059        5.632        2.523      249.236       86.672        0.121      334.818        5.040      854.144
02/07/2014  01:25:00     -227.137     -113.593       -2.065      146.584      109.614       70.034    21486.798    12015.324     4904.741        5.145        1.920      253.958       57.511        0.051      334.808        5.021      854.146
02/07/2014  01:26:00     -344.992     -104.026       -4.641      143.865      122.866       61.020    20697.159    15096.087     3723.437        8.468        1.976      360.334       58.711        0.027      334.797        5.004      854.142
02/07/2014  01:27:00     -138.350     -103.959      -11.078       77.667       80.353       39.829     6032.214     6456.596     1586.332        2.207        0.704      173.055       33.190        0.037      334.788        4.990      854.108
02/07/2014  01:28:00     -176.537     -156.918       -5.789      161.003      169.158       59.669    25922.065    28614.453     3560.388        5.695        2.905      236.196       85.614        0.131      334.798        5.006      854.125
02/07/2014  01:29:00     -399.769     -202.766       -7.520      243.962      208.153       91.150    59517.234    43327.558     8308.351       15.605        5.558      448.252      105.564        0.055      334.802        5.012      854.088
02/07/2014  01:30:00     -296.209     -193.766        8.915      224.535      174.218       78.551    50416.015    30352.083     6170.220       10.614        4.347      353.956       92.503        0.068      334.808        5.022      854.095
02/07/2014  01:31:00     -374.916     -323.928       -9.515      171.148      218.349       91.614    29291.500    47676.402     8393.060       16.546        4.268      495.471       97.315        0.039      334.838        5.070      854.044
02/07/2014  01:32:00     -243.812     -171.540       -5.320      145.602      115.717       75.352    21199.917    13390.451     5677.886        6.458        2.013      298.112       67.867        0.052      334.786        4.985      854.055
02/07/2014  01:33:00     -151.702     -129.068       16.964      119.323      122.210       60.171    14237.987    14935.211     3620.497        3.637        1.640      199.178       65.265        0.107      334.778        4.971      853.996
02/07/2014  01:34:00     -326.001     -205.741      -10.465      162.924      115.085       76.140    26544.326    13244.663     5797.345        9.714        2.279      385.495       81.089        0.044      334.774        4.965      853.999
02/07/2014  01:35:00     -232.251     -142.251       10.432      150.175      116.827       69.516    22552.492    13648.477     4832.435        5.765        2.052      272.353       76.065        0.078      334.765        4.951      853.978
02/07/2014  01:36:00     -252.111     -176.458       -9.752      181.026      152.602       80.243    32770.366    23287.247     6438.987        7.863        3.125      307.730       84.458        0.075      334.739        4.907      853.995
02/07/2014  01:37:00     -268.523     -182.499       21.042      192.552      173.036       90.314    37076.250    29941.399     8156.641        9.050        3.759      324.670       87.120        0.072      334.753        4.930      853.979
02/07/2014  01:38:00     -357.569     -228.255      -26.126      145.342      121.152       78.481    21124.215    14677.691     6159.319       11.129        2.098      424.212       71.950        0.029      334.794        4.998      853.947
02/07/2014  01:39:00     -346.806     -273.883       -5.581      231.348      159.316       93.417    53521.835    25381.493     8726.796       14.146        4.382      441.912      102.141        0.053      334.782        4.979      853.932
02/07/2014  01:40:00     -417.879     -202.742      -25.572      167.859      160.607       80.956    28176.717    25794.704     6553.952       13.844        3.026      464.464       93.516        0.041      334.769        4.958      853.927
02/07/2014  01:41:00     -330.360     -262.664        5.128      156.624      179.337       85.651    24531.136    32161.619     7336.136       12.108        3.201      422.054       78.017        0.034      334.768        4.956      853.936
02/07/2014  01:42:00     -480.217     -279.096      -17.495      159.086      144.242       88.938    25308.345    20805.678     7910.028       18.141        2.701      555.430       77.843        0.020      334.770        4.959      853.885
02/07/2014  01:43:00     -354.144     -318.229      -17.101      226.377      156.555       82.261    51246.371    24509.559     6766.854       15.474        4.126      476.117       99.604        0.044      334.753        4.930      853.895
02/07/2014  01:44:00     -339.911     -210.625      -11.586      180.544      152.894       93.312    32596.067    23376.665     8707.167       11.235        3.234      399.878       92.310        0.053      334.732        4.894      853.845
02/07/2014  01:45:00     -378.373     -235.207      -15.956      227.563      155.225       88.562    51784.763    24094.683     7843.266       14.122        4.186      445.520      100.911        0.051      334.719        4.875      853.822
02/07/2014  01:46:00     -248.062     -130.793        4.764      154.529      133.990       72.138    23879.352    17953.252     5203.904        6.284        2.352      280.431       77.867        0.077      334.731        4.894      853.865
02/07/2014  01:47:00     -253.371     -247.357        4.348      195.547      175.947       84.210    38238.440    30957.190     7091.352       10.083        3.814      354.094       90.704        0.066      334.756        4.936      853.863
02/07/2014  01:48:00     -352.603     -144.384       -7.955      165.033      166.160       90.949    27235.847    27609.075     8271.800       10.417        3.156      381.019       88.143        0.054      334.772        4.963      853.858
02/07/2014  01:49:00     -315.564     -219.669       -0.877      258.293      172.096       90.920    66715.380    29617.084     8266.503       12.620        5.230      384.493       86.919        0.051      334.918        5.205      853.965
02/07/2014  01:50:00     -219.262     -103.346       26.699      258.930      126.960       72.948    67044.764    16118.872     5321.406        7.396        4.424      242.397       93.461        0.149      334.804        5.017      854.004
02/07/2014  01:51:00      -75.455     -171.627      -34.526       99.315      110.664       45.596     9863.512    12246.424     2078.967        3.026        1.209      187.482       18.239        0.009      334.883        5.148      853.943
02/07/2014  01:52:00     -119.304      -70.345       -0.722      139.219       80.690       51.151    19381.963     6510.847     2616.376        2.384        1.425      138.498       42.492        0.094      334.766        4.955      853.928
02/07/2014  01:53:00      -82.150     -183.166       -3.344      114.694       73.601       46.858    13154.636     5417.101     2195.643        3.054        1.038      200.745       27.299        0.018      334.820        5.043      853.968
02/07/2014  01:54:00     -166.116     -155.461       -9.964      148.413      115.909       71.645    22026.499    13434.919     5133.040        4.622        2.030      227.514       45.578        0.040      334.795        5.000      854.014
02/07/2014  01:55:00     -201.833     -166.310        2.568      120.255      151.388       66.186    14461.300    22918.250     4380.583        5.507        2.088      261.525       52.292        0.040      334.760        4.943      853.986
02/07/2014  01:56:00     -152.510     -220.410       12.710      189.752      147.367       83.427    36005.771    21716.903     6960.032        6.833        3.234      268.030       88.908        0.110      334.793        4.996      853.934
02/07/2014  01:57:00     -194.439     -103.766        8.946      120.441      115.498       67.087    14506.100    13339.798     4500.680        4.049        1.617      220.394       72.848        0.109      334.727        4.888      853.969
02/07/2014  01:58:00     -310.237     -127.011        5.598      164.284      142.607       70.776    26989.351    20336.763     5009.277        8.236        2.617      335.229       70.753        0.045      334.717        4.869      853.994
02/07/2014  01:59:00     -187.494     -223.974       17.965      163.215      191.360       93.180    26639.000    36618.492     8682.438        7.878        3.597      292.093       93.570        0.103      334.745        4.918      854.020
02/07/2014  02:00:00     -270.817     -145.011       -0.072      213.008      164.001       72.332    45372.232    26896.210     5231.893        8.592        3.875      307.197       91.001        0.088      334.722        4.880      853.972
02/07/2014  02:01:00     -418.556     -115.871       -9.000      220.170      134.662       82.566    48474.667    18133.866     6817.126       13.105        3.671      434.299       81.705        0.035      334.710        4.858      854.005
02/07/2014  02:02:00     -127.952     -136.300       13.367      147.591      132.092       70.873    21783.041    17448.327     5022.919        3.968        2.213      186.948       66.660        0.127      334.743        4.914      853.968
02/07/2014  02:03:00     -266.750      -63.642       -1.056      200.796      133.139       71.913    40318.878    17726.038     5171.476        6.920        3.161      274.237       87.778        0.102      334.743        4.915      853.988
02/07/2014  02:04:00     -154.147      -97.582      -10.953      105.542       81.592       60.444    11139.184     6657.276     3653.475        2.742        1.072      182.438       53.368        0.086      334.734        4.900      853.956
02/07/2014  02:05:00      -69.395     -188.293       14.037       93.835      174.446       51.428     8804.942    30431.551     2644.818        4.117        2.094      200.674       74.680        0.138      334.762        4.947      853.919
02/07/2014  02:06:00     -124.148     -157.973       13.993      103.591      118.600       58.262    10731.184    14066.003     3394.455        3.437        1.410      200.919       54.865        0.075      334.747        4.922      853.941
02/07/2014  02:07:00     -312.029     -169.449        8.119      177.719      168.702       88.925    31584.142    28460.267     7907.729        9.704        3.398      355.070       85.398        0.058      334.790        4.992      853.927
02/07/2014  02:08:00     -471.282     -288.447      -28.568      267.793      185.138       96.471    71713.233    34275.941     9306.563       21.069        5.765      552.547      110.624        0.040      334.815        5.032      853.883
02/07/2014  02:09:00     -371.494     -176.659       -6.244      171.967      149.908       80.814    29572.590    22472.463     6530.955       11.391        2.929      411.359       99.672        0.059      334.803        5.013      853.891
02/07/2014  02:10:00     -475.888     -257.661      -21.116      166.229      158.934       76.760    27632.118    25259.925     5892.138       17.603        2.939      541.164       60.421        0.012      334.789        4.988      853.897
02/07/2014  02:11:00     -252.499      -82.999      -16.981      148.196       96.760       59.297    21962.180     9362.487     3516.163        5.288        1.742      265.790       50.526        0.036      334.768        4.956      853.948
02/07/2014  02:12:00     -148.758     -139.121       13.807      117.018      104.258       62.469    13693.246    10869.660     3902.367        3.507        1.423      203.675       62.180        0.093      334.789        4.991      853.970
02/07/2014  02:13:00     -193.440      -80.957       12.330      138.076      108.570       65.271    19064.969    11787.418     4260.295        3.961        1.756      209.697       69.069        0.108      334.826        5.052      853.954
02/07/2014  02:14:00     -183.596      -87.706       15.959      146.324       98.196       66.035    21410.662     9642.505     4360.681        3.853        1.771      203.470       53.991        0.070      334.829        5.058      853.946
02/07/2014  02:15:00      -99.637     -170.198       -0.251       90.006       71.351       45.290     8101.039     5090.943     2051.214        2.707        0.762      197.217       37.643        0.036      334.875        5.134      853.980
02/07/2014  02:16:00     -154.361     -200.313       -4.511      157.115      109.631       56.810    24685.259    12018.967     3227.429        5.195        1.997      252.888       50.967        0.041      334.851        5.095      853.997
02/07/2014  02:17:00     -221.128     -223.576      -20.852      171.661      140.913       66.438    29467.331    19856.594     4413.943        7.652        2.687      314.457       66.453        0.045      334.854        5.099      853.942
02/07/2014  02:18:00      -76.389     -122.400       16.105      126.602      111.273       67.184    16028.020    12381.594     4513.646        2.699        1.646      144.281       64.994        0.203      334.835        5.068      853.979
02/07/2014  02:19:00     -137.617     -190.770       -2.360       97.846       93.563       59.880     9573.790     8754.065     3585.624        3.862        1.096      235.227       51.325        0.048      334.839        5.072      854.037
02/07/2014  02:20:00      -66.775     -160.821       -5.461      105.573      134.651       51.737    11145.642    18130.961     2676.717        3.115        1.598      174.132       50.568        0.084      334.934        5.232      854.057
02/07/2014  02:21:00     -149.300     -143.785      -30.416       99.778       97.494       44.033     9955.661     9505.126     1938.910        3.264        1.070      207.279       46.588        0.051      334.885        5.149      854.085
02/07/2014  02:22:00     -218.586     -139.433       -6.830      113.603       95.725       53.025    12905.694     9163.209     2811.686        4.607        1.244      259.271       61.348        0.056      334.801        5.011      854.088
02/07/2014  02:23:00     -229.924     -128.639       -7.472       96.100       78.061       41.502     9235.291     6093.445     1722.415        4.326        0.853      263.464       24.691        0.009      334.810        5.025      854.142
02/07/2014  02:24:00      -99.110     -148.190       -0.535      105.393       84.036       43.148    11107.681     7062.093     1861.760        2.590        1.002      178.278       32.960        0.034      334.864        5.115      854.184
02/07/2014  02:25:00      -38.202      -47.072       -6.745       77.538       75.477       36.653     6012.214     5696.741     1343.440        0.838        0.653       60.623       13.919        0.053      334.913        5.199      854.167
02/07/2014  02:26:00      -28.761      -40.266       17.081       77.343       77.199       37.693     5981.884     5959.715     1420.744        0.805        0.668       49.483       38.215        0.596      334.891        5.163      854.168
02/07/2014  02:27:00      -39.275     -174.595       -8.256       87.020       92.398       45.582     7572.539     8537.323     2077.743        2.514        0.909      178.958       25.200        0.020      334.970        5.291      854.199
02/07/2014  02:28:00      -84.988     -149.632      -11.978       84.177       86.712       52.041     7085.727     7519.017     2708.246        2.353        0.866      172.084       15.823        0.008      335.055        5.435      854.141
02/07/2014  02:29:00      -54.607      -61.274       25.668       87.841       81.406       61.813     7716.069     6626.931     3820.874        1.278        0.908       82.076       54.923        0.448      335.007        5.356      854.055
02/07/2014  02:30:00     -111.497      -48.558       26.840      100.849       69.880       53.632    10170.596     4883.276     2876.345        1.672        0.897      121.612       56.851        0.219      334.930        5.226      854.073
02/07/2014  02:31:00     -176.880     -176.593      -12.288      139.917      109.421       62.757    19576.680    11972.995     3938.494        4.905        1.774      249.943       57.219        0.052      334.966        5.287      854.105
02/07/2014  02:32:00     -346.233     -296.130      -11.870      253.198      165.199      101.456    64109.085    27290.761    10293.404       15.469        5.085      455.599      121.671        0.071      335.000        5.343      854.086
02/07/2014  02:33:00     -344.122     -230.554      -18.485      191.236      126.438       74.310    36571.285    15986.527     5521.959       11.499        2.904      414.216       79.517        0.037      335.018        5.372      854.117
02/07/2014  02:34:00     -257.057     -133.948      -13.566      216.351      117.142       71.302    46807.848    13722.356     5084.001        7.490        3.281      289.862      103.952        0.129      334.999        5.343      854.097
02/07/2014  02:35:00      -39.002     -133.124       44.814      152.116      101.318       72.898    23139.168    10265.404     5314.130        2.998        1.936      138.720       75.727        0.298      334.974        5.299      854.076
02/07/2014  02:36:00     -271.561     -295.090      -12.842      215.621      164.748       96.942    46492.417    27141.883     9397.713       12.200        4.152      401.028      107.387        0.072      334.978        5.304      854.031
02/07/2014  02:37:00     -253.838     -255.560       -4.839      158.826      149.977       81.543    25225.661    22493.014     6649.241        9.206        2.718      360.200       80.140        0.050      334.971        5.293      854.016
02/07/2014  02:38:00     -407.996     -293.786      -23.298      169.291      150.772       83.551    28659.500    22732.221     6980.710       15.583        2.919      502.764       69.389        0.019      334.943        5.246      853.996
02/07/2014  02:39:00     -360.409     -202.231       -6.468      161.324      142.384       83.990    26025.434    20273.064     7054.244       11.208        2.668      413.270       75.627        0.033      334.968        5.290      853.935
02/07/2014  02:40:00     -483.258     -247.281      -16.841      309.076      178.366      122.870    95527.685    31814.346    15097.026       21.868        7.122      542.850      134.434        0.061      334.990        5.326      853.867
02/07/2014  02:41:00     -385.193     -161.548      -26.098      190.922      143.665       86.735    36451.318    20639.665     7523.000       11.987        3.231      417.698       80.825        0.037      334.988        5.322      853.893
02/07/2014  02:42:00     -454.759     -265.344       14.694      242.366      245.172      112.334    58741.245    60109.123    12618.841       20.443        6.573      526.510      126.425        0.058      334.972        5.296      853.853
02/07/2014  02:43:00     -414.554     -287.189      -24.763      239.421      208.160       95.409    57322.543    43330.382     9102.870       18.233        5.488      504.314       83.105        0.027      334.969        5.290      853.835
02/07/2014  02:44:00     -239.068     -245.314       26.774      228.045      173.166      114.090    52004.739    29986.308    13016.439       10.651        4.750      342.538      113.004        0.109      334.996        5.336      853.773
02/07/2014  02:45:00     -403.199     -380.997       -5.778      249.620      223.576      119.671    62310.154    49986.200    14321.061       21.717        6.331      554.732      142.556        0.066      335.004        5.348      853.786
02/07/2014  02:46:00     -493.121     -298.187      -17.771      309.286      251.451      127.069    95657.890    63227.498    16146.499       25.369        8.752      576.267      155.674        0.073      334.966        5.285      853.742
02/07/2014  02:47:00     -340.833     -298.393        6.614      285.504      201.927      119.256    81512.455    40774.708    14221.928       17.086        6.825      452.997      136.817        0.091      334.947        5.253      853.670
02/07/2014  02:48:00     -294.507     -219.257       -8.696      212.598      165.662       89.048    45198.096    27443.963     7929.505       10.771        4.029      367.162       93.871        0.065      334.916        5.201      853.711
02/07/2014  02:49:00     -416.022     -257.274      -12.608      223.208      178.933       98.437    49821.955    32017.137     9689.905       16.546        4.576      489.146      106.729        0.048      334.937        5.238      853.658
02/07/2014  02:50:00     -672.439     -389.631      -11.570      360.113      320.460      167.521   129681.227   102694.399    28063.152       43.224       13.022      777.166      181.705        0.055      335.005        5.350      853.527
02/07/2014  02:51:00     -439.120     -194.465      -10.549      269.130      194.217      103.549    72430.694    37720.263    10722.455       17.579        6.044      480.253      116.045        0.058      334.987        5.320      853.535
02/07/2014  02:52:00     -388.990     -253.764      -11.468      219.949      205.665       99.279    48377.623    42298.225     9856.305       15.817        5.027      464.446      111.154        0.057      334.982        5.311      853.572
02/07/2014  02:53:00     -645.551     -345.293      -20.732      376.148      271.293      122.409   141487.170    73599.785    14983.944       38.319       11.504      732.096      159.736        0.048      335.028        5.389      853.521
02/07/2014  02:54:00     -599.136     -434.527      -27.489      395.557      350.218      177.279   156465.212   122652.523    31427.945       42.949       15.527      740.120      190.116        0.066      334.996        5.335      853.473
02/07/2014  02:55:00     -535.629     -302.533       -2.175      368.297      247.322      144.843   135642.468    61168.230    20979.364       29.807       10.890      615.162      172.788        0.079      334.952        5.260      853.474
02/07/2014  02:56:00     -483.807     -265.778        1.407      289.822      210.267      141.311    83996.620    44212.252    19968.900       22.642        7.409      552.002      155.370        0.079      334.956        5.267      853.526
02/07/2014  02:57:00     -417.638     -361.281       -7.159      295.907      242.520      134.362    87560.850    58816.145    18053.139       23.469        8.222      552.219      146.441        0.070      334.948        5.255      853.556
02/07/2014  02:58:00     -780.740     -435.098       -2.738      368.602      305.264      149.566   135867.586    93186.048    22369.997       52.511       12.571      893.792      159.253        0.032      334.969        5.291      853.498
02/07/2014  02:59:00     -466.392     -292.806      -13.974      250.434      226.871      130.527    62717.364    51470.571    17037.381       21.732        6.561      550.688      130.872        0.056      334.943        5.246      853.575
02/07/2014  03:00:00     -518.992     -255.591        2.646      361.269      291.285      133.673   130515.595    84846.683    17868.604       28.392       11.662      578.515      173.530        0.090      334.903        5.180      853.591
02/07/2014  03:01:00     -403.375     -250.368       16.929      240.963      231.155      108.362    58063.294    53432.818    11742.254       17.444        6.162      474.759      119.968        0.064      334.865        5.117      853.590
02/07/2014  03:02:00     -515.605     -324.678      -13.695      296.629      244.116      127.755    87988.746    59592.599    16321.262       26.765        8.195      609.315      150.964        0.061      334.838        5.072      853.567
02/07/2014  03:03:00     -576.057     -338.161      -22.830      265.269      195.036      109.045    70367.838    38039.123    11890.792       28.349        6.015      667.978      129.517        0.038      334.837        5.070      853.541
02/07/2014  03:04:00     -505.718     -176.175        2.867      287.475      211.630      100.955    82642.115    44787.304    10191.849       21.219        6.881      535.526      115.650        0.047      334.872        5.129      853.562
02/07/2014  03:05:00     -530.894     -302.398        3.203      329.137      315.827      130.115   108331.082    99746.655    16929.961       29.912       11.250      610.977      147.447        0.058      334.975        5.301      853.621
02/07/2014  03:06:00     -608.031     -378.774      -10.227      314.948      223.000      132.862    99191.972    49729.047    17652.407       33.990        8.329      716.360      142.694        0.040      334.893        5.163      853.588
02/07/2014  03:07:00     -451.665     -241.941       -7.908      230.451      163.147      100.154    53107.808    26616.870    10030.876       17.616        4.488      512.383      120.356        0.055      334.873        5.130      853.678
02/07/2014  03:08:00     -510.627     -391.613       10.206      357.276      289.268      143.099   127645.844    83675.805    20477.379       32.296       11.590      643.506      173.474        0.073      334.826        5.053      853.677
02/07/2014  03:09:00     -422.563     -258.085       -0.482      269.729      266.823      121.570    72753.968    71194.353    14779.225       20.192        7.936      495.143      155.899        0.099      334.831        5.061      853.658
02/07/2014  03:10:00     -553.631     -413.615       -6.855      330.879      234.057      149.244   109480.760    54782.592    22273.625       33.205        9.327      691.075      167.076        0.058      334.809        5.023      853.614
02/07/2014  03:11:00     -478.061     -375.119       -4.325      251.998      199.066      119.258    63503.197    39627.429    14222.521       24.329        5.868      607.665      126.710        0.043      334.793        4.998      853.703
02/07/2014  03:12:00     -365.190     -269.541        1.339      202.452      151.072      105.818    40986.868    22822.880    11197.504       14.050        3.750      453.890      109.179        0.058      334.777        4.969      853.770
02/07/2014  03:13:00     -530.011     -178.348      -10.585      247.131      232.932      107.648    61073.792    54257.419    11588.191       21.985        6.346      559.214      122.792        0.048      334.764        4.948      853.789
02/07/2014  03:14:00     -564.101     -347.519       -4.213      324.345      228.360      130.141   105199.496    52148.311    16936.684       30.661        8.714      662.555      150.829        0.052      334.793        4.997      853.808
02/07/2014  03:15:00     -595.780     -321.867      -27.153      231.618      230.474      110.163    53646.978    53118.318    12135.896       28.908        5.945      677.165      113.958        0.028      334.815        5.031      853.819
02/07/2014  03:16:00     -447.306     -319.707        5.088      263.743      202.571      135.460    69560.464    41034.995    18349.318       21.561        6.447      549.814      136.240        0.061      334.789        4.990      853.906
02/07/2014  03:17:00     -446.795     -261.207      -15.085      262.383      219.798      113.960    68844.911    48311.269    12986.768       19.909        6.507      517.547      127.279        0.060      334.741        4.909      853.967
02/07/2014  03:18:00     -630.935     -343.056      -36.541      249.612      227.752      116.476    62306.344    51871.043    13566.716       32.240        6.387      718.169      105.749        0.022      334.753        4.930      853.925
02/07/2014  03:19:00     -526.394     -271.709      -34.872      292.349      208.052      107.540    85467.803    43285.762    11564.943       24.620        7.016      592.382      119.506        0.041      334.694        4.832      854.017
02/07/2014  03:20:00     -427.038     -118.680      -13.073      251.607      249.708      101.412    63305.910    62354.245    10284.439       16.626        6.797      443.223       97.511        0.048      334.664        4.782      853.983
02/07/2014  03:21:00     -554.797     -290.609      -19.706      296.871      275.922      130.004    88132.258    76132.818    16901.048       28.687        9.058      626.301      153.702        0.060      334.698        4.837      853.993
02/07/2014  03:22:00     -543.969     -430.101      -27.984      257.736      273.447      117.106    66427.722    74773.339    13713.713       31.827        7.746      693.462      118.114        0.029      334.755        4.933      853.971
02/07/2014  03:23:00     -437.618     -342.789        3.173      306.264      212.374      126.685    93797.765    45102.762    16049.124       23.196        7.747      555.890      156.879        0.080      334.770        4.958      853.993
02/07/2014  03:24:00     -547.947     -350.012       -2.559      301.211      256.860      130.002    90727.965    65976.947    16900.460       29.815        8.680      650.195      144.145        0.049      334.722        4.879      853.987
02/07/2014  03:25:00     -561.718     -394.358       -6.046      353.724      273.087      139.477   125120.429    74576.411    19453.855       34.508       10.958      686.327      175.254        0.065      334.748        4.923      854.001
02/07/2014  03:26:00     -427.475     -228.249       -5.011      233.206      235.568       97.646    54384.856    55492.247     9534.782       17.711        5.971      484.595      117.379        0.059      334.739        4.907      854.062
02/07/2014  03:27:00     -614.215     -261.382      -28.727      277.914      240.526      109.190    77236.018    57852.557    11922.463       29.668        7.351      667.518      127.411        0.036      334.711        4.860      854.084
02/07/2014  03:28:00     -534.056     -326.901      -23.384      263.913      247.256      102.921    69649.839    61135.363    10592.647       26.698        7.069      626.163      113.152        0.033      334.699        4.840      854.121
02/07/2014  03:29:00     -540.759     -376.565       -0.897      326.552      227.059      132.547   106636.316    51555.692    17568.625       30.496        8.788      658.955      164.041        0.062      334.739        4.906      854.115
02/07/2014  03:30:00     -460.508     -177.781      -28.695      214.401      195.802      106.696    45967.784    38338.381    11384.024       17.008        4.785      493.634      102.746        0.043      334.797        5.003      854.123
02/07/2014  03:31:00     -583.153     -300.638      -35.025      292.311      263.918      125.455    85445.911    69652.640    15738.852       30.123        8.542      656.088      126.192        0.037      334.801        5.009      854.075
02/07/2014  03:32:00     -619.817     -326.902      -22.622      342.718      277.792      119.941   117455.689    77168.206    14385.735       35.024       10.450      700.741      145.666        0.043      334.772        4.962      854.076
02/07/2014  03:33:00     -439.110     -228.033       -5.002      237.733      210.984      124.989    56516.958    44514.100    15622.265       18.073        5.833      494.789      142.851        0.083      334.779        4.974      854.161
02/07/2014  03:34:00     -411.742     -239.029       13.489      263.955      216.431      106.097    69672.054    46842.493    11256.635       17.729        6.389      476.095      119.728        0.063      334.748        4.922      854.142
02/07/2014  03:35:00     -285.760     -121.343       15.633      237.148      180.903      108.115    56239.279    32725.854    11688.931        9.862        5.033      310.455      116.790        0.142      334.757        4.936      854.166
02/07/2014  03:36:00     -603.462     -304.065      -26.436      332.395      219.749      120.007   110486.486    48289.704    14401.768       31.522        8.659      675.738      136.926        0.041      334.773        4.963      854.146
02/07/2014  03:37:00     -397.427     -305.662       -2.577      230.459      198.944      101.130    53111.151    39578.622    10227.349       17.713        5.146      501.375      125.477        0.063      334.766        4.952      854.168
02/07/2014  03:38:00     -360.595     -295.543        3.388      260.481      217.484      131.022    67850.246    47299.074    17166.637       17.483        6.616      466.234      156.683        0.113      334.750        4.926      854.145
02/07/2014  03:39:00     -471.929     -321.918       -3.597      317.416      221.474      137.542   100753.056    49050.726    18917.855       24.751        8.436      571.269      163.839        0.082      334.721        4.876      854.123
02/07/2014  03:40:00     -498.286     -286.933      -10.431      284.715      267.384      127.689    81062.906    71494.408    16304.540       24.977        8.443      574.995      143.260        0.062      334.721        4.878      854.142
02/07/2014  03:41:00     -604.764     -315.294      -22.051      266.910      220.261      115.243    71241.204    48514.979    13280.856       29.931        6.652      682.019      126.751        0.035      334.776        4.968      854.142
02/07/2014  03:42:00     -479.588     -267.329       -3.093      289.982      203.065      122.169    84089.847    41235.336    14925.278       22.084        7.013      549.062      130.036        0.056      334.756        4.935      854.131
02/07/2014  03:43:00     -467.002     -214.765        3.025      395.242      271.181      119.493   156216.210    73538.972    14278.559       25.409       12.202      514.019      143.142        0.078      334.742        4.910      854.115
02/07/2014  03:44:00     -670.569     -224.056      -23.253      412.958      248.294      129.239   170534.199    61649.780    16702.668       37.460       12.444      707.010      174.253        0.061      334.770        4.960      854.166
02/07/2014  03:45:00     -635.206     -219.743       -8.579      324.319      279.202      133.420   105182.512    77953.961    17801.026       32.636       10.047      672.141      163.594        0.059      334.748        4.921      854.193
02/07/2014  03:46:00     -589.599     -297.074      -22.182      235.316      225.878      103.839    55373.550    51021.079    10782.456       27.676        5.859      660.212      117.708        0.032      334.740        4.909      854.228
02/07/2014  03:47:00     -488.074     -139.070       -7.291      223.364      160.340      103.156    49891.598    25708.841    10641.178       17.191        4.312      507.500      103.910        0.042      334.679        4.805      854.264
02/07/2014  03:48:00     -387.556     -175.267       -9.068      218.087      254.892       82.760    47561.740    64969.748     6849.250       15.017        5.969      425.345      101.039        0.056      334.685        4.817      854.271
02/07/2014  03:49:00     -470.792     -263.469      -19.070      214.620      220.718       91.162    46061.822    48716.220     8310.515       19.724        5.154      539.501      105.134        0.038      334.688        4.822      854.352
02/07/2014  03:50:00     -366.840     -209.882      -14.071      231.149      179.540      106.223    53429.980    32234.619    11283.379       13.787        4.847      422.637      108.962        0.066      334.680        4.808      854.417
02/07/2014  03:51:00     -439.986     -247.800       -7.877      238.991      200.801      110.012    57116.689    40320.926    12102.746       18.228        5.477      504.968      104.092        0.042      334.676        4.802      854.426
02/07/2014  03:52:00     -391.918     -229.713       22.906      344.904      214.756      108.936   118958.823    46120.017    11867.043       19.189        8.847      454.277      156.871        0.119      334.666        4.784      854.457
02/07/2014  03:53:00     -550.425     -184.293      -27.585      260.963      180.415      103.323    68101.774    32549.613    10675.657       22.449        5.566      580.458      112.689        0.038      334.672        4.797      854.470
02/07/2014  03:54:00     -338.903     -136.506       -8.587      243.082      170.307       87.605    59088.639    29004.525     7674.584       11.465        4.788      365.362      101.584        0.077      334.646        4.753      854.423
02/07/2014  03:55:00     -276.920     -209.893       -7.908      272.236      214.559      108.660    74112.491    46035.465    11807.002       12.636        6.598      347.477      125.305        0.130      334.652        4.762      854.426
02/07/2014  03:56:00     -477.538      -65.320      -22.610      282.470      191.654      102.450    79789.449    36731.167    10496.001       17.990        6.351      481.985      128.866        0.071      334.658        4.771      854.378
02/07/2014  03:57:00     -444.062     -274.930      -14.059      252.653      213.042      123.922    63833.650    45386.741    15356.608       19.876        6.229      522.281      136.128        0.068      334.701        4.843      854.392
02/07/2014  03:58:00     -677.277     -216.650      -37.859      333.245      231.849      118.202   111052.054    53753.799    13971.804       34.290        8.939      711.085      131.315        0.034      334.729        4.891      854.355
02/07/2014  03:59:00     -478.860     -167.107       -1.067      222.543      196.388      103.101    49525.532    38568.175    10629.768       17.796        4.936      507.180      116.598        0.053      334.714        4.865      854.369
02/07/2014  04:00:00     -552.602     -203.137      -21.872      271.139      148.104       97.115    73516.332    21934.674     9431.276       22.598        5.244      588.756      107.763        0.034      334.725        4.884      854.370
02/07/2014  04:01:00     -367.906     -264.100        7.494      322.743      231.786      130.671   104162.957    53724.734    17074.929       19.003        8.748      452.883      163.291        0.130      334.747        4.921      854.340
02/07/2014  04:02:00     -609.575     -237.995      -16.107      356.192      242.481      131.601   126872.404    58797.276    17318.727       31.570       10.149      654.387      157.063        0.058      334.721        4.876      854.380
02/07/2014  04:03:00     -587.987     -213.030      -14.499      289.867      252.578      132.741    84022.780    63795.603    17620.075       27.835        8.272      625.388      134.200        0.046      334.713        4.864      854.337
02/07/2014  04:04:00     -418.044     -217.585        4.545      285.964      201.481      119.840    81775.290    40594.691    14361.632       17.941        6.837      471.279      143.669        0.093      334.727        4.887      854.365
02/07/2014  04:05:00     -539.674     -330.790       -6.982      289.485      231.630      144.373    83801.530    53652.478    20843.484       27.948        7.915      632.985      153.015        0.058      334.713        4.865      854.326
02/07/2014  04:06:00     -549.105     -235.004      -20.258      271.610      281.349      116.052    73771.941    79157.453    13468.006       26.175        8.320      597.280      121.287        0.041      334.742        4.912      854.331
02/07/2014  04:07:00     -497.898     -226.979      -22.427      352.026      289.326      142.150   123922.527    83709.740    20206.487       26.384       11.392      547.194      169.385        0.096      334.767        4.953      854.246
02/07/2014  04:08:00     -622.201     -233.396      -20.869      322.649      268.012      131.251   104102.568    71830.305    17226.875       31.757        9.658      664.536      152.820        0.053      334.779        4.974      854.292
02/07/2014  04:09:00     -607.399     -373.524      -25.764      312.808      241.067      130.543    97848.879    58113.515    17041.466       34.103        8.650      713.059      143.528        0.041      334.799        5.008      854.293
02/07/2014  04:10:00     -679.999     -401.531      -26.244      329.533      269.303      139.192   108592.017    72524.133    19374.279       41.237       10.025      789.700      161.859        0.042      334.720        4.874      854.306
02/07/2014  04:11:00     -533.055     -308.067      -23.040      193.368      179.211      114.977    37391.289    32116.601    13219.647       23.114        4.136      615.673      104.092        0.029      334.672        4.796      854.335
02/07/2014  04:12:00     -539.659     -357.232       -8.005      327.081      241.030      142.859   106982.169    58095.478    20408.758       30.217        9.274      647.183      173.422        0.072      334.659        4.773      854.354
02/07/2014  04:13:00     -508.616     -280.018      -15.438      295.706      213.787      121.685    87442.202    45704.938    14807.237       24.262        7.398      580.603      136.815        0.056      334.673        4.796      854.335
02/07/2014  04:14:00     -686.879     -365.383      -20.303      319.593      250.675      126.723   102139.915    62837.871    16058.776       39.335        9.052      778.015      149.023        0.037      334.752        4.928      854.330
02/07/2014  04:15:00     -621.744     -358.845       -5.371      265.842      160.420      104.939    70672.135    25734.544    11012.174       31.137        5.371      717.869       97.688        0.019      334.719        4.873      854.321
02/07/2014  04:16:00     -357.257     -281.404        7.401      272.020      207.334      117.538    73995.132    42987.386    13815.214       16.881        6.540      454.775      140.091        0.095      334.719        4.873      854.331
02/07/2014  04:17:00     -350.560     -243.230        5.096      232.375      195.587      101.755    53998.336    38254.449    10354.038       14.233        5.130      426.677      113.882        0.071      334.724        4.883      854.374
02/07/2014  04:18:00     -459.119     -187.480      -18.633      274.310      140.635       92.415    75246.235    19778.254     8540.476       17.491        5.178      495.922      104.303        0.044      334.729        4.888      854.427
02/07/2014  04:19:00     -374.616     -209.118        8.012      259.160      202.560      112.694    67163.915    41030.583    12700.034       15.249        6.045      429.031      120.877        0.079      334.744        4.915      854.414
02/07/2014  04:20:00     -559.419     -281.706      -26.610      239.366      192.228       99.606    57295.851    36951.779     9921.257       24.857        5.208      626.344      111.814        0.032      334.769        4.958      854.381
02/07/2014  04:21:00     -515.753     -259.001      -19.286      272.943      194.043      113.985    74497.761    37652.822    12992.512       22.928        6.257      577.133      130.379        0.051      334.734        4.899      854.392
02/07/2014  04:22:00     -380.543     -203.960        4.250      271.482      194.107      107.266    73702.278    37677.481    11506.037       15.464        6.144      431.756      125.193        0.084      334.715        4.866      854.440
02/07/2014  04:23:00     -545.560     -272.470       -6.596      318.537      235.097      142.247   101465.796    55270.495    20234.096       27.442        8.849      609.816      161.561        0.070      334.764        4.947      854.390
02/07/2014  04:24:00     -579.961     -393.692      -33.101      268.691      192.245      120.843    72194.698    36958.054    14603.050       30.808        6.188      700.962      129.448        0.034      334.744        4.916      854.349
02/07/2014  04:25:00     -516.913     -226.507      -21.551      275.951      204.044      112.027    76149.176    41633.808    12550.141       22.463        6.517      564.363      137.496        0.059      334.731        4.894      854.415
02/07/2014  04:26:00     -336.171     -234.942      -14.767      256.057      213.133      110.015    65565.369    45425.688    12103.335       14.574        6.155      410.133      121.083        0.087      334.756        4.935      854.432
02/07/2014  04:27:00     -335.920     -231.808        9.360      249.384      212.167      112.622    62192.180    45014.969    12683.687       14.326        5.995      408.139      141.846        0.121      334.750        4.926      854.402
02/07/2014  04:28:00     -319.248     -135.633        7.361      205.265      199.197       96.074    42133.635    39679.367     9230.300       10.569        4.552      346.865      102.027        0.087      334.754        4.932      854.426
02/07/2014  04:29:00     -571.583     -325.431       -1.486      355.320      287.845      135.158   126252.213    82854.582    18267.721       32.996       11.369      657.733      174.795        0.071      334.813        5.030      854.465
02/07/2014  04:30:00     -434.476     -220.469       -1.367      263.164      224.338      118.936    69255.115    50327.734    14145.674       18.553        6.686      487.212      136.209        0.078      334.833        5.063      854.494
02/07/2014  04:31:00     -661.128     -381.155      -33.121      318.802      235.800      133.707   101634.575    55601.770    17877.500       37.926        8.756      763.131      158.497        0.043      334.884        5.149      854.508
02/07/2014  04:32:00     -498.151     -257.390      -36.807      355.772      239.974      138.105   126573.374    57587.529    19072.877       25.946       10.162      560.717      159.507        0.081      334.887        5.155      854.576
02/07/2014  04:33:00     -377.947     -259.307       -1.044      252.258      225.229      122.813    63633.851    50728.167    15083.092       16.974        6.472      458.349      142.705        0.097      334.884        5.149      854.566
02/07/2014  04:34:00     -339.348     -269.182       21.936      268.067      222.390      130.921    71860.061    49457.492    17140.202       16.325        6.923      433.147      149.796        0.120      334.928        5.221      854.553
02/07/2014  04:35:00     -470.250     -173.841      -18.119      289.124      189.323      109.379    83592.902    35843.194    11963.662       19.152        6.570      501.354      116.852        0.054      334.891        5.162      854.641
02/07/2014  04:36:00     -487.088     -291.740      -24.260      302.201      236.699      135.445    91325.419    56026.521    18345.390       24.430        8.285      567.773      137.146        0.058      334.897        5.169      854.691
02/07/2014  04:37:00     -276.537     -179.697       17.623      241.649      208.714      118.853    58394.250    43561.516    14125.972       11.256        5.804      329.794      140.779        0.182      334.884        5.149      854.705
02/07/2014  04:38:00     -457.713     -145.544        3.284      300.413      263.108      125.475    90247.751    69225.947    15743.914       20.293        8.761      480.296      163.709        0.116      334.855        5.101      854.712
02/07/2014  04:39:00     -476.934     -243.870      -20.920      259.160      187.339      110.246    67163.788    35095.763    12154.217       20.088        5.721      535.667      125.928        0.055      334.922        5.212      854.726
02/07/2014  04:40:00     -249.421     -149.543       -0.942      249.301      182.840      101.399    62151.231    33430.365    10281.739        9.520        5.293      290.816      106.690        0.135      334.948        5.255      854.772
02/07/2014  04:41:00     -654.400     -146.637      -23.345      295.094      252.228      117.685    87080.251    63619.012    13849.793       30.739        8.227      670.628      136.949        0.042      335.022        5.378      854.766
02/07/2014  04:42:00     -605.276     -232.937      -35.966      279.098      191.551      112.644    77895.637    36691.861    12688.759       27.457        6.364      648.551      137.978        0.045      335.014        5.365      854.810
02/07/2014  04:43:00     -335.566     -186.178       -4.017      207.373      177.865      112.227    43003.359    31636.050    12594.864       11.724        4.362      383.754      114.078        0.088      335.021        5.378      854.865
02/07/2014  04:44:00     -462.999     -281.455        2.517      247.866      188.103      111.845    61437.735    35382.829    12509.289       20.144        5.466      541.835      110.800        0.042      335.014        5.365      854.868
02/07/2014  04:45:00     -335.730     -167.048        3.780      261.118      145.771       98.824    68182.664    21249.239     9766.160       11.990        4.960      374.993      130.417        0.121      334.964        5.282      854.837
02/07/2014  04:46:00     -302.352     -112.203        2.334      234.465      177.944       87.780    54973.794    31664.085     7705.384        9.916        4.717      322.500      111.295        0.119      334.940        5.242      854.856
02/07/2014  04:47:00     -468.355      -17.455       -8.511      284.415      175.554      105.892    80891.757    30819.052    11213.214       17.131        6.146      468.680      120.531        0.066      334.919        5.206      854.851
02/07/2014  04:48:00     -284.911     -127.357        5.396      229.610      186.952       92.823    52720.928    34951.036     8616.162        9.684        4.814      312.081       91.824        0.087      334.890        5.158      854.881
02/07/2014  04:49:00     -290.871     -246.496       -0.409      245.919      171.492      114.621    60476.048    29409.465    13137.903       12.418        5.151      381.269      129.258        0.115      334.882        5.145      854.894
02/07/2014  04:50:00     -323.554     -216.297      -12.873      231.289      190.492       99.229    53494.730    36287.256     9846.354       12.562        4.981      389.193      102.909        0.070      334.878        5.137      854.924
02/07/2014  04:51:00     -130.482      -49.774       10.981      159.019      115.123       90.302    25286.889    13253.213     8154.458        3.315        2.335      139.653       76.404        0.299      334.873        5.131      854.917
02/07/2014  04:52:00     -385.885     -207.524      -11.594      175.942      141.395       76.142    30955.726    19992.476     5797.639       12.442        2.837      438.147       72.110        0.027      334.846        5.085      854.923
02/07/2014  04:53:00     -499.849     -129.204      -29.621      230.528      232.234      107.228    53143.031    53932.457    11497.838       19.298        5.929      516.277      107.477        0.043      334.889        5.156      854.896
02/07/2014  04:54:00     -470.743     -152.156       -2.377      249.899      218.219       93.428    62449.535    47619.454     8728.742       18.176        5.940      494.723      103.174        0.043      334.924        5.215      854.855
02/07/2014  04:55:00     -382.803     -251.137      -21.456      184.494      223.958      101.064    34037.909    50157.207    10214.029       15.222        4.720      457.830       90.751        0.039      334.956        5.268      854.866
02/07/2014  04:56:00     -354.392     -221.843       15.188      233.591      164.643      108.014    54564.534    27107.268    11667.120       13.417        4.667      418.101      128.721        0.095      334.915        5.200      854.891
02/07/2014  04:57:00     -443.285     -180.367        0.651      267.849      209.697      106.237    71743.030    43972.660    11286.218       17.800        6.350      478.575      126.026        0.069      334.909        5.191      854.918
02/07/2014  04:58:00     -408.886     -140.586       -7.782      194.281      193.763       93.014    37745.270    37544.209     8651.657       13.546        4.197      432.380       94.147        0.047      334.880        5.140      854.972
02/07/2014  04:59:00     -385.809     -184.129       -9.849      218.381      169.385      108.255    47690.206    28691.153    11719.155       13.546        4.405      427.495      111.598        0.068      334.855        5.099      854.935
02/07/2014  05:00:00     -405.841     -238.493      -11.185      163.481      140.748       80.050    26725.988    19809.940     6408.030       13.732        2.647      470.729       89.915        0.036      334.849        5.089      854.927
02/07/2014  05:01:00     -471.910     -196.205      -27.247      247.849      177.264      105.885    61429.181    31422.368    11211.692       18.298        5.203      511.073      110.783        0.047      334.853        5.096      854.898
02/07/2014  05:02:00     -491.040     -183.594      -31.353      279.957      127.681       94.435    78376.169    16302.527     8917.993       18.969        5.180      524.240      118.816        0.051      334.859        5.107      854.875
02/07/2014  05:03:00     -511.900     -257.247      -23.047      279.648      190.478      102.331    78202.824    36281.963    10471.623       22.683        6.248      572.903       89.424        0.024      334.875        5.133      854.822
02/07/2014  05:04:00     -303.343     -152.214       -3.823      173.369      147.057       85.041    30056.754    21625.752     7231.967        8.705        2.946      339.391       73.648        0.047      334.889        5.156      854.809
02/07/2014  05:05:00     -210.787     -164.152        6.440      159.049      125.598       83.175    25296.741    15774.981     6918.013        5.970        2.399      267.165       89.277        0.112      334.873        5.131      854.808
02/07/2014  05:06:00     -350.390     -212.441       -9.931      273.584      240.450      117.941    74847.973    57816.337    13910.095       15.726        7.329      409.761      129.091        0.099      334.857        5.103      854.832
02/07/2014  05:07:00     -508.686     -243.562        4.010      295.845      216.963      112.367    87523.972    47072.907    12626.238       23.264        7.361      563.989      140.669        0.062      334.934        5.232      854.773
02/07/2014  05:08:00     -429.393     -159.951      -19.361      249.460      178.000      101.166    62230.208    31683.951    10234.573       15.723        5.207      458.217      105.120        0.053      334.941        5.241      854.777
02/07/2014  05:09:00     -393.119     -262.842      -11.151      244.546      240.299      103.260    59802.569    57743.776    10662.709       17.596        6.410      472.893      122.679        0.067      334.892        5.162      854.793
02/07/2014  05:10:00     -355.949     -181.050      -18.125      214.819      169.069       83.771    46147.183    28584.406     7017.543       12.076        4.087      399.348       92.050        0.053      334.870        5.125      854.818
02/07/2014  05:11:00     -394.550      -88.834        1.742      250.765      180.590       88.649    62883.123    32612.570     7858.704       13.344        5.168      404.427       99.294        0.060      334.853        5.096      854.863
02/07/2014  05:12:00     -395.129     -335.948      -33.582      222.677      173.901       92.599    49585.106    30241.697     8574.602       17.924        4.420      518.641      102.667        0.039      334.860        5.107      854.871
02/07/2014  05:13:00     -275.946     -201.534       14.802      242.608      172.192       99.290    58858.408    29650.152     9858.515       10.766        4.918      341.705      123.241        0.130      334.887        5.155      854.864
02/07/2014  05:14:00     -322.273     -218.792       -5.400      187.637      160.404       88.675    35207.743    25729.422     7863.284       11.027        3.440      389.525      101.744        0.068      334.888        5.155      854.897
02/07/2014  05:15:00     -381.082     -142.709      -15.971      235.621      147.888       78.351    55517.124    21870.877     6138.933       12.467        4.176      406.927      104.287        0.066      334.836        5.068      854.939
02/07/2014  05:16:00     -304.528     -207.817      -12.595      237.618      161.757       94.391    56462.383    26165.255     8909.567       11.380        4.577      368.681      113.582        0.095      334.821        5.042      854.928
02/07/2014  05:17:00     -389.147     -180.989      -14.798      246.208      134.828       95.177    60618.546    18178.469     9058.604       13.612        4.393      429.177      114.393        0.071      334.788        4.988      854.917
02/07/2014  05:18:00     -263.344     -184.268       -0.174      196.592      166.038       94.264    38648.416    27568.740     8885.665        8.919        3.755      321.411      106.346        0.109      334.757        4.937      854.928
02/07/2014  05:19:00     -271.058     -119.599        0.653      242.054      134.269       94.795    58589.991    18028.195     8986.162        8.668        4.280      296.271      120.727        0.166      334.746        4.917      854.876
02/07/2014  05:20:00     -433.089     -285.304       -7.954      312.614      243.734      122.685    97727.665    59406.264    15051.593       22.058        8.609      518.618      143.293        0.076      334.764        4.949      854.886
02/07/2014  05:21:00     -538.580     -345.075      -28.326      210.517      155.518       95.963    44317.432    24185.926     9208.866       24.382        3.886      639.645       94.882        0.022      334.730        4.892      854.880
02/07/2014  05:22:00     -365.822     -201.129       -6.076      178.865      158.701       79.102    31992.751    25186.069     6257.105       11.886        3.172      417.467       74.077        0.031      334.704        4.848      854.940
02/07/2014  05:23:00     -361.161     -192.765      -15.813      206.762      128.234       91.471    42750.452    16444.053     8367.019       11.769        3.378      409.384      109.838        0.072      334.671        4.794      854.922
02/07/2014  05:24:00     -479.851     -339.854      -12.093      220.931      171.059      107.201    48810.615    29261.143    11492.079       21.772        4.478      588.011      107.791        0.034      334.658        4.771      854.949
02/07/2014  05:25:00     -347.662     -264.087       -4.586      182.207      140.606       87.540    33199.347    19770.099     7663.200       12.562        3.032      436.590       94.677        0.047      334.658        4.771      855.016
02/07/2014  05:26:00     -324.625      -79.721       -4.510      174.192      120.512       87.412    30342.903    14523.093     7640.929        8.212        2.625      334.271      100.538        0.090      334.652        4.764      854.990
02/07/2014  05:27:00     -442.048     -248.476      -25.797      262.105      193.515      106.370    68699.057    37448.040    11314.678       18.762        5.873      507.096      118.222        0.054      334.699        4.840      854.986
02/07/2014  05:28:00     -370.165     -213.535       -3.778      272.389      181.460      111.989    74195.792    32927.669    12541.627       15.113        5.983      427.340      131.377        0.095      334.700        4.841      854.991
02/07/2014  05:29:00     -437.054     -241.594      -22.432      168.165      158.766       81.420    28279.356    25206.561     6629.284       15.499        3.006      499.384       84.390        0.029      334.671        4.793      855.021
02/07/2014  05:30:00     -299.550     -127.245      -14.473      153.803      150.584       69.759    23655.287    22675.533     4866.363        7.866        2.560      325.456       67.065        0.042      334.669        4.790      855.068
02/07/2014  05:31:00     -350.770     -204.076       -2.067      138.307      155.867       73.932    19128.883    24294.621     5465.950       10.678        2.444      405.816       70.028        0.030      334.672        4.796      855.124
02/07/2014  05:32:00     -484.211     -165.004      -25.693      223.158      179.703      101.490    49799.645    32293.290    10300.245       17.735        4.620      511.553      108.256        0.045      334.664        4.782      855.101
02/07/2014  05:33:00     -466.684     -270.509      -26.258      231.769      176.766       98.232    53717.085    31246.389     9649.450       19.312        4.731      539.416       96.535        0.032      334.688        4.821      855.162
02/07/2014  05:34:00     -322.153     -127.166       -6.371      202.385      152.742       73.394    40959.818    23330.006     5386.667        9.482        3.484      346.343       91.453        0.070      334.716        4.869      855.200
02/07/2014  05:35:00     -426.101     -230.600       -9.515      168.813      113.000       69.302    28497.711    12769.104     4802.788       14.044        2.303      484.498       66.735        0.019      334.677        4.803      855.213
02/07/2014  05:36:00     -404.885     -121.745      -18.759      202.559      135.886       78.391    41030.183    18464.918     6145.223       12.236        3.282      422.793       88.668        0.044      334.744        4.915      855.211
02/07/2014  05:37:00     -376.975     -127.639       -3.783      198.643      107.598       74.956    39458.975    11577.286     5618.357       10.753        2.833      397.997       91.093        0.052      334.710        4.858      855.178
02/07/2014  05:38:00     -274.504     -143.554       -3.658      171.033       88.789       52.321    29252.318     7883.421     2737.506        6.792        1.994      309.774       72.032        0.054      334.678        4.806      855.220
02/07/2014  05:39:00     -170.460     -133.485      -11.268      124.156       81.620       51.127    15414.810     6661.890     2613.969        3.584        1.235      216.506       59.426        0.075      334.727        4.886      855.317
02/07/2014  05:40:00     -326.922     -186.561      -20.401      176.164      142.341       82.928    31033.811    20260.962     6877.066       10.013        2.909      376.408       73.525        0.038      334.729        4.890      855.362
02/07/2014  05:41:00     -185.281     -106.851       20.796      158.343      100.055       68.297    25072.649    10011.097     4664.488        4.296        1.987      213.883       71.928        0.113      334.726        4.887      855.292
02/07/2014  05:42:00     -339.813     -200.219        1.221      169.717      122.711       82.251    28803.966    15058.078     6765.242       10.309        2.531      394.411       88.950        0.051      334.755        4.933      855.280
02/07/2014  05:43:00     -394.225     -205.323      -15.697      170.450      143.286       82.573    29053.174    20530.987     6818.257       12.710        2.820      444.490       99.378        0.050      334.802        5.012      855.432
02/07/2014  05:44:00     -214.602      -78.312      -10.020      136.985       86.429       57.704    18764.945     7470.021     3329.716        4.092        1.478      228.444       68.656        0.090      334.792        4.995      855.410
02/07/2014  05:45:00     -287.257      -70.812        1.799      210.705      129.251       81.538    44396.468    16705.904     6648.402        7.763        3.388      295.856      106.293        0.129      334.773        4.963      855.374
02/07/2014  05:46:00     -249.556     -214.629        2.624      162.741      179.062       88.393    26484.520    32063.196     7813.253        8.734        3.318      329.156       85.268        0.067      334.776        4.968      855.384
02/07/2014  05:47:00     -428.920     -161.953      -48.183      156.380      140.519       92.188    24454.611    19745.693     8498.592       13.260        2.635      458.476       86.194        0.035      334.810        5.025      855.330
02/07/2014  05:48:00     -315.627     -178.657       -3.577      189.712      139.226       78.704    35990.734    19383.746     6194.333        9.655        3.078      362.683       83.452        0.053      334.818        5.038      855.325
02/07/2014  05:49:00     -401.103     -259.796      -17.182      167.789      165.894       98.853    28153.237    27520.801     9771.999       14.705        3.272      477.889       98.793        0.043      334.842        5.079      855.251
02/07/2014  05:50:00     -354.652     -166.855       -2.109      216.612      188.176       88.296    46920.646    35410.292     7796.228       12.186        4.506      391.942       97.723        0.062      334.877        5.137      855.228
02/07/2014  05:51:00     -409.066     -318.806      -11.134      232.430      180.983      105.405    54023.661    32754.777    11110.190       18.348        4.894      518.626      111.556        0.046      334.852        5.095      855.211
02/07/2014  05:52:00     -359.240     -104.194      -33.503      185.347      134.633       83.073    34353.381    18126.159     6901.082       10.020        2.969      374.045       66.066        0.031      334.805        5.016      855.234
02/07/2014  05:53:00     -248.578      -73.521        5.675      194.678      125.854       81.108    37899.671    15839.185     6578.537        6.376        3.016      259.223      102.093        0.155      334.792        4.997      855.234
02/07/2014  05:54:00     -363.627     -240.592        7.318      249.560      179.830      107.049    62279.997    32338.985    11459.416       14.810        5.304      436.015      121.872        0.078      334.799        5.007      855.187
02/07/2014  05:55:00     -471.315     -212.836      -26.215      267.386      195.481       84.823    71495.390    38212.787     7194.863       19.249        5.845      517.143       94.582        0.033      334.863        5.115      855.107
02/07/2014  05:56:00     -423.058     -233.640      -21.737      203.783      146.140       91.766    41527.408    21356.893     8420.981       15.266        3.565      483.287      102.653        0.045      334.869        5.125      855.078
02/07/2014  05:57:00     -183.291     -128.365        4.350      158.832      129.594       73.261    25227.595    16794.551     5367.217        4.873        2.369      223.770       86.819        0.151      334.844        5.083      855.056
02/07/2014  05:58:00     -462.356     -297.541      -14.980      280.362      219.199      122.467    78602.996    48048.368    14998.139       22.207        7.082      549.822      147.139        0.072      334.885        5.151      855.046
02/07/2014  05:59:00     -163.887     -129.435       18.928      181.606      155.172       82.434    32980.743    24078.354     6795.286        5.390        3.193      208.836       91.029        0.190      334.878        5.139      855.047
02/07/2014  06:00:00     -324.491     -191.237        8.428      190.859      159.161       94.917    36427.310    25332.293     9009.184       10.634        3.538      376.652      105.036        0.078      334.862        5.112      855.046
02/07/2014  06:01:00     -561.303     -359.247      -23.369      265.507      172.373      109.837    70493.975    29712.325    12064.064       27.845        5.614      666.423      116.689        0.031      334.905        5.182      854.987
02/07/2014  06:02:00     -271.393     -152.532       -4.513      177.499      187.491       93.144    31506.023    35152.773     8675.853        8.612        3.767      311.319       99.134        0.101      334.843        5.080      854.977
02/07/2014  06:03:00     -378.175     -114.733       -1.272      184.406      175.873       67.237    34005.392    30931.136     4520.852       11.281        3.473      395.197       64.538        0.027      334.827        5.053      854.970
02/07/2014  06:04:00     -422.262     -229.913      -24.035      174.159      167.607       92.296    30331.451    28092.046     8518.620       14.933        3.347      480.796       82.759        0.030      334.828        5.055      854.913
02/07/2014  06:05:00     -459.157      -93.279      -22.092      250.230      158.423      107.384    62615.088    25097.735    11531.252       15.961        4.962      468.536      130.411        0.077      334.832        5.062      854.925
02/07/2014  06:06:00     -403.010      -72.084       -2.367      199.710      182.285       95.367    39884.024    33227.763     9094.877       12.490        4.110      409.406       98.098        0.057      334.821        5.043      854.915
02/07/2014  06:07:00     -306.381     -148.907      -18.444      187.515      131.687       69.499    35161.992    17341.414     4830.173        8.685        2.867      340.651       60.076        0.031      334.852        5.096      854.854
02/07/2014  06:08:00     -318.252     -171.796      -11.314      182.759      148.866       82.283    33400.973    22161.137     6770.446        9.662        3.117      361.661       74.393        0.042      334.844        5.083      854.848
02/07/2014  06:09:00     -333.374     -268.956      -12.113      251.702      183.098      127.121    63354.050    33524.959    16159.701       14.831        5.652      428.340      134.471        0.099      334.872        5.129      854.815
02/07/2014  06:10:00     -314.918     -211.384        4.171      244.807      211.942      112.022    59930.436    44919.298    12549.032       13.062        5.870      379.285      129.073        0.116      334.853        5.096      854.816
02/07/2014  06:11:00     -408.019     -132.772       -1.917      256.667      168.325       91.836    65877.966    28333.341     8433.858       14.336        5.132      429.078      104.632        0.059      334.792        4.996      854.853
02/07/2014  06:12:00     -384.600      -92.237       10.246      237.035      198.585       93.391    56185.495    39436.067     8721.868       13.042        5.217      395.506      103.455        0.068      334.822        5.046      854.823
02/07/2014  06:13:00     -263.726     -250.469        8.691      261.156      247.181      134.636    68202.699    61098.394    18126.751       13.987        7.371      363.711      155.698        0.183      334.863        5.114      854.814
02/07/2014  06:14:00     -179.721     -163.619        6.750      231.086      209.613      107.152    53400.750    43937.812    11481.637        8.395        5.441      243.045      118.921        0.239      334.893        5.164      854.778
02/07/2014  06:15:00     -453.691      -10.757      -17.142      267.240      167.806      100.346    71417.456    28158.832    10069.401       15.793        5.482      453.819      110.192        0.059      334.812        5.028      854.840
02/07/2014  06:16:00     -367.778      -30.483        0.700      186.813      156.563       98.083    34898.919    24511.959     9620.332       10.260        3.452      369.039       97.870        0.070      334.807        5.021      854.892
02/07/2014  06:17:00     -571.421     -183.786      -16.217      277.390      193.260      105.174    76945.451    37349.468    11061.523       24.294        6.268      600.249      126.188        0.044      334.819        5.039      854.950
02/07/2014  06:18:00     -410.208      -60.749        3.944      273.644      244.688      102.147    74880.902    59872.231    10434.006       15.856        7.259      414.682      113.994        0.076      334.815        5.034      854.990
02/07/2014  06:19:00     -315.900     -146.294       -1.989      220.925      161.953       72.884    48807.776    26228.894     5312.055       10.076        4.017      348.130       90.243        0.067      334.815        5.034      854.983
02/07/2014  06:20:00     -485.498     -152.273      -25.460      245.025      165.163       99.373    60037.293    27278.686     9874.985       17.835        4.860      508.818      108.754        0.046      334.831        5.060      854.951
02/07/2014  06:21:00     -341.038      -71.527       -4.307      205.914      168.481       80.607    42400.572    28385.900     6497.426        9.935        3.864      348.458       87.899        0.064      334.819        5.041      854.975
02/07/2014  06:22:00     -313.899     -197.709      -17.249      224.992      172.945      103.085    50621.353    29909.880    10626.590       11.452        4.558      370.973       97.005        0.068      334.833        5.063      854.993
02/07/2014  06:23:00     -424.819     -197.349      -21.867      232.717      160.350       96.003    54157.196    25712.249     9216.531       15.448        4.454      468.420      115.872        0.061      334.848        5.090      855.002
02/07/2014  06:24:00     -268.777     -197.174       21.445      235.885      190.162      114.044    55641.860    36161.748    13006.040       10.818        5.240      333.345      122.350        0.135      334.861        5.109      854.972
02/07/2014  06:25:00     -208.736     -123.356       31.703      218.953      178.962       97.081    47940.441    32027.425     9424.647        7.458        4.470      242.462      107.876        0.198      334.866        5.120      854.952
02/07/2014  06:26:00     -466.822     -100.236      -32.581      215.478      226.925       90.667    46430.979    51494.808     8220.594       16.757        5.307      477.462       99.821        0.044      334.875        5.134      854.959
02/07/2014  06:27:00     -639.629     -268.893      -28.468      275.248      249.754      103.648    75761.732    62376.909    10742.908       31.554        7.444      693.851      121.690        0.031      334.890        5.159      854.948
02/07/2014  06:28:00     -512.512     -110.639      -20.272      184.109      158.929       94.076    33896.065    25258.391     8850.368       17.165        3.400      524.318       88.646        0.029      334.900        5.173      855.021
02/07/2014  06:29:00     -395.364     -123.799      -17.607      223.573      158.039       82.818    49985.088    24976.232     6858.893       12.687        4.091      414.293      102.556        0.061      334.899        5.174      855.045
02/07/2014  06:30:00     -300.188      -57.874        6.509      235.425      208.712      102.433    55424.833    43560.640    10492.464       10.147        5.474      305.716      115.148        0.142      334.897        5.170      855.050
02/07/2014  06:31:00     -429.884      -98.005      -16.170      234.117      155.707       96.620    54810.873    24244.657     9335.395       14.151        4.420      440.914       99.782        0.051      334.880        5.141      855.071
02/07/2014  06:32:00     -599.787     -156.435      -30.166      267.770      164.028      120.541    71700.919    26905.303    14530.131       24.911        5.657      619.852      112.317        0.033      334.877        5.136      855.124
02/07/2014  06:33:00     -309.718     -110.074       -5.046      181.152      174.476       80.294    32816.160    30441.998     6447.117        8.887        3.485      328.696       72.614        0.049      334.866        5.118      855.101
02/07/2014  06:34:00     -416.913      -61.338       -5.047      271.954      227.313      112.464    73958.910    51671.313    12648.216       15.792        6.914      421.401      123.667        0.086      334.873        5.129      855.086
02/07/2014  06:35:00     -507.664     -225.340      -35.611      246.680      183.177      126.747    60851.036    33553.801    16064.800       21.010        5.523      555.429      146.487        0.070      334.882        5.147      855.090
02/07/2014  06:36:00     -305.729     -194.919       13.906      260.636      206.681      126.925    67930.984    42717.183    16110.041       12.919        6.338      362.579      138.471        0.146      334.888        5.155      855.059
02/07/2014  06:37:00     -405.018     -103.532      -10.269      184.055      145.741       98.334    33876.364    21240.501     9669.502       11.981        3.239      418.042      105.536        0.064      334.847        5.087      855.110
02/07/2014  06:38:00     -427.565     -180.418      -18.721      206.658      171.019       95.923    42707.342    29247.468     9201.270       14.842        4.058      464.072      102.125        0.048      334.844        5.083      855.072
02/07/2014  06:39:00     -531.691      -69.614      -34.847      208.757      243.023       91.502    43579.541    59060.361     8372.586       19.987        5.551      536.229       90.736        0.029      334.852        5.095      855.105
02/07/2014  06:40:00     -470.443      -63.681      -16.768      255.343      178.909       99.191    65200.187    32008.300     9838.818       16.633        5.352      474.734      110.669        0.054      334.844        5.083      855.113
02/07/2014  06:41:00     -374.507     -126.324      -22.069      265.761      205.519       93.418    70628.670    42238.101     8726.966       13.913        6.080      395.238      113.509        0.082      334.840        5.075      855.081
02/07/2014  06:42:00     -588.356      -88.775      -32.031      275.515      286.357      115.808    75908.593    82000.506    13411.508       26.317        8.566      595.016      109.279        0.034      334.832        5.060      855.087
02/07/2014  06:43:00     -280.381     -159.177        8.055      204.385      196.147      101.599    41773.024    38473.753    10322.360        9.728        4.528      322.414      104.054        0.104      334.852        5.095      855.027
02/07/2014  06:44:00     -451.026     -165.504       -9.405      292.398      230.492      116.909    85496.388    53126.511    13667.737       19.157        7.615      480.433      135.840        0.080      334.838        5.072      855.079
02/07/2014  06:45:00     -419.213     -111.891      -16.615      261.884      221.582       86.828    68583.246    49098.657     7539.118       15.686        6.261      433.888      109.832        0.064      334.839        5.073      855.030
02/07/2014  06:46:00     -348.407     -128.624        0.107      269.111      186.669      104.356    72420.842    34845.219    10890.094       12.802        5.908      371.392      113.303        0.093      334.845        5.083      855.044
02/07/2014  06:47:00     -419.142     -145.630       -5.536      270.422      203.392      113.117    73128.113    41368.475    12795.443       16.208        6.365      443.721      134.453        0.092      334.811        5.028      854.968
02/07/2014  06:48:00     -331.257     -108.185      -11.069      235.961      170.313       84.481    55677.483    29006.616     7137.078       10.667        4.591      348.476       87.286        0.063      334.805        5.018      854.962
02/07/2014  06:49:00     -497.584      -70.526      -19.122      292.591      170.173       96.443    85609.555    28958.793     9301.334       18.838        6.193      502.557      123.356        0.060      334.782        4.979      854.954
02/07/2014  06:50:00     -488.574     -131.900      -21.586      319.401      159.647       97.995   102016.702    25487.142     9603.094       19.681        6.855      506.065      119.080        0.055      334.775        4.967      854.893
02/07/2014  06:51:00     -551.082     -109.070      -22.679      260.432      193.011       93.965    67824.698    37253.310     8829.357       21.499        5.695      561.772      105.982        0.036      334.760        4.940      854.968
02/07/2014  06:52:00     -359.059        8.123      -23.996      199.533      128.303       67.793    39813.401    16461.741     4595.951        9.521        3.044      359.151       74.800        0.043      334.745        4.916      855.001
02/07/2014  06:53:00     -327.695     -115.064       -9.459      210.418      152.925       92.864    44275.626    23386.139     8623.648        9.849        3.814      347.309      102.355        0.087      334.746        4.920      855.039
02/07/2014  06:54:00     -403.308      -65.126      -25.466      194.613      127.111       87.297    37874.412    16157.331     7620.730       11.459        3.083      408.533       87.915        0.046      334.729        4.890      855.010
02/07/2014  06:55:00     -403.996     -109.838       -8.037      235.136      144.215       95.203    55288.772    20797.915     9063.567       13.023        4.258      418.661      119.419        0.081      334.726        4.885      855.016
02/07/2014  06:56:00     -359.172      -91.787      -17.222      145.404      142.123       69.254    21142.465    20198.952     4796.179        9.192        2.307      370.715       77.325        0.044      334.726        4.886      855.036
02/07/2014  06:57:00     -301.610      -87.940       15.345      225.166      171.988       93.710    50699.738    29579.916     8781.554        9.398        4.453      314.169      100.070        0.101      334.754        4.933      855.032
02/07/2014  06:58:00     -556.419     -101.088      -28.857      227.099      164.076      103.822    51573.876    26921.018    10778.986       20.495        4.464      565.527      115.308        0.042      334.764        4.948      855.083
02/07/2014  06:59:00     -232.397      -93.663       -5.912      179.723      124.925       81.741    32300.305    15606.217     6681.553        5.869        2.729      250.562       88.687        0.125      334.754        4.933      855.125
02/07/2014  07:00:00     -304.605     -169.888      -12.311      181.959       94.788       67.159    33109.213     8984.824     4510.384        8.419        2.330      348.778       71.490        0.042      334.751        4.926      855.111
02/07/2014  07:01:00     -286.940     -136.865      -21.313      127.172      124.506       56.111    16172.593    15501.727     3148.464        6.817        1.741      317.910       46.149        0.021      334.746        4.917      855.106
02/07/2014  07:02:00     -414.752     -107.749      -19.885      196.746      159.991       83.243    38708.897    25597.005     6929.331       12.762        3.562      428.519       83.767        0.038      334.717        4.871      855.182
02/07/2014  07:03:00     -513.993     -250.566      -18.131      211.110      200.818      109.346    44567.483    40327.807    11956.483       21.206        4.843      571.815      105.401        0.034      334.712        4.863      855.271
02/07/2014  07:04:00     -186.146      -70.706        2.805      184.879      181.787       94.207    34180.282    33046.534     8875.017        5.787        3.805      199.122       95.079        0.228      334.741        4.910      855.290
02/07/2014  07:05:00     -446.332     -256.150      -24.572      228.137      185.451       95.481    52046.289    34392.142     9116.580       18.048        4.778      514.612      113.340        0.049      334.720        4.876      855.261
02/07/2014  07:06:00     -440.681     -240.880      -14.181      198.974      142.975       91.966    39590.821    20441.786     8457.678       16.045        3.425      502.218       88.417        0.031      334.705        4.849      855.197
02/07/2014  07:07:00     -295.760     -145.048      -11.093      205.225      207.462       94.668    42117.428    43040.335     8962.046       10.136        4.706      329.413      105.532        0.103      334.730        4.892      855.263
02/07/2014  07:08:00     -343.755      -71.827      -20.598      181.615      144.216       68.863    32984.031    20798.201     4742.075        9.113        2.926      351.178       66.667        0.036      334.739        4.907      855.173
02/07/2014  07:09:00     -223.313      -46.358      -13.879      132.085       99.351       60.112    17446.560     9870.621     3613.479        4.157        1.547      228.074       72.010        0.100      334.778        4.971      855.100
02/07/2014  07:10:00     -207.598     -117.121       -6.274      117.978       93.195       55.227    13918.855     8685.352     3050.067        4.125        1.283      238.358       58.698        0.061      334.848        5.088      855.117
02/07/2014  07:11:00     -220.458     -173.395        1.637      180.681      115.987       69.572    32645.560    13452.877     4840.277        6.480        2.547      280.478       87.787        0.098      334.840        5.075      855.152
02/07/2014  07:12:00     -238.540     -128.662       12.381      201.401      156.773       87.376    40562.415    24577.834     7634.591        7.318        3.639      271.026      112.056        0.171      334.874        5.132      855.219
02/07/2014  07:13:00     -204.812     -207.646       -9.438      156.389       93.185       70.558    24457.384     8683.392     4978.450        6.163        1.906      291.659       61.598        0.045      334.878        5.138      855.207
02/07/2014  07:14:00     -127.119     -169.588       13.029      132.866      176.051       69.335    17653.327    30994.054     4807.283        4.926        2.673      211.942       82.374        0.151      334.866        5.118      855.167
02/07/2014  07:15:00     -228.764      -69.313       14.915      209.382      187.174       90.502    43840.845    35033.939     8190.550        7.220        4.353      239.034      114.846        0.231      334.944        5.249      855.063
02/07/2014  07:16:00     -169.365     -163.593       13.521      135.785      119.782       72.555    18437.528    14347.734     5264.284        4.683        1.902      235.472       55.196        0.055      335.012        5.362      855.032
02/07/2014  07:17:00     -245.976     -201.979       -2.750      129.805      109.665       70.728    16849.432    12026.472     5002.383        6.759        1.694      318.276       63.261        0.040      335.017        5.370      855.042
02/07/2014  07:18:00     -274.353     -183.834       10.215      164.767      139.888       85.228    27148.280    19568.644     7263.739        8.157        2.699      330.249       91.211        0.076      335.017        5.369      855.062
02/07/2014  07:19:00     -213.905      -26.221        8.874      205.813      118.726       70.874    42358.924    14095.963     5023.143        5.399        3.074      215.506       73.722        0.117      334.987        5.322      855.030
02/07/2014  07:20:00     -419.818     -195.283      -31.131      177.047      128.378       88.109    31345.559    16481.010     7763.122       13.546        2.779      463.015       94.631        0.042      334.976        5.302      855.017
02/07/2014  07:21:00     -338.570     -150.201      -13.430      179.494      138.114       83.273    32217.975    19075.588     6934.386        9.779        2.911      370.392       60.668        0.027      334.940        5.240      854.968
02/07/2014  07:22:00     -242.852     -176.967        9.333      226.147      158.411       94.201    51142.312    25093.931     8873.745        8.773        4.255      300.490       95.368        0.101      334.969        5.290      854.955
02/07/2014  07:23:00     -259.446     -103.658       -8.918      172.626      173.950       88.235    29799.857    30258.477     7785.404        7.298        3.392      279.387       94.939        0.115      334.973        5.296      854.928
02/07/2014  07:24:00     -289.132     -182.084        1.912      213.604      107.535       73.867    45626.620    11563.744     5456.261        8.969        3.132      341.690       92.963        0.074      334.970        5.291      854.986
02/07/2014  07:25:00     -269.685     -251.629       -0.487      200.425      162.829       84.464    40170.227    26513.335     7134.101       10.492        3.691      368.845      104.037        0.080      334.962        5.279      854.926
02/07/2014  07:26:00     -230.974     -183.576       -5.620      126.499      120.919       58.301    16001.886    14621.305     3399.019        6.055        1.701      295.041       57.561        0.038      334.954        5.265      855.014
02/07/2014  07:27:00     -179.626     -157.697       17.224      172.100      134.019       66.466    29618.380    17961.035     4417.728        5.471        2.600      239.027       72.209        0.091      334.973        5.296      855.016
02/07/2014  07:28:00     -238.395     -239.162       -4.168      202.232      142.073       80.170    40897.874    20184.601     6427.277        9.077        3.375      337.684       77.810        0.053      334.981        5.310      855.062
02/07/2014  07:29:00       -3.428      -39.106        4.664       81.007      105.872       45.392     6562.076    11208.903     2060.438        1.069        0.992       39.256       57.347        2.134      335.061        5.446      855.056
02/07/2014  07:30:00       20.502       56.052       67.184      103.073       61.728       59.382    10624.063     3810.346     3526.255        1.302        0.898       59.684       54.030        0.820      334.967        5.288      855.006
02/07/2014  07:31:00      -31.754      -16.076       -5.865       48.202       43.681       22.394     2323.395     1908.041      501.502        0.302        0.237       35.592       18.188        0.261      334.967        5.288      855.075
02/07/2014  07:32:00     -192.848      -70.163       -8.504      190.081       93.060       41.768    36130.673     8660.256     1744.587        4.435        2.327      205.215       57.865        0.080      334.979        5.308      855.166
02/07/2014  07:33:00     -357.677     -125.094      -19.911      175.186      124.117       68.344    30690.010    15404.912     4670.875        9.736        2.538      378.921       67.493        0.032      335.060        5.440      855.151
02/07/2014  07:34:00     -200.271      -86.943       14.797      140.176      115.265       74.634    19649.261    13286.039     5570.201        4.319        1.925      218.329       52.980        0.059      335.159        5.605      855.284
02/07/2014  07:35:00     -209.433     -222.166       13.726      226.252      122.034       77.410    51190.183    14892.295     5992.309        8.273        3.604      305.319       90.015        0.087      335.183        5.646      855.346
02/07/2014  07:36:00     -181.551     -258.990       -5.856      130.572      104.009       67.935    17049.014    10817.875     4615.214        6.627        1.624      316.285       67.408        0.045      335.077        5.470      855.267
02/07/2014  07:37:00       27.205     -123.695      -15.286       96.636       69.234       58.895     9338.601     4793.324     3468.642        1.693        0.880      126.651       32.584        0.066      335.139        5.574      855.164
02/07/2014  07:38:00      -60.477     -230.911       -2.133       85.532       85.552       51.532     7315.710     7319.157     2655.507        3.713        0.865      238.699       48.356        0.041      335.157        5.600      855.225
02/07/2014  07:39:00      -45.973      -64.517       23.699       69.133       99.585       36.879     4779.400     9917.232     1360.051        1.144        0.803       79.221       39.472        0.248      335.175        5.633      855.271
02/07/2014  07:40:00      -24.868     -137.801        5.193       69.379       97.795       48.196     4813.434     9563.800     2322.854        1.816        0.835      140.027       37.485        0.072      335.143        5.581      855.344
02/07/2014  07:41:00      -68.367     -119.707      -12.318       57.543       84.650       40.993     3311.214     7165.655     1680.415        1.565        0.608      137.854       34.069        0.061      335.189        5.658      855.262
02/07/2014  07:42:00       26.172       39.331       79.606       80.798      111.793       99.427     6528.284    12497.583     9885.707        1.874        1.446       47.243       90.285        3.652      335.165        5.617      855.075
02/07/2014  07:43:00      -70.476       24.494        3.971       65.498       79.789       45.495     4289.985     6366.341     2069.800        0.915        0.636       74.611       39.051        0.274      335.237        5.738      855.031
02/07/2014  07:44:00      -15.855       18.989       14.485       52.898       52.425       36.766     2798.235     2748.395     1351.714        0.386        0.345       24.738       38.360        2.405      335.168        5.623      855.241
02/07/2014  07:45:00     -159.025     -182.981        2.436      140.396      103.965       47.801    19711.103    10808.649     2284.905        4.579        1.640      242.427       62.625        0.067      335.175        5.633      855.264
02/07/2014  07:46:00      -10.206      -66.128       42.345       76.562       87.174       47.754     5861.685     7599.337     2280.398        1.100        0.787       66.911       47.050        0.494      335.230        5.724      855.132
02/07/2014  07:47:00       95.333      -34.945       66.718       72.634       95.953       57.043     5275.768     9206.924     3253.945        1.625        0.887      101.536       61.353        0.365      335.237        5.735      855.259
02/07/2014  07:48:00      227.109       90.707       61.611      104.504       87.806       78.848    10921.128     7709.903     6216.988        4.422        1.242      244.554       59.300        0.059      335.144        5.581      855.215
02/07/2014  07:49:00      -55.878      -28.090       -1.769       59.222       69.156       42.480     3507.239     4782.513     1804.565        0.700        0.505       62.541       20.558        0.108      335.215        5.699      855.416
02/07/2014  07:50:00       51.928       15.184       10.291       95.224      116.661       81.936     9067.661    13609.711     6713.541        1.621        1.470       54.102       78.895        2.127      335.423        6.046      855.412
02/07/2014  07:51:00       51.496      -28.591       54.974       77.798      148.984       67.625     6052.488    22196.206     4573.197        1.965        1.641       58.901       75.347        1.636      335.480        6.140      855.494
02/07/2014  07:52:00      240.915      -41.075       95.043      183.287      282.295      141.352    33594.241    79690.401    19980.453       10.099        6.663      244.391      150.439        0.379      335.632        6.392      855.265
02/07/2014  07:53:00      -49.611      -39.609       18.980      139.466      103.352       61.293    19450.866    10681.538     3756.842        1.913        1.694       63.484       54.014        0.724      335.572        6.294      855.376
02/07/2014  07:54:00      -77.074      -58.739       -9.840      128.135       81.362       53.713    16418.612     6619.786     2885.040        1.770        1.296       96.905       48.511        0.251      335.760        6.607      855.437
02/07/2014  07:55:00     -402.917      -68.277       -6.459      319.231      243.403      114.727   101908.571    59245.031    13162.370       17.065        8.716      408.661      115.419        0.080      335.694        6.496      855.316
02/07/2014  07:56:00        5.924      -59.313       60.374       76.763      167.450      105.376     5892.526    28039.545    11104.179        2.611        2.252       59.608      118.091        3.925      335.841        6.742      855.469
02/07/2014  07:57:00        0.618      224.071      258.763       90.857      185.300      157.385     8255.064    34335.973    24770.052        9.225        3.368      224.072      158.996        0.503      335.701        6.506      855.177
02/07/2014  07:58:00     -149.951      -70.942       -1.060      129.812       75.979       37.116    16851.234     5772.846     1377.574        2.576        1.200      165.886       32.759        0.039      335.715        6.531      855.442
02/07/2014  07:59:00     -174.713     -139.457       -1.732       89.813       91.378       50.153     8066.356     8349.904     2515.277        3.445        0.947      223.546       42.964        0.037      335.675        6.464      855.514
02/07/2014  08:00:00      -19.759      -72.882       29.570      175.169      179.345       99.183    30684.132    32164.752     9837.245        3.962        3.634       75.513      131.772        3.045      335.708        6.521      855.541
02/07/2014  08:01:00      -26.449     -326.746      -24.694      158.715      177.097       80.308    25190.455    31363.436     6449.305        8.553        3.150      327.815       53.322        0.026      335.777        6.633      855.627
02/07/2014  08:02:00     -104.058     -321.578      -12.138      145.129      122.680       68.223    21062.459    15050.432     4654.379        7.757        2.038      337.995       45.191        0.018      335.823        6.711      855.733
02/07/2014  08:03:00      -40.827     -111.504       16.169       83.000      114.524       34.125     6888.932    13115.656     1164.484        1.776        1.058      118.744       40.781        0.118      335.693        6.494      855.728
02/07/2014  08:04:00       -2.237     -205.893       33.323       88.483      195.066       57.577     7829.296    38050.886     3315.161        4.634        2.460      205.905       87.499        0.181      335.749        6.587      855.723
02/07/2014  08:05:00       58.814     -305.187      -14.669      140.605      177.427      103.482    19769.685    31480.415    10708.423        7.938        3.098      310.803       83.102        0.071      335.710        6.523      855.641
02/07/2014  08:06:00     -240.965     -238.370       31.909      254.107      169.722      107.865    64570.380    28805.515    11634.840       11.044        5.251      338.946      123.402        0.133      335.640        6.405      855.692
02/07/2014  08:07:00     -180.759     -257.374      -38.249      164.461      164.459       79.606    27047.349    27046.913     6337.099        8.039        3.022      314.508       69.346        0.049      335.758        6.602      855.724
02/07/2014  08:08:00      -91.626       10.594       -5.277       70.364      136.390       55.283     4951.053    18602.235     3056.166        1.757        1.330       92.236       31.623        0.118      335.697        6.502      855.745
02/07/2014  08:09:00       35.829       -7.430       27.109       64.430       56.552       50.689     4151.250     3198.167     2569.324        0.599        0.496       36.591       20.301        0.308      335.770        6.626      855.712
02/07/2014  08:10:00       32.165       29.313       62.949       60.673       48.621       36.651     3681.215     2364.022     1343.326        0.662        0.369       43.518       37.485        0.742      335.742        6.578      855.669
02/07/2014  08:11:00     -199.547        7.283      -11.147      125.820       87.627       58.282    15830.685     7678.504     3396.825        3.345        1.345      199.680       59.862        0.090      335.737        6.568      855.648
02/07/2014  08:12:00     -195.749       63.751       -5.308      138.002      121.504       48.273    19044.582    14763.177     2330.315        3.927        1.807      205.869       40.173        0.038      335.619        6.370      855.695
02/07/2014  08:13:00      -13.784     -138.783       10.566       79.683      116.057       41.971     6349.438    13469.156     1761.551        2.057        1.079      139.466       36.407        0.068      335.668        6.453      855.748
02/07/2014  08:14:00        2.257     -194.756        1.003      159.350      219.376       66.413    25392.352    48125.998     4410.632        5.792        3.896      194.769       88.994        0.209      335.610        6.357      855.731
02/07/2014  08:15:00      -13.531      -30.931       17.227       88.894      105.689       64.041     7902.161    11170.253     4101.292        1.230        1.159       33.761       45.352        1.805      335.675        6.466      855.613
02/07/2014  08:16:00      -58.522      -86.660       -7.827      123.700      114.182       67.758    15301.689    13037.570     4591.140        2.196        1.647      104.569       56.834        0.295      335.690        6.490      855.635
02/07/2014  08:17:00     -311.699     -293.930      -15.475      188.417      231.937       87.380    35501.062    53794.557     7635.253       14.034        4.847      428.429       90.000        0.044      335.623        6.377      855.909
02/07/2014  08:18:00     -179.971     -238.050       10.816      153.954      176.406       68.411    23701.726    31119.064     4680.078        7.433        2.975      298.425       54.726        0.034      335.675        6.464      855.721
02/07/2014  08:19:00     -427.632     -122.915        3.135      216.777      218.944      104.978    46992.277    47936.362    11020.418       15.195        5.297      444.947       84.020        0.036      335.698        6.502      855.706
02/07/2014  08:20:00     -211.085     -275.381       -9.144      146.399      172.249       68.331    21432.564    29669.587     4669.148        8.811        2.789      346.975       47.413        0.019      335.750        6.588      855.761
02/07/2014  08:21:00     -188.321     -133.310       11.129      206.404      175.751       70.594    42602.685    30888.318     4983.581        6.590        3.924      230.730       57.920        0.063      335.773        6.628      855.729
02/07/2014  08:22:00     -281.156     -218.774      -19.573      247.134      243.301       75.108    61075.056    59195.276     5641.149       12.658        6.296      356.245      116.162        0.106      335.744        6.580      855.799
02/07/2014  08:23:00     -187.318     -290.683      -17.644      143.187      209.176       61.505    20502.506    43754.717     3782.813        9.396        3.402      345.810       68.280        0.039      335.761        6.606      855.604
02/07/2014  08:24:00     -248.343     -200.617       -2.780      171.483      183.860       93.990    29406.539    33804.596     8834.134        8.698        3.602      319.252      107.267        0.113      335.811        6.692      855.694
02/07/2014  08:25:00     -149.246      -84.936       -3.607      103.446       78.796       54.951    10700.992     6208.743     3019.589        2.471        0.996      171.722       46.133        0.072      335.857        6.769      855.620
02/07/2014  08:26:00     -221.733       16.118       -5.911      137.698      110.242       67.504    18960.793    12153.390     4556.811        4.256        1.784      222.318       64.873        0.085      335.742        6.576      855.607
02/07/2014  08:27:00     -221.939     -113.761        0.076      133.742      105.692       75.180    17886.874    11170.792     5651.972        4.845        1.735      249.396       63.167        0.064      335.706        6.517      855.629
02/07/2014  08:28:00     -455.242     -286.713      -16.456      330.620      228.850      112.418   109309.487    52372.255    12637.720       23.199        8.716      538.006      130.300        0.059      335.615        6.364      855.578
02/07/2014  08:29:00     -276.656     -260.379      -11.063      175.328      176.158       89.177    30739.774    31031.786     7952.608       10.708        3.486      379.916       94.024        0.061      335.604        6.346      855.615
02/07/2014  08:30:00     -374.523     -255.279       -1.557      221.522      191.816      111.113    49071.778    36793.480    12346.178       15.181        4.911      453.249      130.810        0.083      335.528        6.219      855.598
02/07/2014  08:31:00     -429.117     -264.969      -29.524      190.128      170.859       83.070    36148.559    29192.685     6900.681       16.372        3.612      504.331       75.342        0.022      335.534        6.229      855.492
02/07/2014  08:32:00     -330.215     -188.716      -35.662      157.667      156.770       80.804    24858.760    24576.806     6529.355       10.094        2.798      380.336       87.538        0.053      335.565        6.279      855.595
02/07/2014  08:33:00     -326.852     -294.754        4.441      252.127      183.552      107.589    63567.819    33691.497    11575.476       15.126        5.442      440.127      122.688        0.078      335.558        6.268      855.599
02/07/2014  08:34:00     -287.154     -270.557       12.912      211.688      178.749       94.019    44811.858    31951.352     8839.609       12.070        4.280      394.536       90.743        0.053      335.530        6.223      855.655
02/07/2014  08:35:00     -243.083     -323.913        1.360      211.981      159.171       77.928    44935.982    25335.351     6072.724       12.016        3.817      404.980       48.134        0.014      335.536        6.230      855.746
02/07/2014  08:36:00     -160.251      -68.850       14.042      164.938      126.143       73.960    27204.549    15912.089     5470.104        3.959        2.429      174.415       74.863        0.184      335.522        6.210      855.780
02/07/2014  08:37:00     -157.597     -234.924       13.554      225.623      147.481      101.444    50905.716    21750.527    10290.954        8.156        4.147      282.889       93.910        0.110      335.608        6.352      855.847
02/07/2014  08:38:00     -236.915     -294.964       -2.600      187.937      192.127       84.443    35320.214    36912.900     7130.572       11.124        3.968      378.329       89.208        0.056      335.605        6.348      855.903
02/07/2014  08:39:00     -187.932     -190.866        8.825      157.612      126.188       76.820    24841.656    15923.400     5901.269        5.924        2.333      267.859       58.933        0.048      335.612        6.358      855.813
02/07/2014  08:40:00     -207.869     -211.057       12.598      155.797      207.359       76.624    24272.851    42997.841     5871.281        8.052        3.657      296.234       73.277        0.061      335.611        6.357      855.832
02/07/2014  08:41:00     -118.047     -224.464       13.962      149.190      107.429       71.219    22257.555    11540.892     5072.114        5.169        1.944      253.613       53.149        0.044      335.771        6.624      855.905
02/07/2014  08:42:00       46.711       -0.461       45.156       77.483       90.350       49.427     6003.644     8163.097     2443.022        1.041        0.830       46.713       49.058        1.103      335.834        6.732      855.907
02/07/2014  08:43:00      -91.754      -67.588        2.992      176.456      116.463       70.920    31136.624    13563.587     5029.648        3.135        2.486      113.961       73.255        0.413      335.720        6.541      855.834
02/07/2014  08:44:00     -176.931     -166.081      -22.522      107.237      106.538       51.775    11499.784    11350.297     2680.661        4.246        1.277      242.668       44.956        0.034      335.642        6.410      855.830
02/07/2014  08:45:00     -265.155     -198.975      -31.930      142.853       89.620       60.062    20406.952     8031.728     3607.498        7.148        1.602      331.509       60.565        0.033      335.610        6.356      855.867
02/07/2014  08:46:00     -311.758     -284.317        5.066      174.541      184.325       96.525    30464.390    33975.720     9317.088       12.589        3.688      421.935       77.663        0.034      335.560        6.272      855.824
02/07/2014  08:47:00      -66.306     -142.469       16.244      162.408      152.354       81.565    26376.378    23211.840     6652.905        4.059        2.812      157.143       79.753        0.258      335.651        6.424      855.777
02/07/2014  08:48:00     -194.525     -229.922       -0.587      193.502      165.360       78.696    37443.108    27343.923     6193.095        8.083        3.549      301.171       75.226        0.062      335.634        6.394      855.694
02/07/2014  08:49:00      -56.156     -152.908       18.124      197.802      192.402       86.863    39125.620    37018.424     7545.142        5.526        4.184      162.894       59.429        0.133      335.744        6.581      855.682
02/07/2014  08:50:00     -283.375     -153.734       20.048      203.648      165.815       91.263    41472.496    27494.779     8328.920        9.080        3.865      322.390       97.232        0.091      335.829        6.719      855.630
02/07/2014  08:51:00     -251.606     -244.980        5.173      178.858      156.127       79.438    31990.300    24375.556     6310.474        9.300        3.134      351.170       88.392        0.063      335.781        6.641      855.721
02/07/2014  08:52:00     -203.114      -42.209       10.267      172.081      124.891       67.903    29612.019    15597.877     4610.793        4.647        2.491      207.453       59.393        0.082      335.736        6.566      855.664
02/07/2014  08:53:00      -42.271       -3.559       26.937      126.037      114.707       53.520    15885.264    13157.773     2864.353        1.721        1.595       42.421       54.556        1.654      335.741        6.576      855.526
02/07/2014  08:54:00        3.155     -121.261       -2.281       62.665       72.642       59.957     3926.951     5276.838     3594.894        1.376        0.640      121.303       33.786        0.078      335.887        6.818      855.543
02/07/2014  08:55:00        8.412      -42.216       60.205       60.018      103.888       78.448     3602.189    10792.667     6154.073        1.301        1.027       43.046       83.592        3.771      335.863        6.779      855.601
02/07/2014  08:56:00       26.695      -80.808        9.307       52.675       65.052       42.456     2774.685     4231.727     1802.491        0.807        0.440       85.104       39.784        0.219      335.945        6.916      855.581
02/07/2014  08:57:00       35.906     -135.425       20.606       85.263      110.188       68.648     7269.715    12141.383     4712.580        2.208        1.206      140.104       68.044        0.236      335.879        6.805      855.573
02/07/2014  08:58:00      -13.669       14.365        3.975       41.250       50.769       33.727     1701.561     2577.536     1137.485        0.291        0.271       19.829       24.970        1.586      335.848        6.755      855.593
02/07/2014  08:59:00      -40.659       -4.675       -3.451       68.066       63.318       27.612     4633.029     4009.203      762.413        0.554        0.470       40.927       27.718        0.459      335.749        6.591      855.533
02/07/2014  09:00:00      -80.302     -107.431       -6.804       84.490       76.707       34.258     7138.550     5883.941     1173.632        1.611        0.710      134.126       35.870        0.072      335.841        6.742      855.560
02/07/2014  09:01:00      -52.789       49.441       14.012       94.539       62.282       38.088     8937.603     3879.047     1450.681        0.985        0.713       72.327       42.465        0.345      335.935        6.899      855.481
02/07/2014  09:02:00       97.280       62.274       13.741       62.755       38.872       37.869     3938.230     1511.025     1434.076        1.021        0.344      115.506       25.314        0.048      335.908        6.853      855.432
02/07/2014  09:03:00       59.843       48.927        2.208       39.713       33.136       26.753     1577.089     1097.989      715.734        0.468        0.170       77.298       13.566        0.031      335.835        6.735      855.405
02/07/2014  09:04:00      -19.681      -26.564       -1.088       49.624       27.808       12.137     2462.561      773.275      147.308        0.224        0.169       33.060       14.913        0.203      335.800        6.676      855.493
02/07/2014  09:05:00       18.344       29.459       15.736       25.172       17.052       12.955      633.621      290.757      167.841        0.127        0.055       34.704        8.505        0.060      335.866        6.786      855.443
02/07/2014  09:06:00      -72.168      -39.770       -3.676       78.808       38.196       23.803     6210.710     1458.912      566.563        0.752        0.412       82.400       32.633        0.157      335.836        6.735      855.550
02/07/2014  09:07:00        0.407       -2.376       30.708       24.275       45.729       36.840      589.254     2091.113     1357.172        0.249        0.202        2.411       24.688      104.871      336.031        7.059      855.508
02/07/2014  09:08:00      -60.844      -22.905       40.994       58.607       66.858       55.733     3434.829     4469.972     3106.197        0.846        0.551       65.012       57.211        0.774      335.997        7.003      855.432
02/07/2014  09:09:00     -129.371      -44.967       10.455       90.744       59.957       45.228     8234.520     3594.841     2045.579        1.637        0.694      136.963       43.412        0.100      336.083        7.145      855.586
02/07/2014  09:10:00      -66.180     -182.285       -1.200      110.259      106.395       45.027    12156.958    11319.899     2027.400        3.155        1.275      193.927       57.248        0.087      336.051        7.092      855.742
02/07/2014  09:11:00      -84.522      -68.905       -8.547       66.217       83.085       29.100     4384.724     6903.098      846.828        1.205        0.607      109.049       22.797        0.044      336.098        7.170      855.779
02/07/2014  09:12:00      -43.222       -9.308       33.269      110.841       79.898       51.632    12285.653     6383.668     2665.823        1.219        1.067       44.213       56.621        1.640      336.182        7.312      855.778
02/07/2014  09:13:00       29.588      141.840        0.898       48.083       47.653       66.108     2311.952     2270.783     4370.280        1.497        0.448      144.893       46.520        0.103      336.200        7.343      855.647
02/07/2014  09:14:00      -38.849      -34.009        5.492       60.506       80.186       59.315     3661.021     6429.773     3518.322        0.815        0.680       51.632       18.990        0.135      336.267        7.454      855.633
02/07/2014  09:15:00     -363.782      -64.012      -18.642      196.352      155.698       71.468    38554.212    24241.947     5107.741       10.233        3.395      369.371       48.591        0.017      336.162        7.275      855.820
02/07/2014  09:16:00     -501.089     -157.633      -18.107      197.576      159.445       88.959    39036.343    25422.668     7913.650       17.431        3.619      525.298       94.726        0.033      336.108        7.186      855.767
02/07/2014  09:17:00      -97.789     -276.713       10.967      220.147      228.236      111.582    48464.787    52091.749    12450.599        9.961        5.650      293.484       79.293        0.073      336.241        7.408      855.685
02/07/2014  09:18:00     -337.145     -260.815        1.511      308.718      224.064      115.568    95306.930    50204.467    13356.003       17.025        7.943      426.252      106.036        0.062      336.200        7.339      855.389
02/07/2014  09:19:00     -269.931     -260.668      -40.940      189.225      151.726       90.085    35806.079    23020.727     8115.230       10.470        3.347      375.247       94.651        0.064      336.237        7.400      855.433
02/07/2014  09:20:00     -225.797     -139.193      -11.644      200.279      125.412       70.034    40111.633    15728.220     4904.828        6.561        3.037      265.253       70.521        0.071      336.152        7.259      855.429
02/07/2014  09:21:00     -450.433     -233.758       -8.567      290.202      190.792       82.893    84217.341    36401.747     6871.184       19.253        6.375      507.476      106.598        0.044      336.131        7.224      855.489
02/07/2014  09:22:00     -271.850     -301.923       18.758      250.762      230.799       84.281    62881.768    53267.956     7103.265       14.431        6.163      406.276       90.107        0.049      336.150        7.254      855.537
02/07/2014  09:23:00     -288.580     -236.481      -26.910      137.214      115.805       65.729    18827.716    13410.703     4320.338        8.824        1.828      373.098       58.722        0.025      336.116        7.198      855.540
02/07/2014  09:24:00     -237.227     -211.606      -12.401      155.310       78.193       58.623    24121.281     6114.101     3436.667        6.743        1.684      317.890       73.519        0.053      336.136        7.233      855.665
02/07/2014  09:25:00      -36.414      -59.537       75.937       81.707      153.409       85.565     6676.020    23534.358     7321.402        2.408        1.877       69.790      102.135        2.142      336.202        7.344      855.560
02/07/2014  09:26:00     -218.656      -67.951       15.086      146.431      105.240       64.548    21441.896    11075.543     4166.451        4.466        1.834      228.971       65.752        0.082      336.142        7.243      855.657
02/07/2014  09:27:00     -319.093     -189.721      -19.892      186.722      138.067       77.578    34864.956    19062.385     6018.352        9.907        2.997      371.233       80.203        0.047      336.176        7.298      855.656
02/07/2014  09:28:00     -480.611     -355.580      -18.688      219.649      220.592       96.475    48245.559    48660.975     9307.515       23.198        5.311      597.849      114.610        0.037      336.034        7.062      855.620
02/07/2014  09:29:00     -397.499     -307.790       -3.216      254.046      157.882       89.230    64539.566    24926.591     7961.913       17.507        4.871      502.732      112.874        0.050      336.047        7.083      855.596
02/07/2014  09:30:00     -223.367      -64.223       11.978      231.139      160.030       89.902    53425.056    25609.664     8082.454        7.062        4.356      232.417      105.878        0.208      336.051        7.091      855.650
02/07/2014  09:31:00     -235.156     -300.419      -14.296      147.261      116.501       74.236    21685.739    13572.431     5510.981        9.325        2.038      381.510       73.045        0.037      336.004        7.012      855.701
02/07/2014  09:32:00     -307.031     -238.921      -15.485      179.579      145.535       71.775    32248.669    21180.358     5151.670       10.508        2.929      389.039       68.878        0.031      335.973        6.959      855.744
02/07/2014  09:33:00     -271.607     -221.225       -0.647      202.243      163.414       76.346    40902.237    26704.202     5828.698        9.806        3.672      350.302       77.555        0.049      335.957        6.933      855.776
02/07/2014  09:34:00     -526.417     -274.539      -14.374      268.168      160.554      102.972    71914.278    25777.469    10603.238       23.048        5.415      593.706      118.050        0.040      335.859        6.771      855.784
02/07/2014  09:35:00     -240.000     -204.707      -23.450      180.643      128.204       83.822    32632.015    16436.343     7026.199        7.807        2.805      315.445       50.545        0.026      335.936        6.899      855.792
02/07/2014  09:36:00     -170.414     -112.091       11.920      162.380      105.527       68.380    26367.232    11135.995     4675.813        4.196        2.109      203.974       87.129        0.182      335.961        6.940      855.810
02/07/2014  09:37:00     -244.387     -123.973       -4.798      137.777      130.457       65.116    18982.556    17019.018     4240.137        5.767        2.012      274.033       67.270        0.060      335.951        6.923      855.844
02/07/2014  09:38:00     -157.256     -270.311       12.692      134.616      187.249       67.748    18121.370    35062.207     4589.834        7.786        2.889      312.726       51.884        0.028      335.992        6.991      855.802
02/07/2014  09:39:00     -174.222     -357.196       -0.697      145.283      154.668       63.092    21107.159    23922.309     3980.611       10.347        2.451      397.419       50.432        0.016      336.045        7.080      855.768
02/07/2014  09:40:00     -207.660     -169.066        7.177      145.406      126.380       62.184    21142.968    15971.872     3866.837        5.636        2.049      267.780       68.259        0.065      336.072        7.125      855.813
02/07/2014  09:41:00     -256.451     -176.705      -22.261      150.843      115.988       70.861    22753.516    13453.113     5021.307        6.935        2.061      311.435       70.754        0.052      336.059        7.103      855.879
02/07/2014  09:42:00     -160.850     -232.277        8.051      178.419      116.660       71.493    31833.403    13609.555     5111.268        6.521        2.528      282.534       56.793        0.040      336.064        7.113      855.817
02/07/2014  09:43:00      -60.761     -189.649        8.206       96.269      121.075       49.049     9267.667    14659.241     2405.839        3.302        1.317      199.144       59.305        0.089      336.100        7.173      855.795
02/07/2014  09:44:00     -108.045     -104.147       10.983       85.560       96.048       47.284     7320.499     9225.205     2235.821        2.071        0.939      150.068       41.439        0.076      336.130        7.223      855.782
02/07/2014  09:45:00      -30.346     -173.953       17.251       82.125      110.321       46.581     6744.513    12170.817     2169.795        2.628        1.054      176.580       33.785        0.037      336.092        7.161      855.794
02/07/2014  09:46:00      -98.005      -75.725        6.807      112.458       86.256       49.881    12646.855     7440.167     2488.160        1.898        1.129      123.852       51.339        0.172      336.200        7.341      855.831
02/07/2014  09:47:00      -47.499      -64.509        5.160       85.732       77.166       46.236     7350.028     5954.595     2137.766        1.094        0.772       80.110       38.197        0.227      336.319        7.541      855.933
02/07/2014  09:48:00      -51.024     -201.242      -19.220      123.451      118.267       56.870    15240.164    13987.011     3234.179        3.796        1.623      207.610       50.838        0.060      336.406        7.683      856.002
02/07/2014  09:49:00      -70.610     -110.792        4.787      108.997       65.733       46.763    11880.327     4320.844     2186.769        1.783        0.919      131.380       45.674        0.121      336.324        7.548      856.151
02/07/2014  09:50:00      -70.783      -72.644       19.771      131.360       75.382       57.564    17255.327     5682.483     3313.605        1.846        1.313      101.427       62.339        0.378      336.342        7.577      856.192
02/07/2014  09:51:00      -44.904     -236.914       -1.579      198.284      158.283       74.727    39316.357    25053.498     5584.167        6.404        3.498      241.132       47.845        0.039      336.311        7.523      856.185
02/07/2014  09:52:00       82.050     -135.825       14.247      101.302      117.058       74.214    10262.165    13702.564     5507.761        2.742        1.474      158.685       71.293        0.202      336.383        7.646      856.134
02/07/2014  09:53:00       49.035      -11.342       25.586       63.501       86.315       62.872     4032.343     7450.274     3952.885        0.931        0.772       50.330       52.862        1.103      336.286        7.484      856.001
02/07/2014  09:54:00       60.314     -115.935       34.487       75.098      110.897       60.183     5639.706    12298.183     3621.954        1.991        1.078      130.685       69.448        0.282      336.370        7.623      856.025
02/07/2014  09:55:00      -49.884       -1.542       10.504       75.075       68.734       51.278     5636.247     4724.415     2629.404        0.779        0.650       49.908       39.247        0.618      336.379        7.641      856.138
02/07/2014  09:56:00      -39.510      -17.935       14.785       59.395       36.038       21.466     3527.786     1298.716      460.808        0.369        0.264       43.390       24.447        0.317      336.365        7.617      856.157
02/07/2014  09:57:00     -172.950       -6.117      -16.860       75.333       42.275       26.899     5675.122     1787.201      723.543        1.921        0.409      173.059       33.261        0.037      336.258        7.437      856.167
02/07/2014  09:58:00     -156.689       73.304      -19.181       45.486       52.954       28.798     2068.950     2804.171      829.343        1.800        0.285      172.988       21.448        0.015      336.215        7.366      856.203
02/07/2014  09:59:00     -256.368     -138.107       -5.792       99.750       99.526       51.982     9950.024     9905.403     2702.154        5.369        1.128      291.201       49.086        0.028      336.153        7.261      856.220
02/07/2014  10:00:00     -161.170     -177.638       -3.605      109.125      151.880       61.623    11908.230    23067.428     3797.453        4.815        1.939      239.856       57.140        0.057      336.081        7.141      856.149
02/07/2014  10:01:00     -258.458     -121.839        7.769      211.435      159.701       71.357    44704.960    25504.368     5091.885        7.849        3.765      285.737       77.870        0.074      336.176        7.300      856.132
02/07/2014  10:02:00     -222.723     -227.362       -7.376      113.203      104.550       55.384    12814.914    10930.751     3067.443        6.408        1.341      318.275       46.139        0.021      336.184        7.311      856.150
02/07/2014  10:03:00     -375.238     -100.972       -9.893      215.587      156.133       89.108    46477.930    24377.612     7940.168       11.493        3.940      388.585       98.196        0.064      336.096        7.166      856.079
02/07/2014  10:04:00      -95.185      -82.262       12.501       90.067       84.746       45.423     8112.091     7181.806     2063.278        1.667        0.868      125.807       33.559        0.071      336.210        7.359      856.137
02/07/2014  10:05:00     -178.576      -80.773       11.528      160.689      148.420       71.408    25821.035    22028.360     5099.148        4.574        2.647      195.994       85.834        0.192      336.173        7.294      856.145
02/07/2014  10:06:00     -279.753     -130.507       18.743      279.074      134.778       76.267    77882.196    18165.127     5816.627        9.874        5.093      308.696       83.968        0.074      336.076        7.133      856.131
02/07/2014  10:07:00     -398.441     -316.095        0.233      228.707      224.291      123.032    52306.690    50306.394    15136.780       18.819        5.887      508.597      136.783        0.072      335.988        6.985      856.083
02/07/2014  10:08:00      -83.025     -218.726       14.930      105.304      134.604       53.887    11088.864    18118.217     2903.810        4.353        1.606      233.954       31.822        0.019      336.015        7.031      855.979
02/07/2014  10:09:00     -217.248     -124.936       -3.482      194.079      116.593       67.881    37666.664    13593.926     4607.842        5.933        2.793      250.611       83.974        0.112      336.056        7.099      855.961
02/07/2014  10:10:00     -163.735     -150.243       -3.015      131.088       99.719       44.591    17183.968     9943.976     1988.358        3.925        1.456      222.221       44.204        0.040      336.119        7.205      855.995
02/07/2014  10:11:00     -446.676     -258.721      -21.103      179.341      149.188       90.821    32163.300    22256.940     8248.432       16.477        3.133      516.193       89.317        0.030      336.028        7.053      856.010
02/07/2014  10:12:00     -180.225     -104.212       12.600      160.757       89.649       59.882    25842.709     8036.998     3585.912        4.048        1.873      208.185       67.014        0.104      336.141        7.241      856.032
02/07/2014  10:13:00     -197.553     -214.661        5.633      148.988      152.739       70.272    22197.377    23329.187     4938.186        6.779        2.523      291.730       74.060        0.064      336.152        7.260      856.039
02/07/2014  10:14:00     -128.538     -184.479       -3.952      137.114      122.287       85.811    18800.178    14954.001     7363.579        4.584        2.056      224.843       56.036        0.062      336.281        7.475      856.014
02/07/2014  10:15:00     -174.658     -420.705       -4.568      210.066      193.257      112.250    44127.619    37348.147    12600.007       15.078        4.704      455.520       63.264        0.019      336.255        7.429      856.071
02/07/2014  10:16:00       28.116     -376.191       -0.497      128.990      223.518      109.103    16638.339    49960.380    11903.400       11.039        3.925      377.240      100.330        0.071      336.226        7.381      856.022
02/07/2014  10:17:00     -230.978     -295.642      -28.240      190.655      294.760       69.612    36349.259    86883.722     4845.884       13.479        6.404      375.174       84.443        0.051      336.087        7.150      855.983
02/07/2014  10:18:00      -79.733      -34.320      -12.048       52.244       66.507       34.473     2729.454     4423.135     1188.374        0.801        0.417       86.806       13.070        0.023      336.170        7.292      855.992
02/07/2014  10:19:00      -63.857       12.404        0.363       67.488       47.154       28.488     4554.671     2223.472      811.550        0.591        0.379       65.051       26.500        0.166      336.299        7.507      855.979
02/07/2014  10:20:00       54.271       21.247       47.794       67.986       73.641       60.349     4622.071     5422.949     3642.058        0.968        0.684       58.282       47.843        0.674      336.308        7.522      855.978
02/07/2014  10:21:00      -83.654      -58.234        8.692      111.404       79.653       39.246    12410.866     6344.603     1540.251        1.538        1.015      101.927       41.898        0.169      336.244        7.415      856.112
02/07/2014  10:22:00      -59.290     -230.893        2.671       87.912      158.717       48.459     7728.476    25191.016     2348.313        4.605        1.763      238.384       26.181        0.012      336.181        7.307      856.127
02/07/2014  10:23:00     -130.457     -156.659      -23.965      117.439      111.227       51.332    13791.933    12371.402     2634.994        3.546        1.440      203.865       43.495        0.046      336.340        7.574      856.080
02/07/2014  10:24:00     -213.564     -142.692       -4.085      156.946      149.035       72.333    24632.158    22211.510     5232.087        5.902        2.604      256.848       71.736        0.078      336.097        7.168      856.090
02/07/2014  10:25:00     -179.833     -237.454      -14.611       94.947      118.190       49.265     9014.969    13968.953     2427.042        5.717        1.271      297.866       38.228        0.016      336.165        7.279      856.158
02/07/2014  10:26:00     -184.704     -152.938        3.009      115.792       99.558       54.944    13407.810     9911.754     3018.842        4.192        1.317      239.803       56.460        0.055      336.222        7.376      856.173
02/07/2014  10:27:00      -75.034      -35.106       22.012       74.529       73.732       42.771     5554.577     5436.421     1829.385        1.008        0.641       82.840       43.158        0.271      336.305        7.518      856.127
02/07/2014  10:28:00      -50.005      -62.085       -3.670       46.875       63.099       42.666     2197.244     3981.491     1820.416        0.718        0.400       79.718       20.866        0.069      336.407        7.688      856.191
02/07/2014  10:29:00     -124.937     -225.088      -11.413       70.311      102.806       44.156     4943.569    10568.996     1949.738        4.193        0.873      257.437       45.027        0.031      336.256        7.432      856.256
02/07/2014  10:30:00     -145.214     -183.129       -7.861      136.507       85.222       52.391    18634.189     7262.869     2744.802        4.166        1.432      233.716       41.590        0.032      336.299        7.504      856.324
02/07/2014  10:31:00     -300.853     -171.110       -0.362      148.912      155.115       69.792    22174.784    24060.512     4870.917        8.544        2.555      346.108       73.969        0.046      336.066        7.116      856.408
02/07/2014  10:32:00     -125.044      -25.301       15.318      130.646       96.375       56.936    17068.418     9288.133     3241.684        2.305        1.480      127.578       49.029        0.148      336.199        7.339      856.350
02/07/2014  10:33:00      -47.186      -97.142       27.845       76.603      165.472       72.015     5868.060    27380.845     5186.181        2.543        1.922      107.996       85.683        0.629      336.261        7.443      856.313
02/07/2014  10:34:00     -204.426     -118.018      -17.228      108.813       88.785       44.131    11840.268     7882.806     1947.507        3.884        1.084      236.047       38.467        0.027      336.115        7.197      856.259
02/07/2014  10:35:00     -135.444     -144.931        5.394      151.671      107.125       55.524    23003.997    11475.784     3082.905        3.846        1.878      198.368       72.276        0.133      336.099        7.170      856.315
02/07/2014  10:36:00       22.564     -182.562       13.748      122.107       81.972       65.077    14910.161     6719.403     4234.986        2.994        1.293      183.951       57.977        0.099      336.200        7.340      856.253
02/07/2014  10:37:00      -88.868     -203.524        5.948      166.803      138.132       51.239    27823.360    19080.364     2625.384        4.943        2.476      222.080       70.625        0.101      336.152        7.259      856.231
02/07/2014  10:38:00     -331.315     -195.025       -0.810      198.352      161.935       97.494    39343.344    26223.070     9505.146       11.143        3.754      384.453      102.072        0.070      336.049        7.086      856.149
02/07/2014  10:39:00     -379.550     -272.733       -9.577      180.198      123.017       82.789    32471.426    15133.094     6854.023       13.649        2.723      467.377       87.820        0.035      335.976        6.965      856.099
02/07/2014  10:40:00     -186.503      -84.083       -1.213      125.237      113.048       66.998    15684.197    12779.887     4488.710        3.740        1.648      204.581       49.548        0.059      336.067        7.116      856.087
02/07/2014  10:41:00     -223.858     -145.168       14.365      206.430       99.651       73.056    42613.441     9930.307     5337.159        6.463        2.894      266.807       94.137        0.124      336.151        7.258      856.128
02/07/2014  10:42:00      -67.832     -166.927        0.597       78.853      106.890       55.256     6217.762    11425.379     3053.246        2.658        1.035      180.183       54.543        0.092      336.332        7.562      856.151
02/07/2014  10:43:00     -178.693     -314.514       -8.585      141.180      177.571       72.855    19931.865    31531.573     5307.898        9.384        2.839      361.732       69.294        0.037      336.276        7.466      856.220
02/07/2014  10:44:00     -174.861     -177.470       -9.008      125.892      124.701       60.608    15848.781    15550.445     3673.274        4.861        1.754      249.142       62.415        0.063      336.287        7.485      856.204
02/07/2014  10:45:00     -196.940      -96.879        8.634      152.851      127.627       66.458    23363.356    16288.548     4416.628        4.615        2.203      219.478       75.642        0.119      336.297        7.502      856.229
02/07/2014  10:46:00      -73.176     -117.839        0.337      133.164      126.297       58.380    17732.732    15950.852     3408.280        2.816        1.855      138.711       43.538        0.099      336.173        7.293      856.173
02/07/2014  10:47:00     -209.969     -102.699      -10.411       98.177       83.058       48.815     9638.636     6898.684     2382.888        3.683        0.946      233.739       32.463        0.019      336.219        7.373      856.108
02/07/2014  10:48:00      -44.465     -142.393      -38.449      155.981      112.283       66.830    24330.094    12607.407     4466.198        3.256        2.070      149.174       64.309        0.186      336.469        7.789      856.055
02/07/2014  10:49:00     -225.455     -215.516        5.837      162.917      186.315       76.016    26541.800    34713.175     5778.357        8.216        3.352      311.893       63.838        0.042      336.424        7.713      856.073
02/07/2014  10:50:00     -206.316     -232.610       -1.622      137.610      157.360       72.297    18936.556    24762.076     5226.790        7.279        2.446      310.924       74.072        0.057      336.415        7.697      856.114
02/07/2014  10:51:00     -255.226     -142.509       -0.799      180.877      135.341       78.288    32716.409    18317.254     6128.974        7.130        2.858      292.316       87.385        0.089      336.379        7.637      856.113
02/07/2014  10:52:00     -244.059     -253.983      -18.090      186.173      157.682       76.243    34660.223    24863.744     5813.009        9.486        3.267      352.239       52.616        0.022      336.311        7.523      856.033
02/07/2014  10:53:00      -84.638     -159.194       -8.639      102.681       91.891       57.726    10543.382     8443.986     3332.262        2.745        1.116      180.295       50.495        0.078      336.442        7.744      856.090
02/07/2014  10:54:00     -241.363     -145.203        5.094      185.397      148.248       84.916    34371.893    21977.412     7210.682        7.145        3.178      281.674       96.200        0.117      336.438        7.737      856.127
02/07/2014  10:55:00     -316.681     -331.307      -10.501      222.887      157.500       98.728    49678.714    24806.375     9747.261       14.718        4.212      458.313       90.338        0.039      336.327        7.549      856.079
02/07/2014  10:56:00     -114.447     -246.212       14.319      159.177      192.218       73.885    25337.327    36947.906     5458.972        7.082        3.387      271.511       65.587        0.058      336.437        7.734      856.083
02/07/2014  10:57:00     -112.446      -67.726       -7.073      100.594       80.828       58.479    10119.174     6533.194     3419.798        1.867        1.004      131.266       49.226        0.141      336.621        8.044      855.999
02/07/2014  10:58:00     -161.381     -161.190       12.489      180.848      161.675       74.680    32705.920    26138.926     5577.089        5.829        3.221      228.092       63.080        0.076      336.740        8.243      856.014
02/07/2014  10:59:00     -147.939     -357.738      -23.199      220.957      231.347       94.340    48821.901    53521.369     8899.965       13.080        5.562      387.121       18.748        0.002      336.618        8.037      856.054
02/07/2014  11:00:00     -325.959     -314.875      -23.124      217.670      203.362       67.204    47380.259    41356.203     4516.410       14.958        4.663      453.206       51.968        0.013      336.470        7.789      856.069
02/07/2014  11:01:00     -247.725     -289.789      -14.762      121.135      150.383       54.456    14673.616    22615.143     2965.510        9.290        2.013      381.241       54.019        0.020      336.460        7.771      856.023
02/07/2014  11:02:00     -212.602     -167.064       -1.503      141.850      107.139       73.018    20121.424    11478.750     5331.568        5.502        1.847      270.389       69.436        0.066      336.585        7.984      856.003
02/07/2014  11:03:00     -408.145     -241.121      -14.235      206.538      147.243       84.680    42657.949    21680.595     7170.730       14.820        3.575      474.048       89.450        0.036      336.515        7.866      855.990
02/07/2014  11:04:00     -179.318     -332.402      -12.384      155.526      183.574       72.956    24188.307    33699.406     5322.649       10.299        3.161      377.686       61.107        0.026      336.603        8.013      856.021
02/07/2014  11:05:00     -375.900     -164.428      -11.853      220.555      196.444       87.170    48644.409    38590.286     7598.687       13.164        4.742      410.290       79.176        0.037      336.617        8.038      855.970
02/07/2014  11:06:00     -226.789     -197.106        6.001      154.385      198.218       79.290    23834.653    39290.449     6286.883        7.985        3.471      300.473       77.657        0.067      336.752        8.262      856.059
02/07/2014  11:07:00     -114.046     -231.861       13.031      134.487      151.041       68.550    18086.766    22813.380     4699.146        5.626        2.280      258.391       59.003        0.052      336.856        8.436      856.116
02/07/2014  11:08:00     -289.159     -165.182       -9.317      178.142      179.788       68.594    31734.623    32323.786     4705.202        8.986        3.438      333.013       90.011        0.073      336.899        8.508      856.114
02/07/2014  11:09:00     -245.846     -130.979       17.563      172.607      141.143       74.293    29793.322    19921.479     5519.423        6.656        2.762      278.560       83.797        0.090      336.934        8.565      856.092
02/07/2014  11:10:00     -334.820     -173.272       12.934      231.858      165.286       87.357    53758.186    27319.438     7631.173       11.549        4.435      376.998      109.047        0.084      336.882        8.479      856.204
02/07/2014  11:11:00     -341.197     -199.501       -9.694      206.059      129.986       85.625    42460.206    16896.453     7331.641       11.149        3.334      395.242       89.852        0.052      336.751        8.260      856.242
02/07/2014  11:12:00     -333.199     -230.251       -4.786      227.127      153.238       74.450    51586.570    23481.838     5542.875       12.232        4.031      405.015       71.204        0.031      336.575        7.966      856.207
02/07/2014  11:13:00     -240.834     -121.737      -10.711      194.286      101.115       48.607    37747.061    10224.189     2362.677        6.163        2.517      269.854       46.389        0.030      336.471        7.792      856.099
02/07/2014  11:14:00     -376.660     -235.090       -3.136      175.818      150.204       83.218    30911.911    22561.356     6925.201       12.876        3.020      444.005       86.211        0.038      336.518        7.871      856.000
02/07/2014  11:15:00     -162.706     -169.559      -18.677      107.593       64.243       49.484    11576.346     4127.125     2448.637        3.686        0.908      234.997       26.351        0.013      336.701        8.177      855.955
02/07/2014  11:16:00     -175.492     -135.719       11.201      144.809      126.195       77.929    20969.609    15925.241     6072.851        4.615        2.148      221.850       76.259        0.118      336.844        8.414      856.041
02/07/2014  11:17:00     -130.400     -191.683       11.502      183.485      144.363       86.408    33666.745    20840.777     7466.367        5.792        3.099      231.833      108.404        0.219      336.745        8.250      856.060
02/07/2014  11:18:00     -321.957     -258.355      -24.287      156.338      142.348       79.394    24441.547    20262.938     6303.449       11.099        2.550      412.799       78.007        0.036      336.641        8.075      855.966
02/07/2014  11:19:00     -215.688     -116.726       13.699      126.886      137.354       69.190    16099.932    18866.129     4787.270        5.004        1.988      245.247       68.373        0.078      336.746        8.251      855.920
02/07/2014  11:20:00     -124.352      -44.294       30.449      112.997      118.029       60.467    12768.389    13930.944     3656.258        2.435        1.518      132.005       57.036        0.187      336.810        8.361      855.922
02/07/2014  11:21:00      -59.304     -221.384        1.711      116.131      107.771       47.704    13486.397    11614.549     2275.708        3.995        1.369      229.190       43.845        0.037      336.825        8.383      855.917
02/07/2014  11:22:00     -153.967     -230.490       19.324      148.394      146.161       65.890    22020.673    21362.910     4341.529        6.246        2.386      277.185       77.026        0.077      336.952        8.595      855.941
02/07/2014  11:23:00      -97.614     -348.335       12.595      171.687      175.762       86.517    29476.434    30892.447     7485.186        9.943        3.393      361.754       71.978        0.040      336.722        8.212      855.915
02/07/2014  11:24:00      -58.615     -345.050       13.334      110.059      212.386       79.366    12112.926    45107.649     6298.942        9.309        3.176      349.994       45.649        0.017      336.809        8.358      855.814
02/07/2014  11:25:00     -140.284     -169.722       -1.940      231.997      114.847       68.438    53822.757    13189.722     4683.696        6.008        3.585      220.194       65.115        0.087      337.087        8.822      855.815
02/07/2014  11:26:00     -105.315     -206.332        5.883      122.571      191.566       65.067    15023.665    36697.703     4233.656        5.482        2.798      231.655       66.942        0.084      337.011        8.696      855.834
02/07/2014  11:27:00     -168.375     -176.885        1.340      172.139      143.432       72.860    29631.757    20572.639     5308.635        5.757        2.776      244.210       86.933        0.127      336.948        8.592      855.802
02/07/2014  11:28:00      -54.998     -110.562       13.112       78.704      116.757       55.522     6194.324    13632.253     3082.650        1.916        1.145      123.486       61.381        0.247      337.337        9.242      855.764
02/07/2014  11:29:00       10.666     -212.943       -5.397      113.712      113.983       59.563    12930.457    12992.096     3547.745        3.747        1.474      213.210       39.767        0.035      337.371        9.297      855.783
02/07/2014  11:30:00      -48.819     -134.764       -5.537      117.652       83.277       46.359    13841.988     6935.022     2149.111        2.175        1.146      143.334       32.145        0.050      337.200        9.012      855.829
02/07/2014  11:31:00     -130.421     -143.446      -11.496      109.341       81.217       45.582    11955.551     6596.224     2077.728        2.917        1.031      193.872       37.823        0.038      336.956        8.603      855.832
02/07/2014  11:32:00     -300.282     -199.132      -19.931      161.390      115.304       56.074    26046.781    13295.088     3144.246        8.634        2.124      360.309       60.082        0.028      336.769        8.290      855.831
02/07/2014  11:33:00     -152.296     -224.968       15.698      146.285      182.352       67.932    21399.356    33252.133     4614.793        6.665        2.963      271.670       65.954        0.059      336.913        8.530      855.792
02/07/2014  11:34:00     -282.048     -166.303      -11.619      148.264      160.496       92.776    21982.253    25759.104     8607.377        8.183        2.817      327.426       84.135        0.066      336.815        8.366      855.726
02/07/2014  11:35:00     -232.482     -216.850       12.873      159.927      165.900       70.099    25576.675    27522.828     4913.915        7.961        2.901      317.918       59.092        0.035      336.900        8.508      855.698
02/07/2014  11:36:00     -300.018     -192.494        6.460      199.955      163.946       80.047    39982.000    26878.230     6407.540       10.017        3.663      356.461       85.494        0.058      336.901        8.509      855.682
02/07/2014  11:37:00     -168.474     -256.398        0.407      149.429      181.472       80.514    22329.143    32932.158     6482.460        7.792        3.087      306.795       82.408        0.072      336.964        8.616      855.686
02/07/2014  11:38:00     -122.079     -118.587        5.471       74.632       73.627       43.114     5569.880     5420.884     1858.806        2.092        0.642      170.195       42.288        0.062      337.144        8.918      855.612
02/07/2014  11:39:00     -117.474     -229.316       -7.326      143.632      167.458       78.153    20630.254    28042.199     6107.914        6.060        2.739      257.655       60.915        0.056      337.121        8.880      855.640
02/07/2014  11:40:00     -166.665     -244.015        0.614      142.021      122.898       74.201    20170.053    15103.965     5505.859        6.404        2.039      295.501       70.656        0.057      337.048        8.755      855.502
02/07/2014  11:41:00     -164.899     -333.342      -16.469      185.734      133.351       86.109    34497.017    17782.541     7414.727        9.912        2.985      371.898       87.291        0.055      337.047        8.755      855.509
02/07/2014  11:42:00     -143.301     -166.191       14.838      166.857      153.632       70.032    27841.127    23602.697     4904.423        5.235        2.817      219.441       70.447        0.103      337.241        9.079      855.481
02/07/2014  11:43:00     -147.409     -198.876        6.603      123.623      125.202       72.941    15282.694    15675.466     5320.413        4.879        1.814      247.550       69.494        0.079      337.267        9.122      855.450
02/07/2014  11:44:00     -239.138     -201.623        0.908      192.313      175.804       73.747    36984.269    30906.969     5438.663        8.557        3.666      312.792       79.528        0.065      337.138        8.908      855.356
02/07/2014  11:45:00     -381.888     -105.157       -9.084      193.354      195.397       81.938    37385.603    38179.960     6713.853       11.961        4.114      396.102       89.704        0.051      337.030        8.725      855.244
02/07/2014  11:46:00      -46.540     -106.241       12.436      141.328       97.411       65.245    19973.595     9488.894     4256.895        2.366        1.686      115.988       66.894        0.333      337.204        9.018      855.286
02/07/2014  11:47:00      172.195     -242.185       -9.120      178.194      291.568      122.879    31753.202    85011.709    15099.360       11.010        6.593      297.161      147.872        0.248      337.161        8.946      855.134
02/07/2014  11:48:00      165.866     -193.674       -7.972       88.790      134.352       57.727     7883.724    18050.521     3332.389        4.717        1.463      254.993       67.814        0.071      337.195        9.002      855.313
02/07/2014  11:49:00      -16.973       -0.620       21.702       54.939       80.001       46.122     3018.277     6400.177     2127.245        0.615        0.577       16.984       40.248        5.616      337.434        9.406      855.286
02/07/2014  11:50:00      -93.991        3.473       -5.387       82.886      100.849       52.800     6870.160    10170.570     2787.832        1.435        0.991       94.055       42.975        0.209      337.230        9.062      855.235
02/07/2014  11:51:00     -287.061      127.118      -29.056      126.925       89.928       62.850    16110.001     8086.978     3950.160        6.377        1.407      313.948       59.452        0.036      337.030        8.727      855.065
02/07/2014  11:52:00     -184.558      283.883      -39.122       88.302      100.166       54.775     7797.258    10033.317     3000.303        6.850        1.042      338.602       55.141        0.027      336.788        8.324      855.052
02/07/2014  11:53:00     -106.398       90.712       -2.451       55.503       79.806       37.295     3080.613     6369.008     1390.906        1.520        0.542      139.818       44.478        0.101      337.133        8.901      855.098
02/07/2014  11:54:00     -160.472      -39.375      -25.817      146.407       82.469       52.720    21435.098     6801.205     2779.423        2.949        1.551      165.232       75.221        0.207      336.969        8.624      855.147
02/07/2014  11:55:00      -61.353     -100.847       13.811       96.158      120.689       52.718     9246.402    14565.954     2779.186        2.035        1.330      118.044       50.600        0.184      337.227        9.058      855.227
02/07/2014  11:56:00      -28.571     -155.788      -10.032      114.307      117.192       55.815    13065.981    13733.986     3115.323        2.755        1.496      158.386       55.732        0.124      337.269        9.127      855.272
02/07/2014  11:57:00      -42.257       11.023       11.093       66.355       49.909       39.947     4402.941     2490.906     1595.800        0.526        0.424       43.671       39.285        0.809      337.560        9.618      855.219
02/07/2014  11:58:00      -99.099      -11.576        1.717       64.448       42.576       29.632     4153.564     1812.696      878.065        0.840        0.342       99.772       27.150        0.074      337.527        9.562      855.184
02/07/2014  11:59:00      -31.493     -145.248      -17.304      125.997       71.678       59.556    15875.304     5137.773     3546.938        2.347        1.228      148.623       30.337        0.042      337.508        9.526      855.154
02/07/2014  12:00:00       63.519     -277.206       -8.643      148.380      159.873       59.133    22016.727    25559.458     3496.699        6.600        2.554      284.390       58.788        0.043      337.374        9.302      855.110
02/07/2014  12:01:00      -54.869     -198.010      -13.750       72.095      127.787       40.867     5197.643    16329.636     1670.151        3.280        1.160      205.472       22.770        0.012      337.420        9.380      855.101
02/07/2014  12:02:00       75.039     -111.203        1.878      152.512      106.126       66.248    23259.822    11262.640     4388.787        2.845        1.946      134.153       55.831        0.173      337.269        9.128      855.021
02/07/2014  12:03:00     -218.297     -221.477        5.309      177.746      149.379       64.053    31593.689    22314.086     4102.777        7.736        2.901      310.975       82.894        0.071      337.107        8.855      854.938
02/07/2014  12:04:00     -113.389     -150.443       20.740      185.163      208.886       85.470    34285.363    43633.153     7305.070        6.056        4.261      188.388       92.603        0.242      337.405        9.356      854.969
02/07/2014  12:05:00        0.894     -202.470      -14.514      135.855      115.560       60.771    18456.503    13354.094     3693.127        3.835        1.775      202.472       45.815        0.051      337.447        9.424      854.929
02/07/2014  12:06:00       -3.603     -156.866       -6.877      147.678      145.805       73.982    21808.828    21258.981     5473.397        3.659        2.427      156.907       67.448        0.185      337.372        9.300      854.862
02/07/2014  12:07:00       20.032     -171.445       -4.186      134.145      108.517       71.594    17995.003    11775.890     5125.651        3.235        1.745      172.612       54.326        0.099      337.344        9.251      854.816
02/07/2014  12:08:00      -30.613     -272.710       -6.793      132.842      119.917       62.603    17646.909    14380.123     3919.165        5.564        1.797      274.423       49.056        0.032      337.374        9.302      854.791
02/07/2014  12:09:00       31.837      -84.940       30.929      113.977      136.451       57.328    12990.717    18618.908     3286.521        2.203        1.745       90.710       77.992        0.739      337.457        9.444      854.742
02/07/2014  12:10:00       73.573      -68.557       33.321       79.865       96.827       78.664     6378.446     9375.523     6187.955        1.658        1.097      100.564       67.607        0.452      337.314        9.203      854.691
02/07/2014  12:11:00       24.216      -98.429       34.166      129.862      116.138       71.808    16864.236    13487.940     5156.434        2.347        1.775      101.364       62.023        0.374      337.461        9.449      854.671
02/07/2014  12:12:00       38.280     -137.120       -2.835       99.599       90.072       57.382     9920.024     8112.967     3292.707        2.080        1.066      142.363       53.211        0.140      337.492        9.501      854.656
02/07/2014  12:13:00       -4.740     -128.908        3.604      116.411      111.961       71.353    13551.520    12535.198     5091.181        2.391        1.559      128.995       63.481        0.242      337.565        9.623      854.732
02/07/2014  12:14:00      -34.372      -80.033       15.705       67.479       97.420       50.192     4553.425     9490.678     2519.200        1.220        0.828       87.102       41.885        0.231      337.663        9.789      854.778
02/07/2014  12:15:00       63.814       90.495      136.493       57.851       94.063       51.084     3346.699     8847.900     2609.588        2.285        0.740      110.732       54.964        0.246      337.317        9.208      854.691
02/07/2014  12:16:00      117.760      -39.242       65.431       89.714      144.477       92.168     8048.675    20873.727     8494.883        2.855        1.871      124.127      105.034        0.716      337.413        9.368      854.578
02/07/2014  12:17:00      129.975     -119.780       -1.484      107.879      140.304      110.793    11637.875    19685.345    12275.015        3.741        2.180      176.750      101.892        0.332      337.327        9.224      854.588
02/07/2014  12:18:00      -36.733     -146.607        2.943      106.560      102.380       46.937    11355.006    10481.624     2203.117        2.344        1.202      151.139       34.413        0.052      337.372        9.301      854.684
02/07/2014  12:19:00     -206.008     -258.912       -1.304      179.598      138.572       80.455    32255.568    19202.281     6472.958        8.369        2.897      330.870       81.940        0.061      337.453        9.433      854.718
02/07/2014  12:20:00     -286.511     -272.997       -8.956      226.241      168.261      113.317    51184.818    28311.688    12840.854       12.450        4.617      395.748      124.168        0.098      337.081        8.811      854.650
02/07/2014  12:21:00     -442.356     -318.143      -16.215      184.172      214.975      102.942    33919.407    46214.266    10597.056       19.393        4.537      544.880       88.378        0.026      337.062        8.780      854.644
02/07/2014  12:22:00     -505.231     -304.154      -28.202      217.681      155.113      104.646    47384.859    24060.194    10950.829       21.546        4.120      589.719      106.259        0.032      337.057        8.771      854.647
02/07/2014  12:23:00     -279.005     -163.432       -0.794      257.924      185.403       97.953    66524.786    34374.126     9594.822       10.750        5.525      323.348      111.110        0.118      337.241        9.080      854.570
02/07/2014  12:24:00     -203.002     -192.245       -0.621      158.515      144.752       62.241    25126.897    20953.205     3873.923        6.405        2.498      279.585       72.834        0.068      337.233        9.065      854.505
02/07/2014  12:25:00     -219.783      -50.516       -9.302      154.190      156.248       79.384    23774.576    24413.532     6301.773        5.271        2.724      225.513       75.304        0.112      337.362        9.282      854.545
02/07/2014  12:26:00     -188.156      -39.983       20.301      185.523      126.974       76.146    34418.883    16122.511     5798.229        4.687        2.817      192.357       71.546        0.138      337.472        9.468      854.471
02/07/2014  12:27:00     -291.367     -267.458       -6.252      278.486      275.155      121.074    77554.355    75710.018    14658.892       16.216        8.396      395.511      152.206        0.148      337.502        9.516      854.362
02/07/2014  12:28:00     -430.874     -385.570      -23.628      260.182      161.503      117.547    67694.660    26083.141    13817.278       22.121        5.380      578.201      136.823        0.056      337.175        8.969      854.414
02/07/2014  12:29:00     -394.210     -267.844       10.204      271.196      186.282      118.462    73547.439    34700.835    14033.329       17.474        6.114      476.594      133.597        0.079      337.070        8.793      854.385
02/07/2014  12:30:00     -391.264     -286.998        1.521      291.225      169.154      101.852    84812.100    28613.151    10373.884       17.960        6.190      485.238      124.405        0.066      336.914        8.532      854.399
02/07/2014  12:31:00     -175.640     -137.985       10.686      184.124      140.259       90.304    33901.617    19672.659     8154.854        5.585        3.086      223.359       99.441        0.198      337.144        8.917      854.479
02/07/2014  12:32:00     -342.512     -343.450       10.663      261.336      204.274       92.181    68296.444    41728.006     8497.308       17.693        5.926      485.049      124.062        0.065      337.133        8.899      854.548
02/07/2014  12:33:00     -247.786     -453.043        5.526      177.306      216.812      115.324    31437.419    47007.544    13299.569       17.919        4.587      516.378      120.092        0.054      336.969        8.625      854.534
02/07/2014  12:34:00     -362.920     -243.158      -12.004      234.060      181.793       90.166    54784.275    33048.676     8129.878       14.345        4.798      436.848       85.820        0.039      337.106        8.852      854.549
02/07/2014  12:35:00     -403.940     -216.779       -7.847      204.088      161.651       87.187    41651.778    26130.981     7601.575       14.279        3.769      458.433       86.596        0.036      337.292        9.164      854.658
02/07/2014  12:36:00     -440.367     -355.234      -19.819      230.765      248.372      106.969    53252.708    61688.748    11442.335       22.342        6.319      565.787      124.083        0.048      336.932        8.562      854.684
02/07/2014  12:37:00     -289.453     -262.019        1.092      221.016      162.745       91.382    48848.289    26485.800     8350.674       11.804        4.184      390.432       80.444        0.042      337.059        8.775      854.565
02/07/2014  12:38:00     -388.026     -270.296       -2.122      173.624      140.766      102.454    30145.207    19815.161    10496.746       14.203        3.023      472.889       84.434        0.032      337.146        8.920      854.548
02/07/2014  12:39:00     -389.039     -133.109        1.356      220.005      229.885       96.288    48402.403    52847.317     9271.457       13.977        5.526      411.180      113.969        0.077      337.168        8.957      854.517
02/07/2014  12:40:00     -437.873     -125.903       12.678      272.605      206.339      107.948    74313.586    42575.968    11652.755       16.812        6.427      455.614      113.034        0.062      337.128        8.892      854.520
02/07/2014  12:41:00     -331.466     -365.335       -1.911      215.355      250.728      103.159    46377.875    62864.449    10641.869       18.159        5.994      493.294      119.056        0.058      337.012        8.696      854.484
02/07/2014  12:42:00     -397.660     -288.053       -9.075      233.797      205.050      128.140    54661.220    42045.677    16419.918       17.714        5.656      491.027      140.671        0.082      337.083        8.814      854.382
02/07/2014  12:43:00     -475.417     -252.307        2.593      274.254      278.236      116.506    75215.450    77415.202    13573.761       22.791        8.310      538.220      125.633        0.054      337.153        8.932      854.307
02/07/2014  12:44:00     -330.455     -295.783       -2.352      310.312      213.488      102.232    96293.409    45576.995    10451.451       17.448        7.616      443.496      107.355        0.059      337.295        9.171      854.294
02/07/2014  12:45:00     -448.382     -282.890      -17.488      190.921      180.667       93.398    36450.824    32640.419     8723.136       17.958        3.891      530.163       97.256        0.034      337.354        9.270      854.321
02/07/2014  12:46:00     -306.476     -156.787        2.416      171.837      118.899       69.726    29527.845    14137.032     4861.671        8.351        2.426      344.252       79.151        0.053      337.461        9.448      854.338
02/07/2014  12:47:00     -223.946     -160.266       14.303      158.649      126.307       70.010    25169.621    15953.553     4901.446        6.102        2.301      275.385       74.871        0.074      337.667        9.792      854.461
02/07/2014  12:48:00     -457.760     -287.190        0.743      233.145      206.807      106.308    54356.448    42769.001    11301.375       20.020        5.421      540.391      121.378        0.050      337.533        9.568      854.511
02/07/2014  12:49:00     -338.406     -276.370      -10.637      236.634      164.029      109.156    55995.429    26905.492    11914.952       14.289        4.741      436.920      116.866        0.072      337.504        9.520      854.534
02/07/2014  12:50:00     -467.195     -141.401      -10.080      289.757      182.136      112.903    83959.259    33173.566    12747.138       18.410        6.494      488.124      117.006        0.057      337.345        9.254      854.482
02/07/2014  12:51:00     -341.527     -205.864       -9.514      248.767      166.972       98.093    61885.190    27879.709     9622.315       12.923        4.969      398.774      102.335        0.066      337.375        9.303      854.476
02/07/2014  12:52:00     -359.734     -352.632      -15.099      245.089      183.198       89.566    60068.840    33561.609     8021.982       17.780        5.083      503.744       93.278        0.034      337.390        9.329      854.462
02/07/2014  12:53:00     -593.834     -327.512       -9.124      250.334      241.678      117.046    62667.184    58408.121    13699.695       29.735        6.739      678.161      127.362        0.035      337.245        9.086      854.445
02/07/2014  12:54:00     -384.617     -247.393        7.563      273.849      198.963      128.640    74993.312    39586.392    16548.276       17.013        6.556      457.312      136.880        0.090      337.200        9.011      854.475
02/07/2014  12:55:00     -201.506     -202.345        1.418      218.456      142.208       74.942    47722.967    20223.060     5616.322        7.754        3.678      285.566       84.198        0.087      337.378        9.308      854.482
02/07/2014  12:56:00     -459.739      -97.447       -0.316      286.855      198.267      101.910    82285.918    39309.748    10385.576       17.639        6.599      469.953      110.854        0.056      337.466        9.454      854.567
02/07/2014  12:57:00     -545.323     -292.179      -22.475      311.450      251.069      116.229    97001.320    63035.539    13509.287       27.836        8.677      618.664      147.234        0.057      337.243        9.082      854.621
02/07/2014  12:58:00     -336.462     -103.335        5.339      235.036      169.629      117.737    55241.990    28774.035    13861.966       11.088        4.894      351.973      126.991        0.130      337.383        9.318      854.572
02/07/2014  12:59:00     -564.831     -143.126      -34.230      284.310      259.630      113.662    80832.302    67407.768    12919.098       25.089        8.058      582.683      118.702        0.042      337.303        9.184      854.514
02/07/2014  13:00:00     -475.611     -220.342       -7.107      337.814      204.322      138.286   114118.494    41747.481    19122.969       22.486        8.749      524.172      164.159        0.098      337.452        9.431      854.451
02/07/2014  13:01:00     -530.854     -200.687      -32.247      290.891      240.839      115.782    84617.800    58003.343    13405.386       23.954        7.801      567.522      135.675        0.057      337.370        9.295      854.455
02/07/2014  13:02:00     -511.614     -315.397       -6.563      232.955      175.392       94.332    54268.235    30762.183     8898.442       22.758        4.696      601.019       99.355        0.027      337.293        9.165      854.521
02/07/2014  13:03:00     -538.822     -340.400       -8.104      256.361      201.231      104.158    65721.140    40494.047    10848.951       26.164        5.853      637.339      112.139        0.031      337.261        9.113      854.455
02/07/2014  13:04:00     -637.925     -191.213      -30.503      334.497      276.580      119.659   111888.278    76496.740    14318.340       32.353       10.135      665.966      150.614        0.051      337.116        8.869      854.317
02/07/2014  13:05:00     -348.517     -228.025       -8.154      208.045      209.604       99.901    43282.530    43933.816     9980.159       13.534        4.860      416.485      113.262        0.074      337.383        9.317      854.376
02/07/2014  13:06:00     -220.064     -117.137       20.578      210.508      140.715       87.182    44313.464    19800.760     7600.763        6.713        3.586      249.297      101.425        0.166      337.652        9.769      854.345
02/07/2014  13:07:00     -440.972     -162.570       -6.263      268.544      278.546      107.774    72115.844    77587.957    11615.289       19.109        8.066      469.985      116.359        0.061      337.578        9.643      854.252
02/07/2014  13:08:00     -385.999     -270.959       -8.126      248.178      233.046      114.547    61592.292    54310.443    13120.956       17.573        6.451      471.608      120.034        0.065      337.663        9.787      854.200
02/07/2014  13:09:00     -484.226     -262.444      -10.625      327.883      197.777      133.311   107507.399    39115.927    17771.760       23.390        8.220      550.773      159.041        0.083      337.492        9.500      854.260
02/07/2014  13:10:00     -372.614     -240.801      -10.872      288.332      215.843      125.347    83135.295    46588.014    15711.976       17.116        7.272      443.651      150.743        0.115      337.483        9.484      854.207
02/07/2014  13:11:00     -641.375     -179.167      -27.751      332.388      204.615      107.000   110481.854    41867.478    11449.016       30.398        8.190      665.930      116.853        0.031      337.239        9.075      854.226
02/07/2014  13:12:00     -373.992     -308.971        2.309      252.191      201.332      124.590    63600.372    40534.551    15522.689       17.747        5.983      485.112      143.462        0.087      337.406        9.356      854.235
02/07/2014  13:13:00     -313.698     -207.216        1.339      247.457      191.891      102.648    61234.776    36822.199    10536.559       12.495        5.430      375.958      120.945        0.103      337.571        9.632      854.230
02/07/2014  13:14:00     -336.858     -182.621       -0.741      185.845      164.053       96.769    34538.504    26913.327     9364.171       10.881        3.541      383.176      100.265        0.068      337.585        9.655      854.204
02/07/2014  13:15:00     -692.543     -251.539      -48.162      315.492      232.848      125.761    99534.960    54218.370    15815.924       35.735        8.478      736.809      139.415        0.036      337.328        9.225      854.161
02/07/2014  13:16:00     -325.717     -280.549       12.662      267.298      234.324      103.947    71448.030    54907.807    10804.930       16.103        6.858      429.883      115.557        0.072      337.571        9.633      854.135
02/07/2014  13:17:00     -563.036     -318.702      -21.430      275.533      209.598       98.490    75918.638    43931.181     9700.266       27.427        6.478      646.977      111.380        0.030      337.378        9.309      854.100
02/07/2014  13:18:00     -384.873     -285.006        4.174      256.672      207.988      106.682    65880.702    43258.941    11381.001       17.492        6.026      478.911      125.472        0.069      337.325        9.221      854.151
02/07/2014  13:19:00     -347.832     -180.814       -0.083      309.750      187.599      111.936    95945.090    35193.456    12529.643       14.865        7.183      392.021      136.468        0.121      337.473        9.467      854.197
02/07/2014  13:20:00     -300.321     -285.861       -4.867      246.120      150.523      114.506    60574.815    22657.178    13111.721       13.412        4.817      414.620      132.996        0.103      337.279        9.143      854.139
02/07/2014  13:21:00     -444.556     -132.455      -11.851      303.376      184.816       93.698    92037.215    34157.132     8779.257       17.512        6.749      463.869      109.423        0.056      337.465        9.455      854.072
02/07/2014  13:22:00     -465.398     -289.019       10.743      248.044      197.668      101.926    61525.850    39072.641    10388.869       20.559        5.549      547.839      106.057        0.037      337.477        9.474      854.171
02/07/2014  13:23:00     -382.335     -246.003       -5.879      194.819      161.037       93.842    37954.476    25932.893     8806.308       13.970        3.635      454.640       98.216        0.047      337.502        9.516      854.146
02/07/2014  13:24:00     -412.652     -226.909        0.646      230.644      226.671      117.615    53196.569    51379.843    13833.227       17.007        5.920      470.923      113.259        0.058      337.532        9.568      854.023
02/07/2014  13:25:00     -373.887     -162.874      -11.885      223.479      158.244       82.500    49942.693    25041.286     6806.230       12.411        4.090      407.823      106.393        0.068      337.475        9.470      854.035
02/07/2014  13:26:00     -565.929     -206.034      -40.605      241.012      170.038      101.279    58086.544    28912.857    10257.344       23.080        4.863      602.267       93.262        0.024      337.350        9.262      853.959
02/07/2014  13:27:00     -288.141      -96.154       18.280      235.459      153.887       91.716    55440.854    23681.213     8411.888        9.005        4.377      303.761      112.203        0.136      337.623        9.719      853.947
02/07/2014  13:28:00     -477.345     -145.015      -13.270      282.023      185.136      112.747    79536.903    34275.301    12711.891       18.777        6.326      498.886      126.566        0.064      337.376        9.306      853.981
02/07/2014  13:29:00     -507.175      -97.989      -19.019      191.407      164.463       79.118    36636.496    27047.982     6259.702       16.855        3.497      516.554       86.179        0.028      337.338        9.242      853.993
02/07/2014  13:30:00     -490.373     -182.454      -23.497      216.911      187.096       86.425    47050.234    35004.740     7469.354       18.190        4.476      523.216       71.587        0.019      337.307        9.189      854.010
02/07/2014  13:31:00     -420.443     -161.269       -9.028      206.643      172.873       91.554    42701.385    29884.977     8382.115       14.190        4.048      450.311      105.230        0.055      337.270        9.127      854.037
02/07/2014  13:32:00     -419.910     -195.032       -3.834      246.327      214.265      103.772    60676.858    45909.328    10768.630       16.584        5.868      462.992      107.042        0.053      337.407        9.356      854.019
02/07/2014  13:33:00     -561.225      -50.051      -38.948      194.748      198.427       95.882    37926.643    39373.283     9193.418       20.273        4.325      563.452      107.700        0.037      337.389        9.327      854.044
02/07/2014  13:34:00     -458.773     -246.230      -27.715      271.069      234.421       95.173    73478.604    54953.062     9057.855       20.465        6.874      520.675      100.771        0.037      337.277        9.140      854.053
02/07/2014  13:35:00     -470.780     -162.435       -5.176      288.053      187.829       94.962    82974.694    35279.556     9017.857       18.763        6.364      498.015      112.833        0.051      337.407        9.358      854.104
02/07/2014  13:36:00     -418.168     -152.289      -27.120      231.115      202.238      101.436    53414.209    40900.285    10289.231       15.168        5.230      445.035      114.803        0.067      337.401        9.348      854.154
02/07/2014  13:37:00     -329.605     -126.868      -13.142      187.830      168.402       93.868    35280.261    28359.350     8811.160        9.866        3.623      353.178      110.129        0.097      337.444        9.419      854.182
02/07/2014  13:38:00     -195.000      -27.685       13.878      152.209       98.797       66.070    23167.482     9760.920     4365.233        3.813        1.865      196.955       72.763        0.136      337.521        9.550      854.129
02/07/2014  13:39:00     -239.408     -186.560        1.085      204.241      174.619       71.892    41714.341    30491.823     5168.471        8.473        3.869      303.514       92.934        0.094      337.535        9.573      854.138
02/07/2014  13:40:00     -340.230     -150.592      -10.547      224.528      151.156       81.508    50412.963    22848.035     6643.501       10.921        3.995      372.068       99.285        0.071      337.291        9.162      854.134
02/07/2014  13:41:00     -225.472     -191.235       -5.483      130.818      148.001       75.906    17113.405    21904.337     5761.769        6.610        2.239      295.650       65.553        0.049      337.384        9.319      854.106
02/07/2014  13:42:00     -266.387      -71.764       15.669      200.746      143.444       75.266    40299.108    20576.149     5664.966        7.144        3.327      275.884      102.082        0.137      337.383        9.319      854.089
02/07/2014  13:43:00     -310.854     -141.778        9.013      229.266      148.808       75.678    52563.005    22143.842     5727.224        9.861        4.022      341.660       94.139        0.076      337.275        9.137      854.101
02/07/2014  13:44:00     -390.607     -289.439       -6.064      165.326      149.596       90.363    27332.807    22378.821     8165.429       14.712        2.894      486.157       87.937        0.033      337.058        8.773      854.059
02/07/2014  13:45:00     -330.573     -217.705      -24.286      123.115      124.338       77.476    15157.249    15459.842     6002.528        9.693        1.831      395.820       68.103        0.030      337.108        8.856      854.056
02/07/2014  13:46:00     -470.888     -218.065       -7.895      232.490      169.413       91.834    54051.800    28700.809     8433.452       18.025        4.559      518.930       95.074        0.034      337.181        8.978      854.064
02/07/2014  13:47:00     -479.556     -309.936       -7.389      246.360      146.607       97.594    60693.082    21493.540     9524.524       20.888        4.586      570.994      118.644        0.043      337.075        8.801      854.076
02/07/2014  13:48:00     -360.445     -189.828        9.149      174.252      142.543       84.951    30363.820    20318.588     7216.747       11.196        2.895      407.376       82.343        0.041      337.079        8.807      854.054
02/07/2014  13:49:00     -284.814     -170.606        3.616      143.342      128.380       72.155    20546.786    16481.469     5206.341        7.623        2.112      332.002       71.562        0.046      337.132        8.897      854.040
02/07/2014  13:50:00     -370.961     -130.463       -5.991      269.303      161.271       84.813    72524.026    26008.289     7193.255       13.018        5.286      393.233      109.901        0.078      337.047        8.754      854.018
02/07/2014  13:51:00     -445.541     -111.791       -6.297      289.876      199.786       86.490    84028.091    39914.288     7480.499       17.121        6.571      459.351      102.506        0.050      337.063        8.781      854.064
02/07/2014  13:52:00     -380.551      -93.010        5.253      235.201      128.750       98.079    55319.305    16576.558     9619.555       11.749        4.076      391.752      114.314        0.085      337.091        8.827      853.994
02/07/2014  13:53:00     -552.944      -79.040      -25.204      194.052      195.062       95.895    37656.222    38049.033     9195.842       19.875        4.245      558.564      100.932        0.033      337.013        8.697      854.007
02/07/2014  13:54:00     -388.659     -165.454      -18.040      181.679      182.382      100.127    33007.101    33263.121    10025.507       12.751        3.815      422.411      108.643        0.066      337.052        8.762      854.033
02/07/2014  13:55:00     -383.468     -124.159        0.787      258.460      205.480       92.645    66801.411    42222.083     8583.110       14.001        5.880      403.067      104.100        0.067      337.117        8.871      854.060
02/07/2014  13:56:00     -545.606     -179.599      -22.210      269.984      187.090      100.654    72891.546    35002.804    10131.234       22.421        5.901      574.406      103.856        0.033      336.947        8.586      854.118
02/07/2014  13:57:00     -306.943     -284.377       13.426      279.860      239.974      128.077    78321.594    57587.286    16403.821       16.376        7.616      418.430      148.859        0.127      336.888        8.489      853.978
02/07/2014  13:58:00     -454.362      -44.851      -22.719      351.825      193.807      100.938   123781.121    37561.235    10188.440       19.022        8.577      456.570      136.085        0.089      336.821        8.377      853.872
02/07/2014  13:59:00     -427.684     -249.353       -2.384      275.158      254.840      114.661    75711.804    64943.494    13147.094       19.942        7.690      495.066      135.135        0.075      336.829        8.392      853.846
02/07/2014  14:00:00     -369.550     -204.258       -4.832      194.680      179.017       85.960    37900.125    32047.261     7389.129       12.781        3.867      422.242       99.199        0.055      336.944        8.582      853.876
02/07/2014  14:01:00     -373.561     -259.621       -1.622      254.210      179.373      105.212    64622.708    32174.585    11069.489       15.739        5.393      454.918      118.854        0.068      336.925        8.550      853.914
02/07/2014  14:02:00     -297.214     -250.229       -4.304      164.232      138.132       77.042    26972.129    19080.319     5935.468       10.147        2.599      388.524       76.368        0.039      336.976        8.635      853.841
02/07/2014  14:03:00     -480.720     -254.984       -6.412      204.706      190.563      103.471    41904.445    36314.139    10706.316       19.252        4.446      544.158      116.473        0.046      336.981        8.642      853.902
02/07/2014  14:04:00     -341.976     -209.818        5.492      261.559      212.099       96.400    68413.353    44986.099     9292.937       14.182        6.135      401.212      121.683        0.092      337.071        8.795      853.837
02/07/2014  14:05:00     -444.010     -303.951       -9.734      227.817      182.001       99.468    51900.596    33124.184     9893.786       19.225        4.746      538.080       95.412        0.031      336.881        8.477      853.812
02/07/2014  14:06:00     -421.416     -199.063      -16.167      151.146      150.306       74.801    22845.146    22591.972     5595.146       13.425        2.552      466.066       67.156        0.021      336.823        8.381      853.669
02/07/2014  14:07:00     -216.654      -97.978       23.827      195.245      110.351       78.068    38120.450    12177.278     6094.644        5.674        2.820      237.779       97.305        0.167      337.074        8.800      853.479
02/07/2014  14:08:00     -449.132     -265.285        6.191      250.130      212.251      113.641    62564.978    45050.464    12914.316       19.631        6.026      521.628      119.280        0.052      337.187        8.988      853.509
02/07/2014  14:09:00     -358.223     -320.310       11.205      248.480      259.320      121.853    61742.277    67246.671    14848.184       18.741        7.192      480.544      127.501        0.070      337.152        8.929      853.489
02/07/2014  14:10:00     -371.116     -186.953      -15.043      199.314      163.387       81.371    39725.904    26695.199     6621.170       12.296        3.652      415.546       83.871        0.041      337.257        9.106      853.495
02/07/2014  14:11:00     -190.848     -137.739        8.474      137.336      111.070       67.437    18861.149    12336.554     4547.771        4.560        1.787      235.362       73.265        0.097      337.287        9.156      853.396
02/07/2014  14:12:00     -221.312     -280.096      -11.113      126.831      145.399       73.358    16086.136    21140.794     5381.363        8.507        2.130      356.977       60.906        0.029      337.353        9.266      853.408
02/07/2014  14:13:00     -291.119     -213.230      -12.317      164.668      127.324       76.976    27115.623    16211.313     5925.338        8.980        2.463      360.856       68.497        0.036      337.339        9.244      853.448
02/07/2014  14:14:00     -221.978     -246.017       -7.523      171.905      145.022       65.344    29551.444    21031.301     4269.779        8.234        2.743      331.359       64.644        0.038      337.311        9.196      853.514
02/07/2014  14:15:00     -426.889     -245.554      -25.278      248.893      199.226      107.549    61947.954    39690.918    11566.791       17.817        5.660      492.474      119.456        0.059      337.369        9.294      853.619
02/07/2014  14:16:00     -430.668     -240.122      -22.139      237.804      178.660       99.942    56550.625    31919.281     9988.306       17.102        4.923      493.086      117.888        0.057      337.146        8.919      853.718
02/07/2014  14:17:00     -415.301     -277.449      -22.792      235.746      152.377       89.196    55576.251    23218.715     7955.842       16.834        4.338      499.452      106.582        0.046      336.934        8.565      853.686
02/07/2014  14:18:00     -289.141      -89.376      -12.718      177.214      119.307       69.314    31404.871    14234.048     4804.469        7.109        2.522      302.639       79.478        0.069      337.307        9.191      853.761
02/07/2014  14:19:00     -430.477      -67.901      -33.859      197.016      147.123       75.111    38815.412    21645.130     5641.731       12.857        3.305      435.799       74.543        0.029      336.938        8.571      853.945
02/07/2014  14:20:00     -229.429     -152.493       -1.393      150.420      124.454       74.317    22626.074    15488.884     5522.951        5.976        2.182      275.484       74.038        0.072      336.961        8.610      854.003
02/07/2014  14:21:00     -470.299     -288.252      -16.983      280.737      243.747      116.495    78813.140    59412.356    13571.094       22.815        7.590      551.607      136.048        0.061      336.794        8.331      854.057
02/07/2014  14:22:00     -443.607     -332.340      -10.856      206.815      192.840      106.993    42772.476    37187.098    11447.603       19.936        4.570      554.290      115.241        0.043      336.797        8.338      854.121
02/07/2014  14:23:00     -288.937      -78.439       24.227      171.107      150.989       87.099    29277.466    22797.697     7586.285        7.493        2.983      299.395       93.961        0.098      336.864        8.449      854.110
02/07/2014  14:24:00     -272.741     -107.706       -5.073      203.011      177.646       88.097    41213.645    31558.088     7761.162        8.326        4.027      293.238      101.947        0.121      336.892        8.495      854.110
02/07/2014  14:25:00     -250.748     -234.704       -9.021      174.571      173.410       81.134    30474.920    30070.913     6582.755        9.257        3.356      343.454       77.592        0.051      336.935        8.565      854.087
02/07/2014  14:26:00     -232.593     -130.107       21.055      229.954      165.207       85.731    52878.951    27293.465     7349.822        7.948        4.376      266.509      104.961        0.155      336.978        8.640      854.127
02/07/2014  14:27:00     -358.671      -42.490        6.398      202.145      129.252       85.611    40862.797    16706.208     7329.197        9.768        3.245      361.179       90.036        0.062      336.894        8.498      853.996
02/07/2014  14:28:00     -369.262     -179.639      -15.095      205.419      149.416       67.818    42196.855    22325.086     4599.338       11.897        3.456      410.640       72.299        0.031      336.878        8.471      853.956
02/07/2014  14:29:00     -256.820      -70.450        4.693      175.281      107.906       69.242    30723.285    11643.661     4794.484        5.904        2.358      266.307       72.531        0.074      337.007        8.687      853.887
02/07/2014  14:30:00     -139.728      -47.674       -4.743       94.419       61.448       50.247     8915.033     3775.806     2524.716        1.851        0.761      147.637       48.653        0.109      337.023        8.715      853.773
02/07/2014  14:31:00     -302.228     -186.500       10.807      186.305      152.169       77.423    34709.448    23155.454     5994.349        9.504        3.193      355.140       93.123        0.069      337.024        8.715      853.789
02/07/2014  14:32:00     -369.357     -162.623      -12.411      152.763      167.224       84.607    23336.667    27963.781     7158.338       11.073        2.923      403.573       86.064        0.045      337.068        8.789      853.847
02/07/2014  14:33:00     -347.066     -195.302       -9.524      122.142      124.583       64.031    14918.674    15520.837     4099.933        9.661        1.727      398.243       65.078        0.027      336.964        8.615      853.802
02/07/2014  14:34:00     -358.721     -240.196       -7.339      180.703      126.658       74.920    32653.501    16042.323     5612.990       12.036        2.715      431.712       67.750        0.025      336.938        8.571      853.736
02/07/2014  14:35:00      -50.826      -27.637       23.229       59.768       80.019       46.581     3572.256     6403.047     2169.765        0.801        0.607       57.855       39.196        0.459      337.244        9.087      853.682
02/07/2014  14:36:00      -79.055      -52.285       15.700       98.371       84.711       45.971     9676.789     7176.037     2113.368        1.409        0.948       94.781       50.513        0.284      337.424        9.387      853.543
02/07/2014  14:37:00      -71.571      -97.158       30.997      151.591      117.483       63.056    22979.839    13802.306     3976.104        2.813        2.038      120.674       64.388        0.285      337.409        9.362      853.571
02/07/2014  14:38:00     -347.705     -111.061        8.103      162.272      156.174       84.177    26332.173    24390.393     7085.834        9.554        2.890      365.011       91.502        0.063      337.357        9.275      853.616
02/07/2014  14:39:00     -389.242     -317.002      -24.229      270.286      164.147       91.148    73054.408    26944.294     8308.017       18.043        5.415      501.996       98.411        0.038      337.370        9.296      853.645
02/07/2014  14:40:00     -454.170     -175.882        0.468      270.994      212.742      113.642    73437.978    45259.131    12914.403       18.438        6.581      487.037      136.389        0.078      337.369        9.295      853.550
02/07/2014  14:41:00     -395.006     -117.453      -10.752      178.570      138.801       95.881    31887.351    19265.710     9193.224       11.513        3.017      412.098       95.803        0.054      337.314        9.200      853.523
02/07/2014  14:42:00     -142.803     -177.349       13.666      149.628      145.499       63.728    22388.430    21169.814     4061.227        4.982        2.381      227.696       67.798        0.089      337.487        9.493      853.536
02/07/2014  14:43:00     -162.702     -140.297        7.025      183.067       94.676       59.304    33513.415     8963.460     3516.978        4.609        2.300      214.837       47.023        0.048      337.686        9.825      853.599
02/07/2014  14:44:00     -134.560     -235.265       -5.254      129.667      168.705       77.102    16813.441    28461.465     5944.755        6.234        2.561      271.028       79.717        0.087      337.640        9.746      853.765
02/07/2014  14:45:00     -169.216     -201.851       -9.195      125.835      129.961       67.482    15834.516    16889.961     4553.817        5.336        1.864      263.397       77.656        0.087      337.596        9.674      853.796
02/07/2014  14:46:00     -452.282     -141.121      -15.739      208.062      155.987       70.779    43289.777    24331.923     5009.703       14.866        3.632      473.787       47.432        0.010      337.363        9.282      853.779
02/07/2014  14:47:00     -415.216     -289.897       -2.480      285.451      224.162      129.396    81482.035    50248.823    16743.436       20.243        7.424      506.404      154.403        0.093      337.187        8.989      853.636
02/07/2014  14:48:00     -412.893     -159.192       -8.194      264.220      220.527      124.371    69812.231    48632.243    15468.040       16.488        6.696      442.519      143.167        0.105      337.140        8.910      853.589
02/07/2014  14:49:00     -539.318     -274.963      -28.437      273.418      175.291      108.804    74757.580    30726.888    11838.356       24.228        5.866      605.367      103.077        0.029      337.171        8.964      853.684
02/07/2014  14:50:00     -608.501     -200.559      -34.468      247.570      179.885      109.972    61290.724    32358.676    12093.936       25.869        5.287      640.701      115.668        0.033      337.099        8.842      853.776
02/07/2014  14:51:00     -398.928      -41.874      -18.447      277.221      161.355       99.298    76851.276    26035.390     9860.027       13.697        5.637      401.120      109.429        0.074      337.154        8.934      853.759
02/07/2014  14:52:00     -657.423     -163.093      -22.551      371.232      255.538      129.255   137813.493    65299.577    16706.789       33.952       10.991      677.351      170.430        0.063      336.888        8.489      853.706
02/07/2014  14:53:00     -636.854     -132.249       -1.345      357.121      235.533      137.611   127535.075    55475.997    18936.743       31.247       10.097      650.440      166.217        0.065      336.821        8.376      853.624
02/07/2014  14:54:00     -417.259     -122.071       -5.034      246.631      176.820       93.664    60826.724    31265.281     8773.007       14.493        5.043      434.748      109.065        0.063      336.711        8.195      853.736
02/07/2014  14:55:00     -216.977     -176.624        8.867      192.200      142.045       87.074    36940.648    20176.699     7581.957        7.151        3.235      279.777       91.085        0.106      336.718        8.207      853.662
02/07/2014  14:56:00     -341.829     -211.836      -10.594      195.963      152.509       96.255    38401.486    23258.980     9264.933       11.637        3.546      402.146      105.068        0.068      336.695        8.167      853.724
02/07/2014  14:57:00     -365.982     -278.830      -11.442      201.880      166.849       91.917    40755.380    27838.516     8448.750       14.442        3.852      460.097       92.510        0.040      336.624        8.047      853.846
02/07/2014  14:58:00     -496.011     -274.608       -3.746      274.881      175.468      112.629    75559.409    30789.129    12685.311       22.022        5.952      566.953      124.185        0.048      336.438        7.735      853.792
02/07/2014  14:59:00     -464.482     -143.448      -28.676      222.423      206.569      106.698    49472.068    42670.883    11384.553       17.031        5.176      486.128      123.259        0.064      336.468        7.787      853.731
02/07/2014  15:00:00     -519.535     -226.116      -26.964      309.771      219.737      108.723    95958.372    48284.244    11820.607       23.889        7.803      566.609      126.343        0.050      336.332        7.559      853.702
02/07/2014  15:01:00     -535.472     -202.235      -24.206      313.361      224.089      109.943    98195.211    50215.720    12087.506       24.432        8.025      572.389      146.899        0.066      336.170        7.291      853.714
02/07/2014  15:02:00     -666.150     -237.762      -32.024      274.143      311.904      124.775    75154.330    97284.024    15568.765       34.462        9.400      707.310      152.779        0.047      336.161        7.274      853.679
02/07/2014  15:03:00     -378.778     -213.598       10.289      259.386      230.403      115.836    67281.340    53085.601    13417.935       16.147        6.689      434.853      128.820        0.088      336.247        7.417      853.765
02/07/2014  15:04:00     -454.198     -290.922       -9.389      296.730      189.517      111.247    88048.885    35916.623    12375.934       21.365        6.817      539.381      130.481        0.059      336.283        7.477      853.748
02/07/2014  15:05:00     -536.725     -332.767       -0.545      311.863      211.761      145.578    97258.742    44842.687    21193.084       28.102        8.165      631.512      168.286        0.071      336.087        7.150      853.619
02/07/2014  15:06:00     -294.841     -309.930       16.987      250.898      204.132      120.818    62949.719    41669.990    14597.003       15.122        5.961      427.771      137.157        0.103      336.199        7.337      853.556
02/07/2014  15:07:00     -529.060     -269.028       -3.353      244.786      308.045      118.356    59920.194    94891.439    14008.075       26.052        8.441      593.532      126.699        0.046      336.222        7.375      853.655
02/07/2014  15:08:00     -539.509     -288.660        4.996      338.420      213.879      154.427   114527.987    45744.043    23847.623       27.923        9.206      611.878      164.585        0.072      336.147        7.250      853.457
02/07/2014  15:09:00     -612.499     -301.808      -24.044      273.612      272.758      134.036    74863.282    74396.893    17965.558       31.699        8.361      682.820      137.168        0.040      336.047        7.083      853.347
02/07/2014  15:10:00     -469.014     -156.170       -2.681      260.540      198.323      109.251    67881.131    39332.060    11935.880       18.174        5.957      494.331      108.728        0.048      335.982        6.976      853.433
02/07/2014  15:11:00     -447.376     -360.572       -1.908      328.552      238.242      134.447   107946.145    56759.071    18075.998       25.643        9.139      574.593      171.988        0.090      336.007        7.017      853.475
02/07/2014  15:12:00     -333.339     -286.052       -9.883      177.585      170.006       78.474    31536.306    28901.882     6158.149       12.980        3.330      439.250       79.204        0.033      336.037        7.066      853.607
02/07/2014  15:13:00     -333.991     -353.962      -15.950      221.357      179.877      116.517    48999.101    32355.745    13576.145       16.599        4.747      486.661      128.124        0.069      336.067        7.117      853.648
02/07/2014  15:14:00     -447.608     -263.305      -24.648      219.922      150.092       94.403    48365.857    22527.484     8911.948       17.503        3.990      519.310      104.498        0.040      336.099        7.169      853.706
02/07/2014  15:15:00     -401.642      -69.345       -1.008      276.443      170.484      114.858    76420.676    29064.675    13192.400       14.238        5.934      407.584      120.994        0.088      336.278        7.468      853.702
02/07/2014  15:16:00     -585.189     -263.461      -21.604      317.895      199.098      119.511   101057.116    39640.180    14282.982       28.362        7.749      641.762      121.937        0.036      336.109        7.187      853.842
02/07/2014  15:17:00     -399.803     -268.187       -6.300      217.999      146.935      110.003    47523.596    21589.990    12100.633       15.649        4.061      481.421      119.882        0.062      336.038        7.069      853.889
02/07/2014  15:18:00     -337.281     -214.352       -5.657      194.525      181.736       88.320    37839.883    33027.815     7800.437       11.919        3.933      399.631       96.187        0.058      336.203        7.345      853.738
02/07/2014  15:19:00     -314.097     -230.244       19.815      237.697      181.360      104.637    56499.801    32891.573    10948.917       12.618        5.017      389.448      116.681        0.090      336.350        7.588      853.603
02/07/2014  15:20:00     -330.159     -203.245       -7.062      166.034      147.257       92.198    27567.342    21684.732     8500.539       10.405        2.888      387.703       82.305        0.045      336.307        7.517      853.418
02/07/2014  15:21:00     -319.615     -118.989        8.051      225.299      216.887       91.187    50759.791    47039.855     8315.094       11.122        5.306      341.045      106.781        0.098      336.239        7.404      853.390
02/07/2014  15:22:00     -403.037     -221.887      -11.301      235.084      195.342      100.532    55264.305    38158.374    10106.631       15.764        5.176      460.079       96.184        0.044      336.208        7.351      853.378
02/07/2014  15:23:00     -462.173     -211.647       -6.517      290.454      211.681      111.155    84363.545    44809.053    12355.448       19.996        7.076      508.329      137.677        0.073      336.157        7.267      853.418
02/07/2014  15:24:00     -520.847     -232.746      -16.796      311.730      204.552      118.459    97175.656    41841.579    14032.493       23.936        7.652      570.484      117.189        0.042      336.082        7.142      853.237
02/07/2014  15:25:00     -496.497     -180.269      -12.073      240.835      162.095       88.405    58001.487    26274.648     7815.436       18.560        4.605      528.210       88.304        0.028      335.999        7.005      853.101
02/07/2014  15:26:00     -356.838     -223.811       -7.800      196.349      177.039       96.742    38552.762    31342.965     9359.105       12.835        3.963      421.219       94.061        0.050      336.128        7.218      853.162
02/07/2014  15:27:00     -544.319     -376.722      -32.135      230.755      193.384       95.727    53247.681    37397.458     9163.753       26.950        4.990      661.969      102.005        0.024      336.116        7.199      853.229
02/07/2014  15:28:00     -432.737     -313.252       -4.907      235.958      192.897       97.500    55676.231    37209.155     9506.172       19.388        5.120      534.217      100.967        0.036      336.171        7.289      853.156
02/07/2014  15:29:00     -343.491     -235.887      -19.281      159.903      138.688       75.604    25568.850    19234.280     5715.917       11.225        2.526      416.688       80.536        0.037      336.215        7.365      853.098
02/07/2014  15:30:00     -439.934     -209.802      -27.103      286.898      177.696      117.333    82310.579    31575.819    13767.056       18.295        6.383      487.400      131.006        0.072      336.127        7.218      853.170
02/07/2014  15:31:00     -254.123      -79.047      -12.357      186.174      157.229       89.633    34660.618    24720.930     8034.102        6.918        3.371      266.133       98.827        0.138      336.249        7.421      853.254
02/07/2014  15:32:00     -326.216     -154.030       10.987      203.216      190.815       94.736    41296.898    36410.458     8974.840       10.846        4.334      360.753      106.653        0.087      336.223        7.378      853.345
02/07/2014  15:33:00     -317.642     -191.059        0.673      216.322      171.637       92.480    46795.246    29459.132     8552.557       11.109        4.240      370.675       98.833        0.071      336.311        7.525      853.238
02/07/2014  15:34:00     -474.915     -252.699       -2.898      273.053      195.853      116.193    74557.766    38358.502    13500.765       20.789        6.321      537.960      136.800        0.065      336.353        7.594      853.300
02/07/2014  15:35:00     -370.389     -326.813       -9.202      234.076      168.495       90.537    54791.501    28390.635     8196.880       16.771        4.569      493.958       96.314        0.038      336.296        7.499      853.438
02/07/2014  15:36:00     -366.842     -296.767      -14.502      179.000      185.543      102.926    32040.949    34426.302    10593.862       14.994        3.853      471.852       95.006        0.041      336.269        7.454      853.365
02/07/2014  15:37:00     -408.580     -237.248       -9.793      285.980      148.195      108.986    81784.453    21961.675    11877.927       16.945        5.781      472.466      128.733        0.074      336.254        7.429      853.464
02/07/2014  15:38:00     -309.682     -151.221       12.981      239.793      176.224       95.168    57500.572    31054.735     9056.882       10.826        4.881      344.631      108.319        0.099      336.275        7.464      853.476
02/07/2014  15:39:00     -188.104      -26.664       -5.489      163.171      117.919       61.320    26624.906    13904.836     3760.177        4.020        2.214      189.984       48.966        0.066      336.266        7.451      853.379
02/07/2014  15:40:00     -205.911     -131.741       16.816      164.525      143.002       69.922    27068.345    20449.693     4889.129        5.621        2.620      244.449       78.359        0.103      336.282        7.476      853.448
02/07/2014  15:41:00     -363.106     -209.162       -1.254      215.611      142.020       79.216    46488.152    20169.698     6275.250       12.425        3.647      419.040       88.916        0.045      336.208        7.354      853.472
02/07/2014  15:42:00     -589.014      -57.113      -50.232      255.240      222.466       96.798    65147.711    49490.917     9369.945       23.834        6.200      591.776      101.147        0.029      336.098        7.169      853.349
02/07/2014  15:43:00     -548.272      -73.716      -17.383      260.139      179.925       86.316    67672.051    32373.130     7450.413       20.690        5.375      553.206       92.374        0.028      336.142        7.241      853.281
02/07/2014  15:44:00     -480.981     -147.345      -11.762      236.313      177.531      104.279    55843.706    31517.417    10874.143       17.569        4.912      503.044      111.088        0.049      336.214        7.361      853.498
02/07/2014  15:45:00     -515.966     -152.849      -12.459      263.257      161.160       94.771    69304.469    25972.603     8981.547       19.698        5.213      538.129       87.795        0.027      336.176        7.298      853.474
02/07/2014  15:46:00     -436.913     -241.481      -28.501      190.918      186.735       92.458    36449.519    34869.999     8548.538       16.493        3.993      499.205       84.159        0.028      336.078        7.134      853.426
02/07/2014  15:47:00     -574.409     -225.455      -26.633      253.207      213.432      101.104    64113.961    45553.402    10221.928       25.066        5.994      617.070      117.785        0.036      336.038        7.068      853.416
02/07/2014  15:48:00     -384.271     -224.818        2.958      282.301      205.499      104.471    79694.082    42230.019    10914.163       16.550        6.642      445.205      126.133        0.080      335.999        7.005      853.355
02/07/2014  15:49:00     -488.840     -230.800        8.712      302.508      228.939      119.878    91511.034    52413.292    14370.672       22.527        7.915      540.586      149.603        0.077      335.934        6.896      853.270
02/07/2014  15:50:00     -461.212     -197.694        9.239      258.860      218.431      122.370    67008.525    47712.173    14974.518       19.076        6.485      501.796      131.316        0.068      335.861        6.774      853.242
02/07/2014  15:51:00     -529.938     -323.547      -16.483      310.161      273.249      129.399    96199.984    74665.126    16744.216       28.666        9.380      620.900      145.618        0.055      335.787        6.651      853.260
02/07/2014  15:52:00     -291.616     -251.929      -34.870      176.817      182.372       98.440    31264.338    33259.465     9690.486       11.195        3.711      385.368       67.368        0.031      335.884        6.810      853.207
02/07/2014  15:53:00     -212.822     -320.794      -13.525      162.446      171.686       76.863    26388.637    29476.054     5907.931       10.507        3.089      384.970       60.170        0.024      335.937        6.900      853.215
02/07/2014  15:54:00     -369.279     -216.960      -22.944      201.255      110.123       76.879    40503.547    12127.122     5910.371       12.124        2.927      428.297       75.132        0.031      335.977        6.967      853.319
02/07/2014  15:55:00     -351.004     -189.911        6.511      236.653      187.400      109.700    56004.829    35118.801    12034.178       13.121        5.158      399.087      128.048        0.103      336.227        7.383      853.247
02/07/2014  15:56:00     -371.899      -47.706       22.854      263.697      232.769      121.621    69536.092    54181.500    14791.634       13.978        6.925      374.946      128.879        0.118      336.195        7.330      853.186
02/07/2014  15:57:00     -320.082      -95.675       14.504      219.820      136.885       75.817    48320.833    18737.426     5748.207        9.230        3.640      334.075       86.670        0.067      336.133        7.225      853.295
02/07/2014  15:58:00     -513.422     -109.321      -26.047      208.246      144.143       81.373    43366.574    20777.085     6621.638       17.348        3.538      524.932       84.561        0.026      335.960        6.939      853.361
02/07/2014  15:59:00     -204.812      -81.937       11.874      224.676      159.784       82.113    50479.202    25530.769     6742.539        6.576        4.138      220.594       97.656        0.196      336.031        7.056      853.220
02/07/2014  16:00:00     -369.958     -187.316       11.665      182.258      122.920       88.237    33217.916    15109.231     7785.779       11.409        2.806      414.675      101.048        0.059      335.949        6.921      853.203
02/07/2014  16:01:00     -307.627      -73.800       -2.019      215.719      153.579       89.696    46534.901    23586.383     8045.363        8.911        3.908      316.356      103.983        0.108      336.133        7.227      853.198
02/07/2014  16:02:00     -564.100      -87.209      -18.927      311.660      160.437      128.433    97131.764    25739.976    16495.159       23.274        6.968      570.801      169.142        0.088      336.053        7.092      853.155
02/07/2014  16:03:00     -600.157     -342.362      -19.027      264.423      242.016      121.567    69919.377    58571.775    14778.539       31.049        7.163      690.942      135.548        0.038      336.087        7.151      853.091
02/07/2014  16:04:00     -523.300     -302.441      -23.120      191.419      183.901       94.152    36641.386    33819.622     8864.643       22.257        3.966      604.412       97.006        0.026      336.117        7.201      853.211
02/07/2014  16:05:00     -226.328      -96.672        8.132      204.404      169.673       73.104    41780.960    28788.898     5344.128        6.826        3.796      246.109       80.024        0.106      336.279        7.471      853.177
02/07/2014  16:06:00     -248.301     -137.664       -1.761      242.556      141.468       81.216    58833.221    20013.334     6596.109        8.301        4.272      283.910      103.910        0.134      336.281        7.473      853.106
02/07/2014  16:07:00     -505.417     -217.926      -25.619      193.652      153.719       93.298    37501.239    23629.437     8704.595       18.670        3.492      550.398      101.603        0.034      336.064        7.111      853.043
02/07/2014  16:08:00     -236.329     -174.482        3.548      185.182      154.727       84.825    34292.429    23940.517     7195.197        7.586        3.271      293.761       87.476        0.089      336.167        7.283      853.224
02/07/2014  16:09:00     -413.442      -51.230      -27.716      147.325      132.414       82.093    21704.608    17533.415     6739.279       11.014        2.299      416.604       83.674        0.040      336.139        7.235      853.191
02/07/2014  16:10:00     -504.952     -141.593      -27.497      217.303      169.654       97.754    47220.416    28782.492     9555.801       18.065        4.278      524.428      108.180        0.043      336.152        7.257      853.169
02/07/2014  16:11:00     -346.833     -273.274       -6.926      253.946      172.592      114.757    64488.456    29787.948    13169.246       15.121        5.372      441.556      133.043        0.091      336.164        7.279      853.212
02/07/2014  16:12:00     -335.049      -79.171        1.710      247.190      160.570       96.538    61103.010    25782.568     9319.606       10.735        4.810      344.275      106.832        0.096      336.201        7.340      853.173
02/07/2014  16:13:00     -382.846     -231.683      -10.226      233.505      188.101      118.322    54524.549    35381.933    14000.157       15.211        5.195      447.491      141.430        0.100      336.173        7.294      853.190
02/07/2014  16:14:00     -354.468     -154.076      -17.305      159.041      175.268       86.443    25294.031    30718.767     7472.379       10.657        3.174      386.506       77.649        0.040      336.093        7.160      853.205
02/07/2014  16:15:00     -448.447     -245.074      -15.431      231.873      176.231      118.364    53764.894    31057.197    14010.059       18.010        4.942      511.044      100.232        0.038      336.016        7.031      853.391
02/07/2014  16:16:00     -486.172     -207.469      -22.063      297.368      254.072      113.057    88427.490    64552.361    12781.819       22.279        8.288      528.589      115.186        0.047      335.947        6.916      853.431
02/07/2014  16:17:00     -339.667      -82.454      -10.114      249.641      142.282       99.609    62320.465    20244.198     9922.005       10.736        4.624      349.532      114.761        0.108      335.961        6.942      853.475
02/07/2014  16:18:00     -415.645     -201.120      -13.158      271.960      189.896       99.322    73962.102    36060.351     9864.882       16.661        5.994      461.746       86.527        0.035      335.843        6.743      853.384
02/07/2014  16:19:00     -192.810     -128.018        7.448      131.534      137.775       78.105    17301.202    18981.896     6100.434        4.799        2.119      231.439       74.670        0.104      335.917        6.866      853.353
02/07/2014  16:20:00     -473.477      -44.651      -21.311      197.769      171.564       85.595    39112.539    29434.144     7326.519       15.124        3.794      475.578       94.681        0.040      336.043        7.077      853.209
02/07/2014  16:21:00     -457.915      -74.731      -15.405      282.352      174.256      102.773    79722.923    30365.289    10562.358       16.806        6.033      463.973      122.027        0.069      335.943        6.910      853.220
02/07/2014  16:22:00     -284.515     -168.400       -1.257      195.494      114.699       95.391    38217.918    13155.766     9099.466        8.488        3.024      330.616       99.450        0.090      335.893        6.826      853.196
02/07/2014  16:23:00     -418.250     -254.977      -17.536      240.687      197.147       99.018    57930.075    38867.103     9804.502       17.341        5.330      489.843      116.771        0.057      335.819        6.703      853.190
02/07/2014  16:24:00     -152.310     -106.063       30.457      191.725      158.783      103.062    36758.545    25212.042    10621.824        5.397        3.630      185.601      115.159        0.385      335.865        6.782      853.080
02/07/2014  16:25:00     -346.946     -181.808       -1.579      254.351      216.161      107.343    64694.415    46725.596    11522.470       13.816        6.147      391.696      117.700        0.090      335.878        6.802      853.059
02/07/2014  16:26:00     -358.237      -30.296       -3.549      200.965      218.766       88.259    40387.116    47858.439     7789.654       11.263        4.802      359.516       94.720        0.069      335.906        6.848      853.093
02/07/2014  16:27:00     -368.104      -21.775       -8.346      193.014      156.010       59.184    37254.284    24339.191     3502.774       10.056        3.255      368.747       81.959        0.049      335.885        6.814      853.081
02/07/2014  16:28:00     -232.730      -38.242       10.704      182.925      118.293       73.649    33461.688    13993.297     5424.196        5.430        2.644      235.851       99.606        0.178      335.953        6.927      853.039
02/07/2014  16:29:00     -428.685      -87.959      -10.553      220.986      142.623       69.842    48834.961    20341.249     4877.900       13.282        3.703      437.616       80.766        0.034      335.910        6.856      853.006
02/07/2014  16:30:00     -459.648       -8.032      -16.310      236.479      187.892       93.797    55922.392    35303.236     8797.961       15.580        5.001      459.719      102.581        0.050      336.074        7.128      852.916
02/07/2014  16:31:00     -314.712     -215.965       -6.891      224.314      180.982      109.934    50316.659    32754.500    12085.500       12.043        4.758      381.687      122.679        0.103      336.067        7.118      852.922
02/07/2014  16:32:00     -474.976     -227.293      -27.889      199.183      152.345       84.720    39673.783    23209.017     7177.426       17.404        3.503      526.559       81.760        0.024      335.993        6.992      852.960
02/07/2014  16:33:00     -209.693      -91.952        3.522      194.384      112.990       66.618    37785.176    12766.778     4438.003        5.370        2.749      228.968       79.377        0.120      336.028        7.054      852.989
02/07/2014  16:34:00     -421.720     -111.656      -21.275      137.801       96.940       64.144    18989.242     9397.414     4114.514       11.163        1.625      436.251       72.921        0.028      336.031        7.057      852.971
02/07/2014  16:35:00     -334.394     -218.437       17.354      332.023      248.302      119.995   110239.490    61653.673    14398.694       17.303        9.315      399.417      157.492        0.155      336.041        7.075      852.956
02/07/2014  16:36:00     -560.045     -168.815      -40.299      264.975      221.088      111.823    70211.996    48879.730    12504.379       23.766        6.580      584.935      137.450        0.055      335.855        6.763      852.869
02/07/2014  16:37:00     -427.372      -96.633      -27.031      318.273      186.867       98.988   101297.776    34919.327     9798.571       16.934        7.301      438.161      137.852        0.099      335.813        6.693      852.853
02/07/2014  16:38:00     -175.087     -180.740       31.602      225.837      204.794      113.173    51002.356    41940.469    12808.053        8.501        5.288      251.640      136.473        0.294      335.840        6.739      852.877
02/07/2014  16:39:00     -465.075     -240.926      -36.128      273.330      188.153       94.940    74709.095    35401.544     9013.695       19.736        5.956      523.775      108.970        0.043      335.735        6.564      852.946
02/07/2014  16:40:00     -413.789     -290.797      -18.491      184.031      143.267       95.452    33867.401    20525.505     9111.107       15.980        3.175      505.751      100.337        0.039      335.711        6.523      852.934
02/07/2014  16:41:00     -459.847     -167.299      -59.759      149.667      151.651       77.289    22400.359    22998.081     5973.557       14.719        2.569      489.335       67.272        0.019      335.677        6.466      852.929
02/07/2014  16:42:00     -370.056      -79.500       10.419      275.352      237.406      119.929    75818.967    56361.536    14382.958       14.494        7.328      378.500      114.675        0.092      335.777        6.634      852.899
02/07/2014  16:43:00     -424.822     -161.915        0.182      214.224      198.386       78.541    45891.777    39356.965     6168.614       14.904        4.571      454.632       88.178        0.038      335.843        6.745      853.027
02/07/2014  16:44:00     -236.159     -122.081       -8.785      199.817      152.660       84.922    39926.743    23305.119     7211.693        7.058        3.522      265.848       94.790        0.127      335.822        6.709      853.059
02/07/2014  16:45:00     -345.760     -156.710       -5.213      224.478      165.794      108.690    50390.230    27487.664    11813.529       11.690        4.485      379.615      127.444        0.113      335.901        6.840      853.032
02/07/2014  16:46:00     -418.348      -90.879       -3.012      176.150      132.165       76.358    31028.837    17467.715     5830.530       11.879        2.716      428.105       77.783        0.033      336.070        7.123      852.945
02/07/2014  16:47:00     -465.219      -60.815      -19.858      228.549      182.479       93.477    52234.467    33298.733     8737.863       15.738        4.714      469.177      117.823        0.063      335.977        6.967      853.005
02/07/2014  16:48:00     -328.914      -35.138       12.273      230.680      140.863       83.855    53213.392    19842.372     7031.709        9.481        4.004      330.786       88.849        0.072      336.013        7.028      853.084
02/07/2014  16:49:00     -405.850     -150.142      -29.968      205.092      170.641       87.983    42062.584    29118.506     7740.953       13.352        3.946      432.732       81.358        0.035      335.959        6.936      853.167
02/07/2014  16:50:00     -336.683     -207.340       13.709      224.568      213.332      121.453    50430.944    45510.398    14750.807       13.359        5.535      395.406      126.677        0.103      335.867        6.784      853.221
02/07/2014  16:51:00     -255.740     -147.709       -8.216      160.759      123.438       81.784    25843.324    15236.834     6688.666        6.752        2.388      295.332       81.413        0.076      335.914        6.861      853.190
02/07/2014  16:52:00     -245.503     -146.658        0.860      110.118      113.929       58.367    12126.072    12979.793     3406.668        5.514        1.426      285.973       59.343        0.043      336.007        7.017      853.210
02/07/2014  16:53:00     -335.082     -230.122       -9.301      181.707      148.746      105.431    33017.321    22125.319    11115.679       11.578        3.313      406.493       83.985        0.043      336.091        7.157      853.241
02/07/2014  16:54:00     -354.985     -195.374        1.620      186.822      189.537       89.612    34902.408    35924.268     8030.379       12.151        3.943      405.197       97.735        0.058      336.049        7.087      853.266
02/07/2014  16:55:00     -305.966     -229.409        2.386      194.945      164.923       89.778    38003.490    27199.463     8060.162       10.974        3.663      382.418       89.791        0.055      336.050        7.088      853.305
02/07/2014  16:56:00     -362.946     -188.216       -2.508      205.951      255.596      107.834    42415.750    65329.502    11628.198       14.324        5.969      408.846      110.452        0.073      335.931        6.891      853.282
02/07/2014  16:57:00     -289.466     -128.695       18.861      261.758      144.206       81.783    68517.309    20795.430     6688.408        9.834        4.800      316.785       96.635        0.093      335.944        6.912      853.266
02/07/2014  16:58:00     -262.414     -238.181       -7.247      143.851      137.973       71.692    20693.119    19036.416     5139.803        8.525        2.243      354.388       70.853        0.040      335.948        6.919      853.253
02/07/2014  16:59:00     -270.002     -213.012      -15.685      196.353      173.818       83.999    38554.305    30212.615     7055.781        9.716        3.791      343.912       93.019        0.073      335.947        6.916      853.174
02/07/2014  17:00:00     -488.828     -287.942       -3.461      199.347      174.398       98.504    39739.337    30414.507     9703.117       20.085        3.993      567.330      105.968        0.035      335.973        6.960      853.214
02/07/2014  17:01:00     -424.530     -202.701       -2.500      207.161      136.279       82.617    42915.674    18572.016     6825.592       14.480        3.416      470.439       89.572        0.036      336.019        7.036      853.137
02/07/2014  17:02:00     -334.145     -143.806      -14.640      141.742      106.274       63.163    20090.748    11294.264     3989.502        8.395        1.769      363.776       70.261        0.037      336.049        7.087      852.966
02/07/2014  17:03:00     -313.498     -146.536      -15.080      113.686      115.679       56.520    12924.620    13381.590     3194.546        7.474        1.475      346.055       53.009        0.023      336.095        7.162      852.971
02/07/2014  17:04:00     -301.893     -149.548       -6.393      161.379      151.358       77.607    26043.245    22909.225     6022.910        8.425        2.749      336.903       84.952        0.064      336.159        7.270      853.097
02/07/2014  17:05:00     -478.589     -264.350      -11.450      280.661      174.855      111.945    78770.606    30574.419    12531.623       21.044        6.094      546.743      117.707        0.046      336.207        7.350      853.202
02/07/2014  17:06:00     -385.657     -218.377      -10.360      171.077      106.326       70.652    29267.253    11305.202     4991.649       12.104        2.278      443.193       81.825        0.034      336.179        7.304      853.216
02/07/2014  17:07:00     -477.785     -312.825      -26.897      254.315      158.307      106.593    64676.368    25060.951    11361.985       21.396        5.055      571.085      116.732        0.042      336.071        7.123      853.245
02/07/2014  17:08:00     -307.701     -112.030        5.139      176.060      153.482       80.126    30997.124    23556.813     6420.256        8.410        3.049      327.460       90.999        0.077      336.080        7.138      853.366
02/07/2014  17:09:00     -298.185     -228.486       14.515      228.910      175.106       91.604    52399.924    30662.270     8391.321       11.637        4.573      375.660       86.435        0.053      336.101        7.174      853.402
02/07/2014  17:10:00     -615.674     -420.836      -17.666      195.773      158.483      104.784    38327.146    25116.908    10979.727       31.543        3.721      745.760       85.542        0.013      336.070        7.122      853.490
02/07/2014  17:11:00     -146.419     -242.490       17.623      162.744      171.688       82.682    26485.763    29476.908     6836.265        7.166        3.140      283.267       80.514        0.081      336.105        7.181      853.400
02/07/2014  17:12:00     -205.135     -139.843       -0.280      176.604      130.766       68.122    31188.981    17099.772     4640.567        5.727        2.646      248.266       68.391        0.076      336.127        7.217      853.340
02/07/2014  17:13:00     -394.581     -254.398      -13.809      172.946      155.853       83.972    29910.475    24290.273     7051.281       14.092        3.063      469.481       98.244        0.044      335.970        6.953      853.460
02/07/2014  17:14:00     -224.198     -182.593        1.366      124.775       97.905       72.773    15568.688     9585.313     5295.928        5.702        1.522      289.145       71.868        0.062      335.981        6.974      853.462
02/07/2014  17:15:00     -335.927     -241.379        8.175      170.107      143.634       88.011    28936.465    20630.809     7745.981       11.423        2.866      413.655       95.110        0.053      335.988        6.986      853.418
02/07/2014  17:16:00     -330.946     -179.347       -8.835      227.026      147.596       97.236    51540.944    21784.708     9454.825       11.226        4.139      376.418      116.300        0.095      335.966        6.948      853.389
02/07/2014  17:17:00     -254.033     -226.598       -7.097      194.100      142.308       78.066    37674.625    20251.451     6094.337        8.996        3.201      340.411       82.635        0.059      335.976        6.965      853.351
02/07/2014  17:18:00     -373.447     -166.935      -15.819      169.317      118.584       68.222    28668.242    14062.145     4654.180       10.747        2.369      409.060       76.673        0.035      335.941        6.906      853.345
02/07/2014  17:19:00     -344.924     -236.345      -16.453      174.968      180.739       83.524    30613.729    32666.658     6976.330       12.267        3.513      418.129       95.751        0.052      335.897        6.834      853.330
02/07/2014  17:20:00     -271.594     -261.250      -19.440      220.776      190.805      123.849    48741.948    36406.723    15338.594       12.142        5.024      376.849      106.800        0.080      335.978        6.969      853.332
02/07/2014  17:21:00     -191.499     -173.834       12.314      202.415      201.661      103.200    40971.782    40667.275    10650.310        7.965        4.614      258.631      104.667        0.164      335.921        6.874      853.346
02/07/2014  17:22:00     -379.809     -229.384      -21.698      269.694      175.608      108.822    72735.050    30838.107    11842.206       15.636        5.771      443.703      112.525        0.064      335.857        6.767      853.290
02/07/2014  17:23:00     -471.304     -232.748      -15.577      299.687      224.147      124.054    89812.555    50241.839    15389.509       21.596        7.772      525.641      151.493        0.083      335.931        6.889      853.257
02/07/2014  17:24:00     -507.829     -211.867      -28.192      290.736      318.709      121.815    84527.285   101575.342    14839.003       25.222       10.047      550.252      135.679        0.061      335.937        6.901      853.143
02/07/2014  17:25:00     -345.107     -239.282        5.031      231.552      156.956       93.159    53616.199    24635.187     8678.544       13.164        4.346      419.946       83.790        0.040      335.916        6.865      853.149
02/07/2014  17:26:00     -317.311     -190.265        9.965      335.696      250.559      106.499   112691.824    62779.648    11341.932       16.186        9.341      369.982      147.258        0.158      335.876        6.799      853.107
02/07/2014  17:27:00     -357.595     -213.541       15.835      248.034      219.521      124.464    61520.801    48189.659    15491.275       14.944        6.260      416.502      135.667        0.106      335.806        6.681      853.097
02/07/2014  17:28:00     -563.761     -112.839      -19.395      377.700      306.638      138.693   142657.543    94027.130    19235.818       29.338       12.796      574.943      183.874        0.102      335.776        6.631      853.117
02/07/2014  17:29:00     -412.765     -197.077       -6.741      330.402      189.019      141.393   109165.594    35728.243    19992.029       18.704        8.244      457.399      175.244        0.147      335.847        6.750      853.145
02/07/2014  17:30:00     -606.324     -319.998      -29.053      285.967      245.415      108.139    81776.910    60228.559    11694.091       31.225        7.685      685.585       98.279        0.021      335.829        6.720      853.210
02/07/2014  17:31:00     -532.314     -220.190       -8.027      278.462      225.303      113.657    77541.262    50761.257    12917.879       23.654        7.061      576.058      128.514        0.050      335.858        6.767      853.105
02/07/2014  17:32:00     -503.631     -286.615      -28.043      286.542      209.202      109.795    82106.218    43765.464    12055.022       23.722        6.896      579.476      120.256        0.043      335.802        6.675      853.108
02/07/2014  17:33:00     -549.270     -232.100      -10.334      318.461      257.317      107.455   101417.165    66212.240    11546.548       26.739        8.959      596.295      125.809        0.045      335.785        6.647      853.011
02/07/2014  17:34:00     -388.495     -213.138      -13.188      219.999      212.760      101.853    48399.499    45266.827    10374.065       15.026        5.202      443.121      109.867        0.061      335.829        6.720      852.918
02/07/2014  17:35:00     -519.957     -235.411       -7.433      265.127      251.699      105.531    70292.577    63352.259    11136.879       23.528        7.239      570.766      119.591        0.044      335.852        6.758      852.988
02/07/2014  17:36:00     -381.420     -176.462        4.938      248.980      204.631      111.529    61990.866    41873.929    12438.774       14.645        5.815      420.262      129.766        0.095      335.728        6.552      853.089
02/07/2014  17:37:00     -157.371      -86.381        9.899      208.813      129.836      101.174    43602.674    16857.510    10236.210        5.150        3.535      179.520       89.249        0.247      335.699        6.504      853.103
02/07/2014  17:38:00     -306.218     -171.997       11.458      213.109      150.593       90.903    45415.313    22678.263     8263.389        9.991        3.818      351.216       94.570        0.073      335.669        6.455      853.187
02/07/2014  17:39:00     -203.942     -149.998       24.272      220.504      142.727      102.546    48622.174    20370.943    10515.584        7.208        3.975      253.164      120.687        0.227      335.698        6.505      853.276
02/07/2014  17:40:00     -491.126     -236.075        3.733      287.572      160.902      122.604    82697.698    25889.470    15031.718       21.026        6.181      544.918      149.450        0.075      335.674        6.461      853.379
02/07/2014  17:41:00     -443.261     -218.157        4.158      299.716      207.679      116.737    89829.604    43130.739    13627.616       19.531        7.329      494.038      148.136        0.090      335.698        6.502      853.482
02/07/2014  17:42:00     -292.817     -231.308        6.065      193.593      183.319       99.090    37478.062    33605.944     9818.879       11.008        4.045      373.156      117.084        0.098      335.724        6.544      853.489
02/07/2014  17:43:00     -273.569      -59.534       -0.370      199.011      161.649       82.378    39605.195    26130.533     6786.172        7.544        3.626      279.972       89.058        0.101      335.737        6.567      853.445
02/07/2014  17:44:00     -545.664     -160.190      -17.697      289.591      195.928       97.113    83862.798    38387.931     9430.977       22.768        6.584      568.692      117.501        0.043      335.689        6.486      853.448
02/07/2014  17:45:00     -385.506     -140.503       -0.334      191.378      163.196      101.206    36625.637    26633.064    10242.639       12.091        3.675      410.312      102.273        0.062      335.678        6.468      853.532
02/07/2014  17:46:00     -548.349      -56.078      -18.787      236.910      236.635      109.638    56126.164    55996.232    12020.500       21.414        6.207      551.209      107.943        0.038      335.597        6.333      853.525
02/07/2014  17:47:00     -365.701     -164.660        1.248      265.461      172.827      111.844    70469.479    29869.055    12509.040       13.683        5.642      401.061      127.722        0.101      335.584        6.312      853.598
02/07/2014  17:48:00     -331.251     -209.397        7.559      227.894      155.971       98.361    51935.817    24327.065     9674.924       11.977        4.297      391.886      111.693        0.081      335.558        6.269      853.571
02/07/2014  17:49:00     -358.477      -62.612        9.452      291.875      209.796      113.566    85191.060    44014.187    12897.227       13.728        7.105      363.904      117.961        0.105      335.522        6.208      853.554
02/07/2014  17:50:00     -485.005     -150.360      -10.735      226.286      292.576      124.342    51205.502    85600.644    15460.967       20.508        7.613      507.777      128.954        0.064      335.490        6.155      853.669
02/07/2014  17:51:00     -343.376      -50.844       -7.267      195.045      175.077       89.299    38042.696    30652.044     7974.261        9.859        3.833      347.120       86.229        0.062      335.415        6.031      853.735
02/07/2014  17:52:00     -482.131      -20.739       -9.533      313.623      149.713      108.492    98359.268    22413.975    11770.541       18.273        6.627      482.577      136.199        0.080      335.359        5.936      853.558
02/07/2014  17:53:00     -399.721     -179.670      -20.016      181.116      130.748       80.541    32803.112    17095.100     6486.869       12.441        2.819      438.244       78.074        0.032      335.407        6.016      853.586
02/07/2014  17:54:00     -213.796     -174.277       -2.359      140.829      120.796       66.085    19832.727    14591.757     4367.244        5.743        1.940      275.828       75.906        0.076      335.411        6.024      853.569
02/07/2014  17:55:00     -316.230     -157.268       -1.535      166.245      120.886       78.849    27637.405    14613.314     6217.178        8.659        2.423      353.178       85.282        0.058      335.402        6.009      853.571
02/07/2014  17:56:00     -263.777     -184.483       -4.487      190.705      133.625       77.603    36368.353    17855.735     6022.245        8.193        3.012      321.889       84.592        0.069      335.435        6.065      853.618
02/07/2014  17:57:00     -185.974     -303.514       10.821      129.296      199.538       68.229    16717.393    39815.285     4655.217        9.399        3.059      355.960       72.298        0.041      335.498        6.168      853.675
02/07/2014  17:58:00      -98.818     -201.541      -15.716      116.842      166.708       58.975    13652.077    27791.695     3478.078        4.777        2.246      224.463       68.261        0.092      335.596        6.334      853.645
02/07/2014  17:59:00     -185.509     -126.330       11.389      172.221      100.110       80.850    29660.074    10021.998     6536.741        4.835        2.311      224.439       90.831        0.164      335.494        6.164      853.633
02/07/2014  18:00:00     -351.100      -35.402       -7.933      226.125      162.523       90.209    51132.581    26413.807     8137.711       10.512        4.284      352.880       97.918        0.077      335.509        6.186      853.564
02/07/2014  18:01:00     -444.591     -265.293      -37.648      147.987      174.844       70.443    21900.051    30570.331     4962.192       16.343        2.872      517.727       74.778        0.021      335.537        6.232      853.513
02/07/2014  18:02:00     -434.380     -299.478       -8.762      201.181      180.331       99.326    40473.945    32519.261     9865.664       18.064        4.143      527.611      109.306        0.043      335.641        6.407      853.609
02/07/2014  18:03:00     -315.526     -191.986      -13.714      198.010      214.264       72.083    39208.059    45909.020     5195.976       11.344        4.516      369.344       74.404        0.041      335.813        6.692      853.755
02/07/2014  18:04:00     -485.242      -50.202      -24.631      196.620      183.863       73.497    38659.503    33805.754     5401.792       15.821        3.893      487.832       85.723        0.031      335.554        6.262      853.715
02/07/2014  18:05:00     -339.457      -45.930      -22.278      109.447      120.153       60.375    11978.711    14436.747     3645.173        7.394        1.503      342.550       46.916        0.019      335.563        6.276      853.681
02/07/2014  18:06:00     -146.687     -132.987       13.509      114.523      149.923       57.603    13115.584    22476.834     3318.080        3.914        1.946      197.997       63.658        0.103      335.595        6.332      853.787
02/07/2014  18:07:00     -246.343     -123.738      -10.164      131.338      127.434       58.689    17249.764    16239.421     3444.377        5.651        1.847      275.674       59.796        0.047      335.643        6.409      853.738
02/07/2014  18:08:00     -125.647      -61.726        2.574      134.549       96.110       60.031    18103.328     9237.161     3603.758        2.527        1.547      139.990       67.549        0.233      335.692        6.493      853.669
02/07/2014  18:09:00     -173.727     -180.372        6.335      139.243      118.477       72.977    19388.651    14036.841     5325.622        5.075        1.938      250.430       72.187        0.083      335.710        6.523      853.813
02/07/2014  18:10:00     -101.664     -197.723       13.109       95.342      129.453       43.337     9090.005    16758.148     1878.114        3.866        1.386      222.328       40.837        0.034      335.731        6.557      853.901
02/07/2014  18:11:00     -267.726     -136.153       -0.982      233.021      123.191       80.691    54298.830    15176.033     6511.003        8.309        3.799      300.358      106.885        0.127      335.742        6.575      853.928
02/07/2014  18:12:00     -329.997     -114.927      -38.032      202.671      132.462       86.139    41075.334    17546.128     7419.850        9.478        3.302      349.437       77.721        0.049      335.853        6.762      853.843
02/07/2014  18:13:00     -248.653     -258.680      -15.064      157.663      140.026       79.092    24857.645    19607.166     6255.507        8.984        2.536      358.808       85.984        0.057      335.804        6.678      853.823
02/07/2014  18:14:00     -100.221     -157.983       -9.792      123.412      171.916       51.490    15230.600    29555.278     2651.208        4.126        2.372      187.091       49.679        0.071      335.992        6.991      854.002
02/07/2014  18:15:00     -105.942      -92.234       13.363      121.138       88.674       55.432    14674.325     7863.131     3072.680        2.275        1.281      140.466       32.915        0.055      335.960        6.940      853.850
02/07/2014  18:16:00     -175.354      -88.959        0.942       92.461       89.317       56.000     8549.041     7977.606     3135.992        2.916        0.983      196.628       42.977        0.048      335.690        6.490      853.839
02/07/2014  18:17:00     -238.163     -247.762        6.788      213.309      140.525       72.032    45500.900    19747.175     5188.636        9.428        3.522      343.668       86.473        0.063      335.650        6.423      853.856
02/07/2014  18:18:00     -228.807     -169.154       10.172      221.157      128.235       70.635    48910.546    16444.139     4989.271        7.569        3.517      284.545       96.477        0.115      335.574        6.296      853.847
02/07/2014  18:19:00     -179.282     -150.638        4.756      133.200      114.788       56.716    17742.166    13176.190     3216.654        4.449        1.707      234.166       68.149        0.085      335.605        6.347      853.924
02/07/2014  18:20:00     -422.786     -211.559      -27.440      176.305      115.030       67.883    31083.299    13231.871     4608.034       13.658        2.446      472.763       64.912        0.019      335.582        6.308      853.964
02/07/2014  18:21:00     -288.365     -112.386      -28.730      191.926      123.819       57.922    36835.725    15331.084     3354.903        7.605        2.776      309.491       70.535        0.052      335.530        6.222      853.890
02/07/2014  18:22:00     -122.632     -111.647       14.352      101.689       90.080       49.418    10340.643     8114.413     2442.185        2.430        1.045      165.842       52.229        0.099      335.560        6.274      853.889
02/07/2014  18:23:00      -27.562     -183.732       11.406       87.532      178.282       53.807     7661.835    31784.597     2895.150        3.849        2.117      185.788       61.749        0.110      335.960        6.939      853.867
02/07/2014  18:24:00     -159.080      -55.870       -4.660       83.967       93.591       43.870     7050.494     8759.266     1924.602        2.309        0.887      168.606       44.636        0.070      335.764        6.613      853.737
02/07/2014  18:25:00     -143.003     -110.027       19.436      149.108      117.892       80.527    22233.069    13898.587     6484.538        3.777        2.131      180.432       75.169        0.174      335.604        6.347      853.625
02/07/2014  18:26:00     -199.142     -107.166       -9.623      121.951      128.281       64.519    14872.012    16456.055     4162.639        4.336        1.775      226.146       70.293        0.097      335.586        6.315      853.638
02/07/2014  18:27:00     -448.991     -125.816      -28.267      124.382      120.264       62.601    15470.933    14463.377     3918.922       12.603        1.693      466.286       59.569        0.016      335.597        6.333      853.610
02/07/2014  18:28:00     -295.672     -162.536       -6.928      151.124      109.010       73.948    22838.556    11883.141     5468.236        7.703        2.009      337.401       77.347        0.053      335.590        6.322      853.640
02/07/2014  18:29:00     -208.564     -131.788       10.385      163.814      140.948       63.420    26834.943    19866.248     4022.105        5.584        2.536      246.712       58.139        0.056      335.716        6.532      853.729
02/07/2014  18:30:00     -168.832     -106.737       10.969      168.011      149.316       62.381    28227.648    22295.217     3891.334        4.720        2.721      199.742       54.981        0.076      335.724        6.547      853.513
02/07/2014  18:31:00     -301.452     -147.018      -13.390      233.143      151.215      110.079    54355.795    22865.971    12117.412       10.099        4.467      335.391      113.079        0.114      335.711        6.524      853.528
02/07/2014  18:32:00     -393.837     -196.863      -15.920      111.878      101.778       63.721    12516.600    10358.711     4060.383       11.052        1.347      440.298       57.042        0.017      335.749        6.587      853.665
02/07/2014  18:33:00     -292.658     -242.929       -5.130      185.627      147.898       86.816    34457.399    21873.820     7537.079       10.427        3.193      380.346       81.786        0.046      335.784        6.646      853.561
02/07/2014  18:34:00     -393.424      -76.995      -19.522      191.254      147.227       72.684    36578.069    21675.899     5282.974       11.230        3.177      400.888       83.824        0.044      335.802        6.674      853.450
02/07/2014  18:35:00     -406.711     -194.498       -0.348      237.601      191.058       92.985    56454.144    36503.349     8646.203       15.240        5.080      450.825      114.445        0.064      335.870        6.789      853.682
02/07/2014  18:36:00     -293.232     -139.605       16.398      168.841      203.242       88.426    28507.450    41307.323     7819.203        9.167        3.882      324.768       86.855        0.072      335.871        6.792      853.656
02/07/2014  18:37:00     -348.466     -210.586        3.245      274.335      190.221      106.851    75259.500    36184.214    11417.106       14.430        6.143      407.155      125.791        0.095      336.208        7.353      853.694
02/07/2014  18:38:00     -241.592     -266.704       -7.804      155.746      163.334       77.773    24256.732    26677.884     6048.619        9.326        2.849      359.858       80.505        0.050      336.165        7.282      853.772
02/07/2014  18:39:00     -262.075     -182.380       -7.427      215.640      142.374       88.397    46500.652    20270.476     7813.999        8.828        3.729      319.289      111.662        0.122      336.003        7.012      853.718
02/07/2014  18:40:00     -449.680      -53.685      -14.101      245.226      152.799       97.584    60135.562    23347.624     9522.653       14.913        4.650      452.873      109.183        0.058      335.785        6.645      853.769
02/07/2014  18:41:00     -293.739      -67.630      -22.461      124.910       99.965       52.915    15602.507     9992.981     2799.974        5.987        1.420      301.424       37.589        0.016      335.744        6.577      853.708
02/07/2014  18:42:00     -256.881     -127.563       -7.585      169.369      150.793       71.380    28685.940    22738.491     5095.036        6.941        2.826      286.810       86.384        0.091      335.727        6.551      853.600
02/07/2014  18:43:00     -412.368      -61.851      -23.877      153.701      155.389       78.020    23624.072    24145.637     6087.170       11.414        2.693      416.981       68.329        0.027      335.698        6.502      853.596
02/07/2014  18:44:00     -261.275     -167.750       -8.009      177.680      156.878       78.220    31570.280    24610.579     6118.395        7.937        3.115      310.491       83.240        0.072      335.667        6.449      853.509
02/07/2014  18:45:00     -333.842     -188.811       -0.350      239.072      189.189      118.029    57155.205    35792.372    13930.728       12.697        5.344      383.536      134.676        0.123      335.654        6.428      853.532
02/07/2014  18:46:00     -234.863     -247.187        1.605      211.363      179.412      109.731    44674.361    32188.617    12040.798       10.257        4.445      340.972      112.222        0.108      335.672        6.458      853.529
02/07/2014  18:47:00     -347.923     -220.494       -0.945      277.364      183.316      117.923    76930.628    33604.720    13905.952       14.703        6.222      411.907      147.221        0.128      335.663        6.443      853.467
02/07/2014  18:48:00     -412.115     -153.807       -6.190      216.523      213.357       92.877    46882.101    45521.381     8626.207       14.726        5.051      439.882       89.222        0.041      335.656        6.431      853.476
02/07/2014  18:49:00     -326.562     -187.609       -0.482      212.805      162.852       87.041    45285.857    26520.626     7576.173       11.060        3.969      376.617       83.965        0.050      335.685        6.480      853.483
02/07/2014  18:50:00     -501.394     -162.478      -29.806      271.678      198.707      109.642    73808.872    39484.470    12021.317       20.197        6.266      527.063      131.998        0.063      335.655        6.430      853.503
02/07/2014  18:51:00     -425.134     -311.923      -16.302      278.236      233.260      111.386    77415.310    54410.438    12406.932       21.124        7.212      527.291      117.189        0.049      335.691        6.491      853.616
02/07/2014  18:52:00     -374.910     -159.453       -0.471      272.156      192.669      127.866    74068.686    37121.304    16349.821       14.674        6.377      407.410      149.834        0.135      335.703        6.510      853.654
02/07/2014  18:53:00     -507.055     -146.349      -42.703      240.420      277.887      110.427    57801.553    77221.016    12194.151       21.375        7.361      527.752      127.365        0.058      335.709        6.519      853.620
02/07/2014  18:54:00     -295.087      -48.117       26.663      247.045      190.748      102.278    61031.119    36384.647    10460.715        9.897        5.394      298.985      111.026        0.138      335.723        6.544      853.667
02/07/2014  18:55:00     -414.846     -196.312      -18.418      176.594      194.133       92.067    31185.435    37687.445     8476.326       14.415        3.867      458.951       98.633        0.046      335.732        6.558      853.645
02/07/2014  18:56:00     -400.559     -118.364        5.570      254.782      213.858       98.267    64914.024    45735.208     9656.410       14.737        6.015      417.681      122.816        0.086      335.716        6.532      853.648
02/07/2014  18:57:00     -514.446     -193.646        4.787      296.303      285.016      133.576    87795.686    81233.847    17842.623       24.449        9.344      549.685      148.984        0.073      335.742        6.575      853.694
02/07/2014  18:58:00     -398.370     -180.968       -1.887      240.445      187.468      108.393    57813.872    35144.182    11749.090       14.806        5.235      437.547      123.520        0.080      335.786        6.649      853.770
02/07/2014  18:59:00     -355.502     -189.463        4.307      335.114      240.183      118.482   112301.606    57687.776    14038.002       17.313        9.201      402.837      163.774        0.165      335.764        6.612      853.727
02/07/2014  19:00:00     -561.712     -241.863      -19.249      268.268      244.714      112.660    71967.770    59885.157    12692.333       25.944        7.227      611.570      129.196        0.045      335.729        6.553      853.734
02/07/2014  19:01:00     -306.502     -171.810       13.678      264.951      177.360      106.585    70198.868    31456.476    11360.323       11.831        5.651      351.372      120.069        0.117      335.708        6.519      853.777
02/07/2014  19:02:00     -514.797      -71.011        2.633      291.098      195.171      105.098    84737.764    38091.626    11045.495       20.194        6.694      519.672      130.652        0.063      335.707        6.516      853.763
02/07/2014  19:03:00     -177.246     -107.810       24.525      189.380      190.194       93.177    35864.617    36173.658     8681.982        6.216        4.036      207.459       90.652        0.191      335.691        6.491      853.817
02/07/2014  19:04:00     -513.536     -224.964      -14.910      300.416      213.395      121.498    90249.493    45537.375    14761.826       23.252        7.527      560.650      135.689        0.059      335.670        6.456      853.772
02/07/2014  19:05:00     -560.589     -163.101      -25.273      290.472      228.487      107.132    84373.787    52206.333    11477.161       24.475        7.403      583.833      105.567        0.033      335.653        6.427      853.825
02/07/2014  19:06:00     -208.868      -81.700       11.382      244.029      183.551      124.644    59550.149    33690.956    15536.153        7.958        5.439      224.278      143.998        0.412      335.673        6.461      853.684
02/07/2014  19:07:00     -533.144      -77.830      -26.714      334.083      223.464      117.247   111611.562    49936.069    13746.857       23.312        8.765      538.795      140.918        0.068      335.624        6.380      853.676
02/07/2014  19:08:00     -483.959     -225.808      -24.866      255.090      208.445      109.031    65070.692    43449.294    11887.655       20.309        6.020      534.046      108.211        0.041      335.629        6.387      853.739
02/07/2014  19:09:00     -366.537     -207.203       11.347      271.225      210.967      129.645    73562.827    44507.259    16807.701       15.612        6.744      421.049      129.598        0.095      335.653        6.426      853.688
02/07/2014  19:10:00     -454.493     -215.558      -11.156      247.773      246.397      125.902    61391.341    60711.585    15851.202       19.553        6.898      503.020      124.252        0.061      335.666        6.449      853.606
02/07/2014  19:11:00     -461.427     -235.199        2.814      301.983      262.201      135.934    91193.908    68749.266    18478.016       22.330        8.921      517.913      147.523        0.081      335.662        6.440      853.519
02/07/2014  19:12:00     -513.264     -217.355      -40.494      311.778      210.741      119.803    97205.455    44411.728    14352.822       23.412        7.799      557.389      152.667        0.075      335.652        6.425      853.617
02/07/2014  19:13:00     -446.601      -92.524       -2.761      241.643      160.675      119.125    58391.580    25816.508    14190.722       15.319        4.920      456.085      134.570        0.087      335.649        6.420      853.617
02/07/2014  19:14:00     -453.665     -120.846       -1.439      353.093      229.833      125.128   124674.333    52822.986    15657.006       20.675        9.658      469.485      127.439        0.074      335.685        6.479      853.613
02/07/2014  19:15:00     -566.524     -111.142      -36.964      321.314      280.001      118.134   103242.682    78400.538    13955.738       26.509        9.780      577.323      133.027        0.053      335.711        6.523      853.586
02/07/2014  19:16:00     -402.621     -345.397      -39.224      296.162      267.564      127.580    87712.128    71590.313    16276.564       22.923        8.779      530.474      155.874        0.086      335.695        6.497      853.592
02/07/2014  19:17:00     -541.693     -362.702      -15.512      286.424      225.942      122.129    82038.753    51049.607    14915.594       28.658        7.400      651.908      137.977        0.045      335.676        6.464      853.538
02/07/2014  19:18:00     -690.637     -182.239      -31.312      359.610      235.001      110.733   129319.026    55225.688    12261.778       35.395        9.840      714.276      150.672        0.044      335.666        6.448      853.488
02/07/2014  19:19:00     -418.749     -190.573      -25.859      226.084      194.279       97.114    51113.995    37744.146     9431.139       15.529        4.914      460.075      108.393        0.056      335.713        6.526      853.413
02/07/2014  19:20:00     -361.082     -202.493        1.790      229.126      204.919      118.247    52498.582    41991.998    13982.257       13.991        5.424      413.985      132.410        0.102      335.689        6.486      853.359
02/07/2014  19:21:00     -404.601     -160.155      -15.512      246.654      226.593      103.881    60838.178    51344.400    10791.363       15.626        6.149      435.146      113.685        0.068      335.669        6.454      853.349
02/07/2014  19:22:00     -643.398     -237.426      -44.016      319.046      257.267      116.585   101790.458    66186.420    13591.955       32.688        9.078      685.807      130.519        0.036      335.686        6.482      853.314
02/07/2014  19:23:00     -615.143     -203.606      -16.468      229.750      183.173       96.240    52784.948    33552.245     9262.228       25.784        4.780      647.963       88.067        0.018      335.721        6.540      853.338
02/07/2014  19:24:00     -408.639     -194.953      -12.401      208.301      163.094       83.579    43389.361    26599.572     6985.397       14.105        3.849      452.762       81.497        0.032      335.680        6.471      853.335
02/07/2014  19:25:00     -479.234     -304.280       -4.231      318.506      278.777      135.993   101445.919    77716.672    18493.966       25.992        9.883      567.672      150.719        0.070      335.691        6.491      853.393
02/07/2014  19:26:00     -357.085     -191.312       -4.608      288.998      256.975      118.572    83519.872    66035.911    14059.289       16.384        8.181      405.105      127.584        0.099      335.699        6.504      853.379
02/07/2014  19:27:00     -476.685     -127.383       -7.195      284.412      224.192      102.543    80890.418    50262.265    10515.048       19.256        7.083      493.412      131.080        0.071      335.661        6.440      853.374
02/07/2014  19:28:00     -445.100     -145.358        2.883      256.940      202.820      115.899    66018.273    41136.139    13432.639       16.990        6.029      468.234      118.026        0.064      335.693        6.492      853.492
02/07/2014  19:29:00     -380.404     -179.226       17.933      357.355      184.818      132.590   127702.310    34157.670    17580.132       17.826        8.972      420.511      173.700        0.171      335.744        6.579      853.372
02/07/2014  19:30:00     -319.809     -212.689      -15.171      339.519      226.648      137.955   115273.334    51369.378    19031.658       16.667        9.284      384.076      162.330        0.179      335.745        6.581      853.343
02/07/2014  19:31:00     -364.925     -254.292       -2.319      227.435      223.474      120.510    51726.854    49940.556    14522.684       15.699        5.810      444.786      120.157        0.073      335.791        6.657      853.466
02/07/2014  19:32:00     -507.628     -237.568      -14.278      252.564      197.239      123.053    63788.822    38903.139    15142.021       21.606        5.892      560.468      126.716        0.051      335.813        6.694      853.498
02/07/2014  19:33:00     -600.321     -185.533       -0.749      333.888      190.802      115.869   111480.896    36405.557    13425.576       27.803        8.066      628.337      149.050        0.056      335.776        6.632      853.463
02/07/2014  19:34:00     -645.168     -126.791      -34.670      364.991      261.546      141.699   133218.648    68406.120    20078.661       32.757       11.085      657.509      180.227        0.075      335.807        6.683      853.514
02/07/2014  19:35:00     -666.034     -175.596      -27.872      316.335      213.209      109.439   100067.627    45457.948    11976.970       31.633        7.875      688.792      110.140        0.026      335.785        6.647      853.488
02/07/2014  19:36:00     -348.442     -256.137       -4.414      241.553      168.748      120.403    58347.750    28476.008    14496.870       14.416        5.066      432.456      130.287        0.091      335.801        6.674      853.508
02/07/2014  19:37:00     -662.186     -244.926      -11.052      372.507      240.629      140.611   138761.190    57902.114    19771.447       35.748       10.822      706.030      157.101        0.050      335.817        6.700      853.479
02/07/2014  19:38:00     -328.791     -172.414       13.987      349.611      268.769      136.442   122227.614    72236.939    18616.356       17.551       10.654      371.255      182.448        0.242      335.834        6.729      853.473
02/07/2014  19:39:00     -691.957     -332.080      -51.964      263.334      210.161      102.740    69344.706    44167.529    10555.517       35.790        6.203      767.516      109.921        0.021      335.875        6.797      853.548
02/07/2014  19:40:00     -558.021     -185.665      -20.640      256.591      211.951      113.033    65838.963    44923.144    12776.351       23.489        6.177      588.097      113.753        0.037      335.897        6.833      853.453
02/07/2014  19:41:00     -553.851     -255.972      -42.471      366.126      237.197      123.670   134047.952    56262.347    15294.200       28.980       10.280      610.141      140.700        0.053      335.948        6.920      853.495
02/07/2014  19:42:00     -367.952     -133.511       -2.638      254.429      221.777      130.749    64734.245    49185.213    17095.228       14.209        6.551      391.426      137.496        0.123      335.944        6.911      853.620
02/07/2014  19:43:00     -407.911     -184.237      -16.646      219.374      221.228       94.926    48124.933    48941.713     9010.853       15.332        5.304      447.588      109.667        0.060      335.953        6.927      853.670
02/07/2014  19:44:00     -460.805     -181.537       -9.874      273.187      200.090      104.372    74631.038    40036.192    10893.511       18.545        6.278      495.275      105.606        0.045      335.911        6.857      853.680
02/07/2014  19:45:00     -459.285     -187.602      -23.644      229.565      199.144      102.457    52700.128    39658.286    10497.427       17.476        5.143      496.123      107.145        0.047      335.908        6.852      853.653
02/07/2014  19:46:00     -621.255     -106.123      -10.838      269.714      193.706      101.388    72745.376    37521.963    10279.486       25.892        6.027      630.254      117.772        0.035      335.939        6.903      853.584
02/07/2014  19:47:00     -182.642      -90.135       43.845      250.762      205.729      132.128    62881.632    42324.444    17457.798        8.301        6.133      203.673      145.267        0.509      335.938        6.902      853.620
02/07/2014  19:48:00     -364.051      -86.670      -10.960      279.313      220.998      130.944    78015.553    48840.025    17146.429       14.206        7.200      374.226      146.662        0.154      335.961        6.940      853.664
02/07/2014  19:49:00     -590.093     -218.683      -24.444      275.300      283.249      135.204    75789.828    80230.053    18280.077       28.543        8.715      629.311      159.890        0.065      335.942        6.909      853.715
02/07/2014  19:50:00     -604.417     -345.105      -26.769      345.905      247.490      131.191   119650.131    61251.294    17211.107       34.158        9.906      696.001      155.270        0.050      335.942        6.908      853.673
02/07/2014  19:51:00     -391.417     -107.653       -3.327      272.295      147.544      108.227    74144.709    21769.165    11713.170       13.620        5.381      405.951      123.662        0.093      335.923        6.878      853.718
02/07/2014  19:52:00     -725.470     -308.269      -38.987      327.768      271.992      142.130   107431.773    73979.805    20201.029       41.219       10.081      788.248      157.275        0.040      336.011        7.023      853.685
02/07/2014  19:53:00     -600.248     -133.932        4.470      402.576      234.631      146.741   162067.176    55051.932    21532.977       30.841       11.933      615.009      183.959        0.089      336.010        7.022      853.672
02/07/2014  19:54:00     -722.767     -205.779       -5.996      318.110      304.994      155.890   101193.666    93021.058    24301.561       39.160       10.926      751.490      157.104        0.044      335.996        6.998      853.691
02/07/2014  19:55:00     -423.900     -266.131      -15.008      301.154      256.162      165.882    90693.821    65618.864    27516.857       21.725        9.191      500.516      175.826        0.123      336.006        7.015      853.674
02/07/2014  19:56:00     -491.342     -276.815      -13.655      361.419      268.234      156.361   130623.382    71949.381    24448.619       27.258       11.351      563.954      191.206        0.115      336.004        7.011      853.703
02/07/2014  19:57:00     -434.438     -188.588        5.735      249.044      210.772      118.011    62022.680    44424.711    13926.659       17.233        6.019      473.605      137.965        0.085      336.015        7.030      853.642
02/07/2014  19:58:00     -628.631     -240.052      -55.839      357.854      289.355      157.275   128059.155    83726.094    24735.287       34.617       11.826      672.905      167.774        0.062      336.033        7.060      853.684
02/07/2014  19:59:00     -512.459     -228.605      -10.607      335.883      227.707      140.465   112817.352    51850.415    19730.402       24.966        9.220      561.137      140.416        0.063      336.080        7.139      853.553
02/07/2014  20:00:00     -760.494     -189.159      -30.641      411.559      273.210      133.394   169381.045    74643.472    17793.986       43.839       13.091      783.666      176.018        0.050      336.046        7.082      853.624
02/07/2014  20:01:00     -499.452     -131.099      -12.768      301.144      212.443      112.568    90687.477    45132.116    12671.613       20.762        7.425      516.371      134.876        0.068      336.142        7.241      853.602
02/07/2014  20:02:00     -451.653     -198.937       -0.335      295.604      240.141      113.006    87381.695    57667.873    12770.446       20.066        7.891      493.524      131.090        0.071      336.066        7.114      853.679
02/07/2014  20:03:00     -357.180     -302.611        9.405      308.735      245.616      157.090    95317.431    60326.998    24677.172       19.975        9.016      468.136      190.111        0.165      335.986        6.983      853.716
02/07/2014  20:04:00     -571.301     -230.950      -22.414      300.072      232.958      118.014    90043.299    54269.456    13927.320       26.920        7.912      616.216      119.643        0.038      335.948        6.918      853.657
02/07/2014  20:05:00     -507.937     -167.427       -8.131      309.171      217.181      126.658    95586.771    47167.657    16042.371       22.242        7.940      534.820      139.725        0.068      335.943        6.909      853.760
02/07/2014  20:06:00     -629.122      -98.945      -22.512      242.921      205.982      124.097    59010.625    42428.576    15400.046       26.144        5.842      636.856      127.733        0.040      335.932        6.892      853.841
02/07/2014  20:07:00     -293.638     -209.795       11.051      207.962      182.383      107.363    43248.135    33263.481    11526.843       10.918        4.402      360.884      120.417        0.111      335.930        6.889      853.792
02/07/2014  20:08:00     -513.252     -292.170      -18.902      289.412      209.519      135.471    83759.076    43898.198    18352.508       24.755        7.300      590.585      161.856        0.075      335.980        6.972      853.809
02/07/2014  20:09:00     -645.352     -245.188       -1.630      301.427      297.289      134.337    90858.472    88380.931    18046.373       33.690        9.864      690.360      167.528        0.059      336.031        7.056      853.639
02/07/2014  20:10:00     -555.276     -273.195      -28.789      309.717      208.109      127.611    95924.706    43309.475    16284.666       26.963        7.776      618.843      124.562        0.041      336.006        7.017      853.744
02/07/2014  20:11:00     -500.251     -165.871      -26.235      312.893      232.468      157.503    97902.215    54041.391    24807.113       22.757        8.838      527.034      161.375        0.094      335.960        6.938      853.833
02/07/2014  20:12:00     -521.163     -187.127      -57.519      209.094      196.574      106.929    43720.092    38641.157    11433.830       20.185        4.690      553.740       88.188        0.025      335.957        6.934      853.800
02/07/2014  20:13:00     -588.604     -368.966       -1.974      257.904      202.426      117.037    66514.385    40976.126    13697.690       30.187        6.059      694.688      125.661        0.033      335.970        6.954      853.845
02/07/2014  20:14:00     -374.479     -143.717      -13.965      239.397      180.788       80.753    57310.939    32684.465     6521.060       12.878        4.826      401.110       90.699        0.051      335.990        6.990      853.824
02/07/2014  20:15:00     -652.974     -134.196      -29.066      299.466      228.116      129.975    89680.157    52036.732    16893.455       30.189        7.931      666.621      140.930        0.045      335.967        6.950      853.836
02/07/2014  20:16:00     -561.039     -116.644      -29.494      236.611      160.358       95.103    55984.916    25714.841     9044.493       20.997        4.537      573.036      113.475        0.039      335.983        6.977      853.838
02/07/2014  20:17:00     -610.197     -339.238      -29.434      303.094      192.296      125.649    91865.788    36977.612    15787.778       31.643        7.232      698.157      152.906        0.048      336.023        7.044      853.834
02/07/2014  20:18:00     -414.667     -255.106       -6.685      254.408      231.471      118.634    64723.425    53578.659    14074.073       18.470        6.619      486.855      112.688        0.054      336.042        7.074      853.915
02/07/2014  20:19:00     -565.097     -374.612      -40.293      282.904      171.042      101.022    80034.794    29255.480    10205.531       29.037        5.975      677.989      124.488        0.034      336.026        7.047      853.933
02/07/2014  20:20:00     -545.879     -198.371      -16.165      313.104      242.808      127.801    98034.151    58955.837    16333.050       25.543        8.666      580.806      148.593        0.065      336.152        7.260      853.934
02/07/2014  20:21:00     -440.050     -250.659       -0.128      253.297      198.882      106.044    64159.470    39554.166    11245.333       18.569        5.748      506.432      114.920        0.051      336.194        7.328      854.028
02/07/2014  20:22:00     -510.306     -187.441      -26.944      296.717      231.294      120.986    88040.687    53497.052    14637.603       22.619        7.809      543.642      130.087        0.057      336.204        7.346      854.043
02/07/2014  20:23:00     -546.419     -286.038       -8.987      267.139      211.595      124.087    71363.318    44772.497    15397.533       25.598        6.577      616.759      128.099        0.043      336.269        7.454      854.068
02/07/2014  20:24:00     -680.543     -297.311      -26.797      299.280      292.527      128.882    89568.673    85571.908    16610.480       37.196        9.588      742.652      148.553        0.040      336.303        7.511      854.069
02/07/2014  20:25:00     -585.765     -451.608      -10.891      318.379      263.585      152.769   101365.067    69476.864    23338.439       37.065        9.709      739.642      164.843        0.050      336.371        7.623      854.000
02/07/2014  20:26:00     -518.397     -381.938      -12.790      301.562      189.920      120.584    90939.804    36069.749    14540.401       27.813        7.077      643.904      154.145        0.057      336.301        7.506      854.059
02/07/2014  20:27:00     -443.624     -218.339       -2.318      270.299      237.274      114.046    73061.690    56299.093    13006.599       19.339        7.118      494.443      119.752        0.059      336.244        7.412      854.061
02/07/2014  20:28:00     -636.455     -390.314      -36.038      365.527      238.877      136.765   133609.636    57062.357    18704.626       38.401       10.469      746.606      148.208        0.039      336.271        7.457      854.105
02/07/2014  20:29:00     -509.583     -236.452       -8.069      287.906      241.663      123.647    82890.001    58401.184    15288.542       23.608        7.829      561.769      129.234        0.053      336.225        7.380      854.097
02/07/2014  20:30:00     -492.363     -330.500        1.084      277.273      202.503      130.780    76880.456    41007.505    17103.418       24.329        6.750      593.002      153.578        0.067      336.193        7.328      854.193
02/07/2014  20:31:00     -583.249     -108.551       -6.157      341.197      217.515      137.199   116415.556    47312.604    18823.515       26.724        9.128      593.264      164.389        0.077      336.118        7.200      854.173
02/07/2014  20:32:00     -536.413     -345.726       -9.499      357.558      252.017      128.628   127848.011    63512.607    16545.245       30.759       10.395      638.174      151.626        0.056      336.109        7.187      854.139
02/07/2014  20:33:00     -483.476     -285.196       -1.152      327.658      248.628      142.371   107359.684    61815.969    20269.442       25.223        9.472      561.325      165.013        0.086      336.065        7.113      854.161
02/07/2014  20:34:00     -375.165     -136.743       30.832      327.874      224.824      133.591   107501.514    50545.781    17846.585       16.811        8.795      399.309      160.569        0.162      336.043        7.076      854.154
02/07/2014  20:35:00     -479.134     -268.101      -20.223      225.347      233.073       91.797    50781.099    54323.202     8426.733       20.767        5.677      549.042      108.753        0.039      336.003        7.011      854.244
02/07/2014  20:36:00     -526.683     -301.331       -0.894      232.199      173.646      112.552    53916.203    30153.100    12667.875       23.245        4.837      606.791      102.949        0.029      336.006        7.015      854.244
02/07/2014  20:37:00     -398.004     -235.216       -9.297      225.274      179.408      101.615    50748.298    32187.381    10325.608       15.352        4.663      462.314       90.491        0.038      336.035        7.064      854.341
02/07/2014  20:38:00     -359.400     -273.895      -15.784      224.183      169.605       91.656    50258.102    28765.846     8400.894       14.591        4.371      451.870      103.404        0.052      336.070        7.122      854.360
02/07/2014  20:39:00     -398.511     -192.168      -26.522      244.211      145.822       96.689    59639.155    21264.190     9348.742       14.333        4.513      442.425      104.067        0.055      336.066        7.115      854.432
02/07/2014  20:40:00     -330.812     -135.594       -0.539      184.683      185.333       89.918    34107.978    34348.444     8085.160       10.217        3.827      357.522       87.433        0.060      336.072        7.125      854.451
02/07/2014  20:41:00     -423.270     -202.928      -12.358      202.273      154.076       90.920    40914.210    23739.450     8266.388       14.669        3.646      469.401      101.315        0.047      336.164        7.278      854.480
02/07/2014  20:42:00     -405.137     -161.797        4.526      266.030      182.682      111.638    70771.738    33372.846    12463.088       15.345        5.830      436.251      119.156        0.075      336.219        7.371      854.473
02/07/2014  20:43:00     -539.274     -273.723       -9.459      236.322      191.194       95.149    55848.003    36555.157     9053.294       23.362        5.073      604.765      110.196        0.033      336.272        7.457      854.559
02/07/2014  20:44:00     -556.338      -34.079       -5.819      322.712      246.119      114.205   104142.839    60574.616    13042.788       24.420        8.888      557.381      146.299        0.069      336.229        7.387      854.577
02/07/2014  20:45:00     -338.085     -156.925      -19.946      251.529      180.754       76.310    63266.796    32671.947     5823.219       12.052        5.088      372.729       94.779        0.065      336.230        7.390      854.594
02/07/2014  20:46:00     -498.359     -295.524       -9.469      242.124      180.841      110.770    58623.953    32703.523    12270.015       21.967        5.180      579.393      114.408        0.039      336.204        7.346      854.604
02/07/2014  20:47:00     -305.016     -146.750       -9.636      193.869      150.346       88.853    37585.127    22603.785     7894.807        9.136        3.404      338.483       93.620        0.077      336.193        7.328      854.705
02/07/2014  20:48:00     -338.567     -174.577      -12.802      215.011      208.520      100.931    46229.623    43480.507    10187.131       12.256        4.995      380.927      107.055        0.079      336.160        7.272      854.656
02/07/2014  20:49:00     -336.840     -163.376       -6.180      198.682      166.426       97.408    39474.413    27697.759     9488.270       10.841        3.833      374.370       99.882        0.071      336.152        7.260      854.625
02/07/2014  20:50:00     -327.162     -173.212        5.774      251.597      192.215      100.293    63301.023    36946.795    10058.599       12.367        5.515      370.186      124.772        0.114      336.168        7.286      854.590
02/07/2014  20:51:00     -534.312     -230.763      -18.918      229.446      183.342       91.677    52645.501    33614.146     8404.587       21.686        4.733      582.015       90.936        0.024      336.210        7.356      854.493
02/07/2014  20:52:00     -446.535     -182.816      -24.913      260.287      268.381       94.211    67749.190    72028.263     8875.621       19.101        7.433      482.509      102.161        0.045      336.201        7.340      854.537
02/07/2014  20:53:00     -419.470     -103.344      -10.073      231.547      180.516       90.430    53614.229    32585.939     8177.668       14.054        4.719      432.013      119.250        0.076      336.187        7.317      854.446
02/07/2014  20:54:00     -301.151     -132.440        0.502      160.902      156.752       78.241    25889.345    24571.271     6121.645        8.240        2.829      328.986       81.581        0.061      336.170        7.290      854.452
02/07/2014  20:55:00     -463.923     -125.751      -38.252      275.396      187.439       96.239    75842.873    35133.384     9261.945       17.635        6.012      480.664      106.273        0.049      336.145        7.247      854.434
02/07/2014  20:56:00     -396.965     -229.179      -25.390      268.472      247.252      108.185    72077.407    61133.407    11703.970       17.780        7.246      458.372      124.046        0.073      336.181        7.307      854.540
02/07/2014  20:57:00     -354.706      -13.561       -7.125      240.525      164.200      103.787    57852.169    26961.613    10771.771       11.080        4.779      354.965      119.410        0.113      336.174        7.295      854.564
02/07/2014  20:58:00     -488.537     -248.946       -3.681      255.498      236.870      112.397    65279.135    56107.170    12633.137       21.731        6.701      548.309      103.163        0.035      336.179        7.304      854.607
02/07/2014  20:59:00     -476.564     -163.924      -16.560      228.299      235.111      114.017    52120.577    55277.044    12999.775       18.730        6.020      503.969       89.514        0.032      336.208        7.352      854.566
02/07/2014  21:00:00     -578.408     -200.535      -14.219      282.173      211.076      113.204    79621.854    44553.269    12815.089       25.595        6.850      612.185      117.990        0.037      336.195        7.330      854.471
02/07/2014  21:01:00     -392.042     -300.625      -26.293      229.770      176.411      110.192    52794.289    31120.898    12142.245       17.039        4.803      494.037      128.750        0.068      336.165        7.281      854.489
02/07/2014  21:02:00     -640.514     -173.238      -30.561      343.006      233.901      125.682   117652.788    54709.607    15795.961       31.464        9.408      663.528      165.451        0.062      336.168        7.285      854.458
02/07/2014  21:03:00     -393.669     -177.983        5.671      275.952      201.996      124.289    76149.259    40802.567    15447.874       15.952        6.620      432.034      136.243        0.099      336.167        7.284      854.421
02/07/2014  21:04:00     -669.641     -175.042      -53.203      278.909      286.545       98.960    77790.412    82107.945     9793.013       32.576        8.485      692.141       96.787        0.020      336.163        7.278      854.474
02/07/2014  21:05:00     -532.619     -302.801       -9.308      330.815      258.018      145.762   109438.528    66573.194    21246.528       28.632        9.863      612.675      169.765        0.077      336.157        7.267      854.472
02/07/2014  21:06:00     -469.318     -264.698        7.665      289.787      234.272      139.078    83976.723    54883.302    19342.629       22.426        7.910      538.818      156.037        0.084      336.204        7.345      854.437
02/07/2014  21:07:00     -390.335     -110.080       14.166      238.768      236.731      110.613    57010.283    56041.498    12235.346       14.496        6.264      405.560      124.634        0.094      336.184        7.312      854.450
02/07/2014  21:08:00     -372.280      -65.174       -5.163      233.330      211.502      113.339    54443.054    44732.902    12845.628       12.742        5.601      377.942      107.741        0.081      336.184        7.313      854.612
02/07/2014  21:09:00     -356.104     -164.217      -13.458      244.275      125.379       89.514    59670.369    15719.944     8012.773       11.866        4.170      392.144      100.941        0.066      336.166        7.282      854.640
02/07/2014  21:10:00     -421.123     -235.207       -3.064      321.834      175.073      120.340   103576.822    30650.569    14481.637       19.066        7.435      482.355      148.875        0.095      336.220        7.372      854.644
02/07/2014  21:11:00     -673.924     -264.132      -34.469      251.777      271.022      118.185    63391.863    73452.763    13967.767       33.794        7.541      723.837      116.018        0.026      336.264        7.446      854.596
02/07/2014  21:12:00     -431.230     -211.400      -41.674      256.844      178.991       96.690    65968.822    32037.619     9348.922       16.985        5.368      480.259      111.094        0.054      336.281        7.473      854.634
02/07/2014  21:13:00     -395.110     -200.322      -10.665      242.807      174.813       97.789    58955.241    30559.606     9562.684       14.770        4.954      442.991      107.443        0.059      336.262        7.440      854.585
02/07/2014  21:14:00     -514.766     -262.085      -21.112      332.189      268.071      105.506   110349.242    71861.898    11131.610       26.369        9.667      577.644      111.677        0.037      336.282        7.476      854.614
02/07/2014  21:15:00     -508.809     -289.526      -17.378      236.643      207.958       98.811    55999.947    43246.339     9763.582       22.599        5.450      585.416      101.551        0.030      336.279        7.471      854.568
02/07/2014  21:16:00     -531.579     -233.507      -13.056      332.766      240.353      118.344   110733.022    57769.576    14005.309       25.985        9.125      580.605      153.850        0.070      336.296        7.497      854.576
02/07/2014  21:17:00     -488.089     -337.170      -12.496      257.801      286.106      140.774    66461.173    81856.561    19817.204       26.007        8.407      593.224      158.718        0.072      336.319        7.537      854.530
02/07/2014  21:18:00     -348.777     -125.483      -24.643      248.422      246.423      117.282    61713.450    60724.466    13754.972       13.707        6.810      370.663      113.636        0.094      336.305        7.513      854.600
02/07/2014  21:19:00     -287.421     -157.598        6.033      219.266      156.871      108.023    48077.657    24608.389    11669.060        9.590        4.218      327.793      109.237        0.111      336.256        7.431      854.664
02/07/2014  21:20:00     -471.914      -97.092      -11.308      365.876      205.588      114.879   133865.444    42266.517    13197.155       21.076        9.466      481.798      130.949        0.074      336.236        7.397      854.667
02/07/2014  21:21:00     -784.961     -330.346      -35.468      345.928      284.038      143.817   119665.879    80677.627    20683.325       47.374       11.051      851.641      161.207        0.036      336.236        7.398      854.612
02/07/2014  21:22:00     -305.737      -70.476       10.490      250.938      222.267      134.239    62969.708    49402.471    18020.071       11.445        6.520      313.755      130.214        0.172      336.229        7.386      854.633
02/07/2014  21:23:00     -340.596     -144.531      -20.136      274.278      153.121      110.167    75228.593    23445.903    12136.774       12.403        5.541      369.993      133.573        0.130      336.219        7.371      854.691
02/07/2014  21:24:00     -329.773     -126.096       18.102      232.450      219.414      120.900    54033.196    48142.565    14616.880       12.086        5.840      353.059      128.467        0.132      336.237        7.400      854.758
02/07/2014  21:25:00     -666.572     -262.989      -16.945      317.200      313.208      148.070   100615.998    98099.389    21924.685       36.716       11.032      716.576      163.827        0.052      336.260        7.438      854.734
02/07/2014  21:26:00     -465.671     -298.424       11.455      308.658      230.977      133.912    95269.770    53350.209    17932.392       23.626        8.328      553.088      139.444        0.064      336.258        7.435      854.729
02/07/2014  21:27:00     -552.930     -316.471       -9.916      339.926      262.129      136.598   115549.719    68711.751    18658.955       30.441       10.146      637.091      174.856        0.075      336.287        7.483      854.782
02/07/2014  21:28:00     -425.284     -213.052       10.591      258.702      249.545      113.836    66926.636    62272.630    12958.524       18.424        7.108      475.666      126.013        0.070      336.294        7.497      854.830
02/07/2014  21:29:00     -542.036     -354.210      -32.996      314.727      242.052      131.066    99053.059    58589.215    17178.272       29.755        8.741      647.509      148.576        0.053      336.303        7.511      854.897
02/07/2014  21:30:00     -373.452     -254.571        4.987      256.685      181.243      116.287    65887.410    32849.180    13522.653       15.826        5.613      451.966      130.859        0.084      336.293        7.493      854.876
02/07/2014  21:31:00     -500.338     -332.012       -3.939      276.165      247.042      126.878    76267.074    61029.674    16097.902       25.696        7.670      600.475      148.500        0.061      336.322        7.541      854.925
02/07/2014  21:32:00     -489.985     -255.943       -0.534      313.048      266.356      110.739    97999.281    70945.452    12263.048       24.336        9.060      552.804      134.966        0.060      336.329        7.554      854.961
02/07/2014  21:33:00     -582.416     -247.433        8.442      411.588      345.256      151.687   169404.951   119201.613    23008.860       35.600       15.581      632.796      190.350        0.090      336.370        7.620      854.924
02/07/2014  21:34:00     -428.477     -189.516        2.860      294.803      212.731      106.025    86909.021    45254.452    11241.370       18.143        7.170      468.518      102.782        0.048      336.390        7.655      854.985
02/07/2014  21:35:00     -645.547     -166.947      -20.404      264.587      230.661      111.663    70006.094    53204.649    12468.586       29.032        6.784      666.785      128.476        0.037      336.402        7.675      854.999
02/07/2014  21:36:00     -544.328     -210.960       -8.223      282.140      302.183      141.867    79603.034    91314.737    20126.162       26.592        9.552      583.778      159.084        0.074      336.403        7.677      855.021
02/07/2014  21:37:00     -548.048     -267.235       -0.561      330.675      223.694      137.267   109346.023    50039.022    18842.218       27.496        8.911      609.730      163.154        0.072      336.451        7.758      854.997
02/07/2014  21:38:00     -739.876     -253.776      -21.824      327.813      281.523      129.741   107461.101    79255.144    16832.662       40.788       10.177      782.188      156.575        0.040      336.505        7.849      855.014
02/07/2014  21:39:00     -718.007     -311.118      -46.228      283.813      198.421      120.072    80550.077    39370.767    14417.279       37.437        6.717      782.514      114.829        0.022      336.500        7.840      854.988
02/07/2014  21:40:00     -556.855     -167.446      -22.376      366.764      255.224      115.441   134515.958    65139.387    13326.685       27.576       10.649      581.486      122.583        0.044      336.481        7.809      854.871
02/07/2014  21:41:00     -404.545     -278.787        5.029      245.905      191.408      114.875    60469.086    36637.190    13196.359       17.583        5.515      491.303      121.900        0.062      336.502        7.845      854.921
02/07/2014  21:42:00     -524.973     -324.884       -8.454      296.764      201.667      105.465    88069.142    40669.625    11122.854       26.051        6.993      617.370      115.789        0.035      336.520        7.874      854.964
02/07/2014  21:43:00     -631.584     -203.014      -12.668      342.854      263.839      138.964   117548.808    69610.852    19310.913       32.333       10.324      663.410      148.018        0.050      336.533        7.897      854.957
02/07/2014  21:44:00     -488.318     -273.843      -26.845      268.771      239.387      109.517    72237.958    57306.240    11993.872       22.782        7.077      559.861      127.680        0.052      336.550        7.924      855.012
02/07/2014  21:45:00     -445.855     -365.256      -21.858      305.045      244.847      147.636    93052.338    59949.967    21796.484       25.370        8.740      576.367      173.559        0.091      336.534        7.898      854.920
02/07/2014  21:46:00     -409.867     -158.232      -16.437      247.436      210.420      111.765    61224.433    44276.474    12491.414       15.562        5.900      439.350      121.125        0.076      336.543        7.914      854.869
02/07/2014  21:47:00     -595.740     -412.233       -3.649      312.125      279.373      135.038    97422.214    78048.999    18235.195       35.924        9.685      724.460      167.979        0.054      336.544        7.915      854.817
02/07/2014  21:48:00     -471.626     -215.607        2.263      268.470      276.680      130.464    72076.336    76551.750    17020.932       21.725        8.282      518.572      144.121        0.077      336.560        7.941      854.888
02/07/2014  21:49:00     -750.898     -348.695      -43.020      349.305      315.966      144.581   122014.131    99834.585    20903.680       46.497       12.138      827.911      141.003        0.029      336.586        7.984      854.838
02/07/2014  21:50:00     -607.564     -216.531       -3.588      364.461      266.861      151.852   132831.762    71214.837    23059.115       32.152       11.355      644.996      170.632        0.070      336.597        8.003      854.829
02/07/2014  21:51:00     -727.071     -441.296      -53.836      369.673      315.255      145.246   136658.075    99385.462    21096.360       49.165       12.857      850.514      147.948        0.030      336.567        7.954      854.853
02/07/2014  21:52:00     -756.163     -449.283      -18.334      420.760      284.847      170.747   177038.987    81137.824    29154.645       53.059       14.367      879.567      203.297        0.053      336.555        7.934      854.769
02/07/2014  21:53:00     -745.608     -495.549      -29.752      526.804      400.920      169.466   277522.807   160736.652    28718.849       63.459       23.349      895.265      231.736        0.067      336.548        7.921      854.805
02/07/2014  21:54:00     -763.183     -425.427      -20.090      406.189      366.029      187.132   164989.099   133977.357    35018.382       54.885       16.699      873.748      211.194        0.058      336.539        7.906      854.793
02/07/2014  21:55:00     -500.517     -176.162       -8.524      410.300      253.163      146.997   168345.882    64091.391    21607.997       26.778       12.702      530.613      173.110        0.106      336.466        7.783      854.977
02/07/2014  21:56:00     -688.347     -233.904      -20.685      360.945      286.861      165.586   130281.350    82289.219    27418.671       38.443       11.999      727.003      193.955        0.071      336.404        7.679      855.020
02/07/2014  21:57:00     -438.487     -193.821        9.540      318.456      199.907      120.590   101414.479    39962.816    14542.028       19.289        7.796      479.413      157.029        0.107      336.395        7.663      855.077
02/07/2014  21:58:00     -454.569     -260.996       -9.164      347.764      234.194      155.564   120939.571    54846.613    24200.253       23.737        9.999      524.167      165.010        0.099      336.435        7.731      855.029
02/07/2014  21:59:00     -472.346     -275.576        7.761      280.188      285.970      140.116    78505.072    81778.914    19632.374       23.948        8.996      546.857      156.033        0.081      336.424        7.711      854.999
02/07/2014  22:00:00     -625.630     -323.226      -23.556      437.256      296.693      144.341   191193.155    88026.749    20834.218       39.819       15.003      704.193      172.993        0.060      336.480        7.806      854.963
02/07/2014  22:01:00     -647.332     -316.877      -16.411      374.520      282.214      151.128   140265.516    79644.763    22839.714       38.119       12.137      720.729      167.854        0.054      336.529        7.890      854.926
02/07/2014  22:02:00     -814.745     -310.709       -9.169      365.061      312.341      156.445   133269.229    97556.655    24474.973       50.782       12.765      871.980      166.900        0.037      336.565        7.949      854.971
02/07/2014  22:03:00     -680.306     -463.107      -20.332      333.787      285.168      149.040   111413.797    81320.764    22212.838       44.628       10.747      822.973      157.203        0.036      336.586        7.985      854.995
02/07/2014  22:04:00     -506.928     -307.164        4.999      300.856      295.155      151.099    90514.334    87116.239    22831.044       27.587       10.023      592.728      172.670        0.085      336.600        8.008      855.082
02/07/2014  22:05:00     -936.274     -511.153      -29.354      345.290      342.768      153.811   119225.180   117489.942    23657.906       69.951       13.019     1066.717      169.086        0.025      336.605        8.015      855.096
02/07/2014  22:06:00     -588.894     -222.383        3.976      402.979      392.254      152.136   162392.359   153863.072    23145.385       36.777       16.970      629.484      186.253        0.088      336.609        8.023      855.065
02/07/2014  22:07:00     -690.896     -287.874      -31.553      433.440      262.092      131.076   187870.359    68692.299    17181.039       41.742       13.687      748.471      166.937        0.050      336.662        8.111      855.086
02/07/2014  22:08:00     -665.134     -243.436      -29.847      358.963      232.640      139.591   128854.608    54121.404    19485.591       35.247       10.123      708.283      148.990        0.044      336.635        8.066      855.165
02/07/2014  22:09:00     -750.484     -427.252      -15.494      354.525      268.143      138.801   125688.315    71900.515    19265.846       48.139       10.843      863.580      165.406        0.037      336.587        7.988      855.226
02/07/2014  22:10:00     -594.428     -381.411      -21.233      342.803      325.791      137.698   117513.706   106139.974    18960.868       37.089       12.131      706.271      160.827        0.052      336.622        8.045      855.224
02/07/2014  22:11:00     -463.815     -121.081       -7.142      258.505      257.381      110.269    66824.997    66244.840    12159.164       18.750        7.261      479.359      105.357        0.048      336.600        8.008      855.243
02/07/2014  22:12:00     -616.216     -435.806      -27.364      339.918      323.309      140.167   115544.354   104528.820    19646.756       40.501       11.986      754.751      176.514        0.055      336.569        7.957      855.228
02/07/2014  22:13:00     -665.712     -447.029       18.550      454.367      310.198      160.659   206449.142    96222.676    25811.470       48.585       16.424      801.877      185.940        0.054      336.589        7.989      855.152
02/07/2014  22:14:00     -665.957     -444.942       -4.583      351.225      269.451      145.602   123359.141    72604.047    21200.088       42.928       10.858      800.919      176.095        0.048      336.644        8.081      855.161
02/07/2014  22:15:00     -737.634     -455.319      -12.906      379.997      336.089      141.717   144397.945   112955.764    20083.744       51.446       13.872      866.844      168.134        0.038      336.613        8.030      855.185
02/07/2014  22:16:00     -796.041     -474.733        3.348      421.835      365.972      159.730   177945.109   133935.522    25513.520       59.816       16.870      926.851      198.624        0.046      336.599        8.008      855.171
02/07/2014  22:17:00     -612.969     -373.647      -37.880      302.595      202.948      121.683    91563.516    41187.776    14806.781       33.214        7.378      717.874      137.027        0.036      336.568        7.955      855.224
02/07/2014  22:18:00     -752.107     -243.122      -34.900      332.739      269.347      131.832   110715.122    72547.800    17379.730       41.328       10.032      790.426      145.680        0.034      336.585        7.983      855.266
02/07/2014  22:19:00     -762.380     -407.017      -19.451      348.967      271.505      140.112   121778.299    73714.906    19631.274       48.115       10.756      864.226      159.682        0.034      336.603        8.014      855.255
02/07/2014  22:20:00     -525.956     -402.994       -2.787      323.391      230.892      128.687   104581.852    53311.126    16560.296       30.671        8.723      662.596      162.426        0.060      336.596        8.002      855.319
02/07/2014  22:21:00     -678.017     -139.413      -20.061      308.395      215.711      117.528    95107.573    46531.246    13812.915       31.747        7.773      692.202      136.542        0.039      336.589        7.990      855.336
02/07/2014  22:22:00     -507.930     -269.412      -12.990      277.849      232.058      115.202    77200.145    53851.129    13271.386       23.750        7.216      574.957      126.098        0.048      336.619        8.038      855.356
02/07/2014  22:23:00     -745.047     -444.895      -36.434      321.008      325.635      137.644   103046.173   106037.984    18945.997       49.115       11.402      867.771      155.593        0.032      336.666        8.119      855.320
02/07/2014  22:24:00     -667.564     -278.912      -10.776      396.986      270.109      135.090   157598.263    72958.950    18249.181       38.613       12.440      723.487      170.665        0.056      336.684        8.148      855.342
02/07/2014  22:25:00     -785.074     -426.099      -26.291      357.399      261.827      154.739   127733.805    68553.387    23944.234       50.937       11.012      893.253      167.336        0.035      336.726        8.219      855.354
02/07/2014  22:26:00     -524.630     -309.677      -13.466      282.768      242.518      133.688    79957.670    58815.144    17872.414       26.395        7.832      609.210      150.968        0.061      336.744        8.248      855.427
02/07/2014  22:27:00     -597.239     -237.376       -6.472      324.995      248.881      123.494   105621.495    61941.741    15250.746       29.791        9.141      642.683      139.121        0.047      336.718        8.203      855.498
02/07/2014  22:28:00     -563.425     -385.054      -15.691      275.650      308.553      138.606    75983.025    95205.018    19211.759       32.814        9.520      682.432      143.850        0.044      336.835        8.400      855.369
02/07/2014  22:29:00     -678.257     -247.304      -32.340      388.453      381.802      141.577   150896.061   145773.085    20043.947       41.941       15.836      721.936      143.719        0.040      336.798        8.338      855.411
02/07/2014  22:30:00     -643.249     -264.578       -2.649      374.502      296.980      174.594   140251.770    88197.289    30483.053       37.130       12.947      695.536      188.229        0.073      336.758        8.272      855.435
02/07/2014  22:31:00     -783.003     -281.927      -18.494      367.229      313.920      156.244   134857.106    98546.051    24412.091       47.532       12.891      832.212      168.093        0.041      336.732        8.230      855.423
02/07/2014  22:32:00     -657.321     -354.161      -21.189      259.715      278.204      131.872    67451.887    77397.230    17390.217       36.006        8.112      746.660      136.623        0.033      336.709        8.189      855.493
02/07/2014  22:33:00     -531.952     -450.451        9.244      416.190      337.697      192.705   173214.323   114039.340    37135.192       40.511       16.219      697.051      221.819        0.101      336.712        8.195      855.386
02/07/2014  22:34:00     -675.306     -210.828      -39.472      309.959      267.347      122.463    96074.296    71474.462    14997.099       34.226        9.127      707.451      145.405        0.042      336.713        8.197      855.393
02/07/2014  22:35:00     -431.106     -187.244        9.571      298.018      216.093      133.364    88814.458    46696.344    17785.844       18.712        7.665      470.014      145.816        0.096      336.675        8.134      855.416
02/07/2014  22:36:00     -571.278     -241.542      -22.834      342.606      276.005      132.424   117378.578    76178.553    17536.164       29.812       10.555      620.243      154.748        0.062      336.680        8.141      855.390
02/07/2014  22:37:00     -519.653     -309.570      -13.140      312.093      278.785      122.588    97402.323    77720.964    15027.758       27.806        9.508      604.875      134.030        0.049      336.733        8.230      855.368
02/07/2014  22:38:00     -527.345     -150.544       -7.434      285.134      229.600      112.818    81301.280    52716.257    12727.952       22.375        7.337      548.413      134.124        0.060      336.752        8.261      855.445
02/07/2014  22:39:00     -580.694     -284.664      -20.272      347.270      243.375      130.194   120596.740    59231.455    16950.562       30.768        9.839      646.715      151.007        0.055      336.795        8.334      855.474
02/07/2014  22:40:00     -367.503     -224.609       11.612      289.616      207.052      125.282    83877.170    42870.566    15695.589       16.401        7.122      430.706      154.907        0.129      336.802        8.345      855.557
02/07/2014  22:41:00     -392.985     -381.883      -10.816      223.899      242.405      128.198    50130.579    58759.983    16434.763       21.283        6.266      547.971      127.945        0.055      336.850        8.425      855.575
02/07/2014  22:42:00     -644.144     -117.012      -44.723      370.115      257.962      136.411   136985.302    66544.461    18607.917       32.633       11.107      654.686      150.011        0.053      336.837        8.404      855.536
02/07/2014  22:43:00     -597.595     -310.922      -10.495      394.984      356.520      162.497   156012.476   127106.383    26405.180       38.165       15.476      673.641      201.209        0.089      336.885        8.483      855.417
02/07/2014  22:44:00     -743.261     -380.654      -37.825      418.888      322.241      146.173   175467.489   103839.298    21366.509       49.966       15.034      835.065      191.778        0.053      336.899        8.506      855.434
02/07/2014  22:45:00     -460.752     -244.959        5.140      277.199      238.347      123.134    76839.008    56809.344    15162.039       21.054        7.441      521.821      152.933        0.086      336.890        8.491      855.493
02/07/2014  22:46:00     -683.885     -371.696       -6.638      407.536      365.910      173.179   166085.911   133889.832    29991.050       46.787       16.498      778.368      202.846        0.068      336.910        8.525      855.474
02/07/2014  22:47:00     -516.658     -365.441        4.061      345.113      249.216      138.232   119103.051    62108.836    19108.180       30.037       10.016      632.837      165.141        0.068      336.935        8.567      855.528
02/07/2014  22:48:00     -455.206     -251.672       12.743      273.139      236.869      117.424    74604.909    56106.997    13788.442       20.758        7.225      520.146      125.319        0.058      336.918        8.537      855.544
02/07/2014  22:49:00     -617.781     -529.705      -18.508      359.626      307.548      157.756   129331.009    94585.776    24886.860       45.564       12.440      813.782      174.035        0.046      336.939        8.574      855.477
02/07/2014  22:50:00     -664.167     -342.972      -41.228      418.457      250.251      146.297   175106.573    62625.770    21402.912       40.974       12.957      747.494      177.037        0.056      336.930        8.557      855.488
02/07/2014  22:51:00     -576.414     -213.751      -37.045      282.842      267.976      125.828    79999.799    71810.990    15832.774       27.345        8.382      614.770      143.960        0.055      336.897        8.502      855.527
02/07/2014  22:52:00     -591.280     -209.145      -25.124      313.055      211.464      134.421    98003.291    44716.856    18069.039       27.735        8.039      627.179      159.181        0.064      336.824        8.382      855.560
02/07/2014  22:53:00     -527.253     -213.495      -15.404      304.981      275.770      123.546    93013.185    76048.969    15263.652       25.403        9.216      568.837      115.590        0.041      336.861        8.444      855.633
02/07/2014  22:54:00     -437.148     -220.961       -7.878      272.396      167.809      110.889    74199.420    28159.800    12296.443       17.730        5.733      489.818      125.712        0.066      336.869        8.458      855.619
02/07/2014  22:55:00     -381.806     -302.368      -22.150      242.718      217.291      101.520    58911.884    47215.523    10306.375       17.704        5.822      487.034      105.703        0.047      336.864        8.449      855.649
02/07/2014  22:56:00     -703.064     -411.503      -41.607      352.103      235.987      126.671   123976.450    55689.702    16045.651       43.050        9.786      814.637      148.576        0.033      336.868        8.455      855.598
02/07/2014  22:57:00     -305.003     -168.409       -4.005      211.261      170.403      100.062    44631.017    29037.247    10012.466       10.253        4.184      348.408      110.317        0.100      336.847        8.420      855.624
02/07/2014  22:58:00     -476.694     -158.408      -34.334      360.517      259.495      123.802   129972.604    67337.832    15326.851       23.303       10.632      502.325      166.626        0.110      336.806        8.352      855.656
02/07/2014  22:59:00     -326.145     -289.666        7.613      231.916      229.386      115.460    53784.950    52618.018    13331.008       15.501        5.987      436.207      132.712        0.093      336.865        8.450      855.747
02/07/2014  23:00:00     -656.159     -464.621      -49.800      264.347      283.567      125.996    69879.333    80410.120    15874.937       40.750        8.308      804.001      134.759        0.028      336.964        8.613      855.634
02/07/2014  23:01:00     -654.552     -336.043      -31.896      321.030      296.214      138.658   103060.058    87742.857    19226.081       37.616       10.501      735.773      146.389        0.040      336.953        8.599      855.710
02/07/2014  23:02:00     -587.479     -312.106      -18.044      391.843      297.580      140.243   153540.758    88553.687    19668.174       35.226       13.088      665.238      141.224        0.045      336.945        8.584      855.752
02/07/2014  23:03:00     -604.025     -188.527       -2.832      309.252      266.137      126.481    95636.969    70829.150    15997.444       29.139        9.123      632.763      143.473        0.051      336.903        8.513      855.745
02/07/2014  23:04:00     -568.523     -364.176        8.533      412.191      355.196      150.700   169901.511   126164.203    22710.492       38.728       15.939      675.161      182.512        0.073      336.929        8.556      855.842
02/07/2014  23:05:00     -769.829     -455.927      -26.296      336.073      283.341      153.933   112945.395    80282.087    23695.466       50.902       10.846      894.710      161.332        0.033      336.954        8.598      855.683
02/07/2014  23:06:00     -477.317      -66.655       25.209      336.544      301.838      153.211   113261.886    91105.934    23473.663       23.033       11.392      481.949      161.207        0.112      336.951        8.593      855.744
02/07/2014  23:07:00     -387.354     -201.308        0.195      300.308      208.884      127.862    90184.618    43632.361    16348.567       17.034        7.508      436.541      153.175        0.123      336.942        8.579      855.712
02/07/2014  23:08:00     -507.304     -200.310      -16.965      283.058      247.814      125.739    80121.559    61411.878    15810.188       22.753        7.867      545.419      118.247        0.047      336.942        8.577      855.741
02/07/2014  23:09:00     -551.598     -424.982      -25.016      351.675      286.905      153.726   123675.410    82314.683    23631.708       35.751       11.481      696.326      175.278        0.063      336.971        8.626      855.653
02/07/2014  23:10:00     -544.352     -213.898       -9.112      392.031      258.530      137.924   153688.153    66837.638    19022.899       29.080       11.977      584.869      177.379        0.092      336.979        8.641      855.731
02/07/2014  23:11:00     -691.603     -288.000      -15.214      327.326      351.609      142.664   107142.316   123628.831    20353.004       40.626       12.556      749.172      163.826        0.048      337.004        8.683      855.724
02/07/2014  23:12:00     -459.365     -110.282       -9.975      353.730      228.036      155.450   125124.993    52000.616    24164.813       21.224       10.065      472.417      188.007        0.158      337.025        8.717      855.766
02/07/2014  23:13:00     -463.459     -290.498       -5.484      286.699      252.252      129.354    82196.330    63630.979    16732.438       23.085        8.128      546.976      145.431        0.071      337.046        8.751      855.816
02/07/2014  23:14:00     -595.504     -173.935       10.970      338.291      261.096      146.764   114440.681    68171.161    21539.657       29.453       10.208      620.386      171.458        0.076      337.029        8.724      855.817
02/07/2014  23:15:00     -398.438     -157.053        8.253      315.233      219.739      124.335    99371.832    48285.059    15459.092       17.327        8.156      428.274      145.939        0.116      337.065        8.784      855.856
02/07/2014  23:16:00     -561.761     -248.499      -33.212      327.996      258.315      131.966   107581.155    66726.869    17415.112       28.504        9.586      614.269      141.957        0.053      337.076        8.801      855.960
02/07/2014  23:17:00     -847.458     -422.043      -22.989      453.376      294.366      135.470   205549.440    86651.239    18352.195       60.363       15.528      946.734      186.550        0.039      337.092        8.829      855.922
02/07/2014  23:18:00     -544.448     -384.497      -13.295      340.275      274.639      162.620   115787.087    75426.673    26445.378       33.101       10.883      666.530      187.981        0.080      337.089        8.826      855.942
02/07/2014  23:19:00     -553.131     -291.269       17.723      405.698      298.647      133.655   164591.240    89189.925    17863.651       33.132       13.582      625.134      179.512        0.082      337.078        8.806      856.008
02/07/2014  23:20:00     -541.611     -194.182       -3.742      345.712      297.730      133.712   119516.585    88642.867    17878.874       27.851       11.302      575.368      150.376        0.068      337.068        8.790      855.945
02/07/2014  23:21:00     -546.952     -339.999       17.186      333.870      254.114      161.244   111469.007    64574.035    25999.697       30.851       10.102      644.015      187.835        0.085      337.065        8.785      855.997
02/07/2014  23:22:00     -550.813     -243.296      -12.285      252.311      183.891      112.862    63660.958    33816.034    12737.862       23.645        5.511      602.153      124.061        0.042      337.040        8.744      856.004
02/07/2014  23:23:00     -649.124     -373.278      -11.641      336.476      321.875      156.718   113215.964   103603.811    24560.386       40.106       12.069      748.798      184.649        0.061      337.053        8.765      856.002
02/07/2014  23:24:00     -865.696     -504.501      -40.383      454.401      396.768      167.311   206480.289   157425.022    27993.118       69.866       19.595     1001.974      179.763        0.032      337.151        8.929      855.858
02/07/2014  23:25:00     -597.493     -355.524        5.973      364.012      343.676      162.271   132504.400   118113.528    26331.947       38.014       13.847      695.266      193.543        0.077      337.160        8.942      855.864
02/07/2014  23:26:00     -594.681     -281.553       -3.292      327.898      293.945      132.692   107516.919    86403.415    17607.167       32.219       10.576      657.965      158.027        0.058      337.152        8.931      855.922
02/07/2014  23:27:00     -580.030     -316.364      -16.508      310.005      233.319      112.900    96103.086    54437.557    12746.410       30.001        8.164      660.697      131.700        0.040      337.164        8.950      855.924
02/07/2014  23:28:00     -606.252     -283.826        0.701      371.346      288.801      129.924   137897.883    83405.944    16880.226       34.309       11.909      669.402      158.454        0.056      337.197        9.005      855.984
02/07/2014  23:29:00     -676.658     -430.043      -12.762      398.577      296.824      135.426   158864.023    88104.406    18340.201       45.408       13.265      801.750      177.184        0.049      337.221        9.047      855.912
02/07/2014  23:30:00     -516.384     -344.749       16.699      416.738      313.606      161.405   173670.310    98348.768    26051.723       34.187       14.904      620.890      213.057        0.118      337.207        9.021      855.976
02/07/2014  23:31:00     -761.143     -439.344      -49.005      346.186      336.591      141.941   119844.446   113293.719    20147.303       51.397       12.664      878.841      176.247        0.040      337.200        9.011      855.989
02/07/2014  23:32:00     -592.116     -171.756      -33.580      267.644      322.294      126.241    71633.207   103873.213    15936.798       28.630        9.572      616.524      118.774        0.037      337.181        8.980      856.035
02/07/2014  23:33:00     -464.979     -149.077        1.860      291.812      219.300      109.070    85154.358    48092.433    11896.339       19.176        7.257      488.292      103.121        0.045      337.136        8.904      856.026
02/07/2014  23:34:00     -370.882     -187.050       -3.798      205.314      176.011       98.948    42153.910    30979.742     9790.650       12.772        4.146      415.381       99.149        0.057      337.102        8.845      856.024
02/07/2014  23:35:00     -360.809     -135.163       -0.389      214.702      144.098       98.338    46097.141    20764.164     9670.433       11.248        3.827      385.295       98.552        0.065      337.084        8.815      856.061
02/07/2014  23:36:00     -614.303     -299.801      -26.823      334.093      253.918      154.589   111618.368    64474.128    23897.863       33.394       10.000      683.556      167.268        0.060      337.149        8.925      855.960
02/07/2014  23:37:00     -590.294     -368.883      -19.793      303.152      245.956      133.558    91901.114    60494.463    17837.735       32.754        8.512      696.075      142.965        0.042      337.165        8.952      855.903
02/07/2014  23:38:00     -554.838     -257.863       -5.821      317.138      243.633      137.985   100576.380    59357.012    19039.872       27.664        8.949      611.832      169.678        0.077      337.166        8.954      855.952
02/07/2014  23:39:00     -534.819     -323.647      -13.573      292.325      240.571      140.563    85453.684    57874.242    19757.978       27.699        8.154      625.123      147.595        0.056      337.164        8.951      856.021
02/07/2014  23:40:00     -397.594     -115.762       25.223      268.335      276.828      129.551    72003.620    76633.935    16783.495       16.874        8.271      414.103      145.370        0.123      337.118        8.875      856.060
02/07/2014  23:41:00     -424.065     -261.163       -9.308      241.663      209.868      113.434    58400.861    44044.623    12867.194       18.170        5.766      498.034      124.940        0.063      337.121        8.877      856.106
02/07/2014  23:42:00     -356.810     -217.760       10.971      280.873      262.223      126.779    78889.500    68761.055    16072.812       16.926        8.186      418.011      140.553        0.113      337.109        8.857      856.109
02/07/2014  23:43:00     -536.887     -335.368        4.885      343.562      286.136      126.276   118034.994    81873.909    15945.720       30.826       10.793      633.024      157.767        0.062      337.172        8.964      856.161
02/07/2014  23:44:00     -536.513     -300.487       -5.628      301.580      303.907      136.504    90950.236    92359.571    18633.260       29.002       10.097      614.929      163.679        0.071      337.207        9.024      856.257
02/07/2014  23:45:00     -617.785     -432.057        2.563      386.502      308.187      159.731   149384.103    94979.245    25514.118       41.905       13.494      753.878      203.213        0.073      337.212        9.032      856.263
02/07/2014  23:46:00     -626.083     -348.934       -2.997      299.835      250.000      134.917    89901.087    62499.973    18202.627       34.214        8.530      716.753      157.879        0.049      337.196        9.005      856.334
02/07/2014  23:47:00     -542.327     -369.462       -8.699      281.288      220.759      132.184    79122.856    48734.529    17472.634       28.798        7.267      656.217      136.471        0.043      337.236        9.070      856.299
02/07/2014  23:48:00     -510.952     -312.328       -1.363      318.707      217.520      118.584   101573.974    47315.079    14062.113       26.075        8.148      598.849      137.087        0.052      337.224        9.052      856.287
02/07/2014  23:49:00     -435.886     -281.034      -14.979      321.567      197.028      135.193   103405.085    38820.171    18277.197       21.482        8.025      518.630      159.118        0.094      337.223        9.050      856.331
02/07/2014  23:50:00     -508.875     -291.569       -5.908      343.472      248.505      144.752   117972.823    61754.739    20953.260       27.230       10.034      586.486      166.823        0.081      337.222        9.049      856.356
02/07/2014  23:51:00     -683.030     -298.208       -5.204      399.330      359.869      156.497   159464.476   129506.019    24491.228       43.441       15.673      745.290      185.450        0.062      337.234        9.068      856.320
02/07/2014  23:52:00     -569.870     -238.817      -12.672      360.700      322.589      161.790   130104.836   104063.960    26176.128       32.109       13.017      617.888      188.148        0.093      337.205        9.019      856.314
02/07/2014  23:53:00     -770.931     -286.690      -30.004      358.283      310.387      144.346   128366.432    96340.092    20835.802       46.144       12.277      822.512      148.250        0.032      337.226        9.054      856.316
02/07/2014  23:54:00     -657.870     -371.169      -47.418      308.727      220.316      117.513    95312.247    48539.190    13809.306       36.520        7.883      755.354      115.793        0.023      337.248        9.092      856.416
02/07/2014  23:55:00     -739.105     -443.772      -13.976      474.353      342.711      182.892   225010.488   117451.161    33449.542       55.958       18.796      862.096      236.478        0.075      337.278        9.142      856.396
02/07/2014  23:56:00     -576.345     -228.161        3.369      421.682      300.457      154.292   177815.685    90274.275    23806.092       33.801       14.595      619.864      190.657        0.095      337.277        9.139      856.428
02/07/2014  23:57:00     -781.689     -347.555      -14.982      426.934      282.680      152.920   182272.446    79907.921    23384.623       50.875       14.278      855.472      172.109        0.040      337.279        9.144      856.469
02/07/2014  23:58:00     -683.106     -432.607       -0.741      449.288      286.495      174.576   201859.635    82079.467    30476.829       48.404       15.721      808.568      215.139        0.071      337.286        9.154      856.477
02/07/2014  23:59:00     -569.548     -231.295       -5.419      271.199      313.961      122.132    73548.637    98571.383    14916.227       28.244        9.352      614.721      133.718        0.047      337.250        9.093      856.567
